<?xml version="1.0" encoding="UTF-8" standalone="no" ?>
<gpx xmlns="http://www.topografix.com/GPX/1/1" xmlns:xsi="http://www.w3.org/2001/XMLSchema-instance" xsi:schemaLocation="http://www.topografix.com/GPX/1/1 http://www.topografix.com/GPX/1/1/gpx.xsd" version="1.1" creator="VisuGPX - https://www.visugpx.com">
  <metadata>
    <name>Tour du Mont Puget</name>
    <desc><![CDATA[Tour du Mont Puget depuis Luminy]]></desc>
  </metadata>
  <trk>
    <name><![CDATA[2018-02-25 13-48]]></name>
    <trkseg>
      <trkpt lat="43.22999" lon="5.43701">
        <ele>160.6</ele>
        <time>2018-02-25T12:49:17Z</time>
      </trkpt>
      <trkpt lat="43.22998" lon="5.43701">
        <ele>159</ele>
        <time>2018-02-25T12:49:27Z</time>
      </trkpt>
      <trkpt lat="43.22995" lon="5.43703">
        <ele>159.2</ele>
        <time>2018-02-25T12:49:32Z</time>
      </trkpt>
      <trkpt lat="43.22993" lon="5.43703">
        <ele>156.6</ele>
        <time>2018-02-25T12:49:37Z</time>
      </trkpt>
      <trkpt lat="43.22992" lon="5.43703">
        <ele>154.8</ele>
        <time>2018-02-25T12:49:42Z</time>
      </trkpt>
      <trkpt lat="43.22992" lon="5.43703">
        <ele>148.4</ele>
        <time>2018-02-25T12:50:02Z</time>
      </trkpt>
      <trkpt lat="43.2299" lon="5.43704">
        <ele>150</ele>
        <time>2018-02-25T12:50:07Z</time>
      </trkpt>
      <trkpt lat="43.22987" lon="5.43704">
        <ele>149.6</ele>
        <time>2018-02-25T12:50:12Z</time>
      </trkpt>
      <trkpt lat="43.22985" lon="5.43704">
        <ele>150</ele>
        <time>2018-02-25T12:50:17Z</time>
      </trkpt>
      <trkpt lat="43.22979" lon="5.43703">
        <ele>147.8</ele>
        <time>2018-02-25T12:50:22Z</time>
      </trkpt>
      <trkpt lat="43.22974" lon="5.43705">
        <ele>148.2</ele>
        <time>2018-02-25T12:50:27Z</time>
      </trkpt>
      <trkpt lat="43.2297" lon="5.43708">
        <ele>151.6</ele>
        <time>2018-02-25T12:50:32Z</time>
      </trkpt>
      <trkpt lat="43.22967" lon="5.4371">
        <ele>149.8</ele>
        <time>2018-02-25T12:50:37Z</time>
      </trkpt>
      <trkpt lat="43.22963" lon="5.43709">
        <ele>148.6</ele>
        <time>2018-02-25T12:50:42Z</time>
      </trkpt>
      <trkpt lat="43.22958" lon="5.43707">
        <ele>149.6</ele>
        <time>2018-02-25T12:50:47Z</time>
      </trkpt>
      <trkpt lat="43.22954" lon="5.43707">
        <ele>151.4</ele>
        <time>2018-02-25T12:50:52Z</time>
      </trkpt>
      <trkpt lat="43.2295" lon="5.43707">
        <ele>152.4</ele>
        <time>2018-02-25T12:50:57Z</time>
      </trkpt>
      <trkpt lat="43.22946" lon="5.43707">
        <ele>157.2</ele>
        <time>2018-02-25T12:51:02Z</time>
      </trkpt>
      <trkpt lat="43.22938" lon="5.43708">
        <ele>154.6</ele>
        <time>2018-02-25T12:51:07Z</time>
      </trkpt>
      <trkpt lat="43.22933" lon="5.43709">
        <ele>155.8</ele>
        <time>2018-02-25T12:51:12Z</time>
      </trkpt>
      <trkpt lat="43.22927" lon="5.4371">
        <ele>157.8</ele>
        <time>2018-02-25T12:51:17Z</time>
      </trkpt>
      <trkpt lat="43.22921" lon="5.43712">
        <ele>155.6</ele>
        <time>2018-02-25T12:51:23Z</time>
      </trkpt>
      <trkpt lat="43.22914" lon="5.43712">
        <ele>157.6</ele>
        <time>2018-02-25T12:51:28Z</time>
      </trkpt>
      <trkpt lat="43.22909" lon="5.43713">
        <ele>161</ele>
        <time>2018-02-25T12:51:33Z</time>
      </trkpt>
      <trkpt lat="43.22903" lon="5.43713">
        <ele>160.2</ele>
        <time>2018-02-25T12:51:38Z</time>
      </trkpt>
      <trkpt lat="43.22896" lon="5.43714">
        <ele>159.6</ele>
        <time>2018-02-25T12:51:43Z</time>
      </trkpt>
      <trkpt lat="43.22892" lon="5.43715">
        <ele>160.4</ele>
        <time>2018-02-25T12:51:48Z</time>
      </trkpt>
      <trkpt lat="43.22886" lon="5.43716">
        <ele>160</ele>
        <time>2018-02-25T12:51:53Z</time>
      </trkpt>
      <trkpt lat="43.22879" lon="5.43716">
        <ele>159.6</ele>
        <time>2018-02-25T12:51:58Z</time>
      </trkpt>
      <trkpt lat="43.22872" lon="5.43716">
        <ele>161.4</ele>
        <time>2018-02-25T12:52:03Z</time>
      </trkpt>
      <trkpt lat="43.22867" lon="5.43717">
        <ele>162</ele>
        <time>2018-02-25T12:52:08Z</time>
      </trkpt>
      <trkpt lat="43.22861" lon="5.43718">
        <ele>160.4</ele>
        <time>2018-02-25T12:52:13Z</time>
      </trkpt>
      <trkpt lat="43.22854" lon="5.43718">
        <ele>163.4</ele>
        <time>2018-02-25T12:52:18Z</time>
      </trkpt>
      <trkpt lat="43.22848" lon="5.43719">
        <ele>160.8</ele>
        <time>2018-02-25T12:52:23Z</time>
      </trkpt>
      <trkpt lat="43.22842" lon="5.43719">
        <ele>159.6</ele>
        <time>2018-02-25T12:52:28Z</time>
      </trkpt>
      <trkpt lat="43.22835" lon="5.4372">
        <ele>162.2</ele>
        <time>2018-02-25T12:52:33Z</time>
      </trkpt>
      <trkpt lat="43.22828" lon="5.43721">
        <ele>162.6</ele>
        <time>2018-02-25T12:52:38Z</time>
      </trkpt>
      <trkpt lat="43.22822" lon="5.43722">
        <ele>164</ele>
        <time>2018-02-25T12:52:43Z</time>
      </trkpt>
      <trkpt lat="43.22817" lon="5.43723">
        <ele>163.6</ele>
        <time>2018-02-25T12:52:48Z</time>
      </trkpt>
      <trkpt lat="43.22811" lon="5.43723">
        <ele>163.2</ele>
        <time>2018-02-25T12:52:53Z</time>
      </trkpt>
      <trkpt lat="43.22805" lon="5.43724">
        <ele>161.6</ele>
        <time>2018-02-25T12:52:58Z</time>
      </trkpt>
      <trkpt lat="43.228" lon="5.43725">
        <ele>161.6</ele>
        <time>2018-02-25T12:53:03Z</time>
      </trkpt>
      <trkpt lat="43.22795" lon="5.43725">
        <ele>158.4</ele>
        <time>2018-02-25T12:53:08Z</time>
      </trkpt>
      <trkpt lat="43.22795" lon="5.43725">
        <ele>158.8</ele>
        <time>2018-02-25T12:53:13Z</time>
      </trkpt>
      <trkpt lat="43.2279" lon="5.43723">
        <ele>160.8</ele>
        <time>2018-02-25T12:53:18Z</time>
      </trkpt>
      <trkpt lat="43.22785" lon="5.43721">
        <ele>158.6</ele>
        <time>2018-02-25T12:53:23Z</time>
      </trkpt>
      <trkpt lat="43.22778" lon="5.43719">
        <ele>157</ele>
        <time>2018-02-25T12:53:28Z</time>
      </trkpt>
      <trkpt lat="43.22771" lon="5.43718">
        <ele>156.2</ele>
        <time>2018-02-25T12:53:33Z</time>
      </trkpt>
      <trkpt lat="43.22765" lon="5.43719">
        <ele>159.4</ele>
        <time>2018-02-25T12:53:38Z</time>
      </trkpt>
      <trkpt lat="43.22759" lon="5.43721">
        <ele>160</ele>
        <time>2018-02-25T12:53:43Z</time>
      </trkpt>
      <trkpt lat="43.22753" lon="5.43722">
        <ele>161</ele>
        <time>2018-02-25T12:53:48Z</time>
      </trkpt>
      <trkpt lat="43.22746" lon="5.43723">
        <ele>159</ele>
        <time>2018-02-25T12:53:53Z</time>
      </trkpt>
      <trkpt lat="43.22739" lon="5.43724">
        <ele>159.4</ele>
        <time>2018-02-25T12:53:58Z</time>
      </trkpt>
      <trkpt lat="43.22734" lon="5.43726">
        <ele>162.4</ele>
        <time>2018-02-25T12:54:03Z</time>
      </trkpt>
      <trkpt lat="43.22729" lon="5.43728">
        <ele>161.2</ele>
        <time>2018-02-25T12:54:08Z</time>
      </trkpt>
      <trkpt lat="43.22724" lon="5.43731">
        <ele>159.2</ele>
        <time>2018-02-25T12:54:13Z</time>
      </trkpt>
      <trkpt lat="43.22719" lon="5.43734">
        <ele>159.8</ele>
        <time>2018-02-25T12:54:18Z</time>
      </trkpt>
      <trkpt lat="43.22713" lon="5.43737">
        <ele>165</ele>
        <time>2018-02-25T12:54:23Z</time>
      </trkpt>
      <trkpt lat="43.22707" lon="5.4374">
        <ele>162</ele>
        <time>2018-02-25T12:54:28Z</time>
      </trkpt>
      <trkpt lat="43.22702" lon="5.43744">
        <ele>163.4</ele>
        <time>2018-02-25T12:54:33Z</time>
      </trkpt>
      <trkpt lat="43.22696" lon="5.43748">
        <ele>162</ele>
        <time>2018-02-25T12:54:38Z</time>
      </trkpt>
      <trkpt lat="43.22691" lon="5.43752">
        <ele>163.8</ele>
        <time>2018-02-25T12:54:43Z</time>
      </trkpt>
      <trkpt lat="43.22686" lon="5.43755">
        <ele>162.2</ele>
        <time>2018-02-25T12:54:48Z</time>
      </trkpt>
      <trkpt lat="43.2268" lon="5.43758">
        <ele>162.6</ele>
        <time>2018-02-25T12:54:53Z</time>
      </trkpt>
      <trkpt lat="43.22675" lon="5.43762">
        <ele>162.8</ele>
        <time>2018-02-25T12:54:58Z</time>
      </trkpt>
      <trkpt lat="43.2267" lon="5.43766">
        <ele>164</ele>
        <time>2018-02-25T12:55:03Z</time>
      </trkpt>
      <trkpt lat="43.22665" lon="5.43771">
        <ele>163.4</ele>
        <time>2018-02-25T12:55:08Z</time>
      </trkpt>
      <trkpt lat="43.22661" lon="5.43776">
        <ele>166.2</ele>
        <time>2018-02-25T12:55:13Z</time>
      </trkpt>
      <trkpt lat="43.22656" lon="5.4378">
        <ele>165.4</ele>
        <time>2018-02-25T12:55:18Z</time>
      </trkpt>
      <trkpt lat="43.22651" lon="5.43784">
        <ele>165.2</ele>
        <time>2018-02-25T12:55:23Z</time>
      </trkpt>
      <trkpt lat="43.22646" lon="5.43787">
        <ele>165</ele>
        <time>2018-02-25T12:55:28Z</time>
      </trkpt>
      <trkpt lat="43.2264" lon="5.4379">
        <ele>164.2</ele>
        <time>2018-02-25T12:55:33Z</time>
      </trkpt>
      <trkpt lat="43.22634" lon="5.43793">
        <ele>164</ele>
        <time>2018-02-25T12:55:38Z</time>
      </trkpt>
      <trkpt lat="43.22629" lon="5.43796">
        <ele>165</ele>
        <time>2018-02-25T12:55:43Z</time>
      </trkpt>
      <trkpt lat="43.22623" lon="5.43798">
        <ele>164.8</ele>
        <time>2018-02-25T12:55:48Z</time>
      </trkpt>
      <trkpt lat="43.22617" lon="5.438">
        <ele>163.8</ele>
        <time>2018-02-25T12:55:53Z</time>
      </trkpt>
      <trkpt lat="43.22611" lon="5.43802">
        <ele>163.8</ele>
        <time>2018-02-25T12:55:58Z</time>
      </trkpt>
      <trkpt lat="43.22605" lon="5.43804">
        <ele>167</ele>
        <time>2018-02-25T12:56:03Z</time>
      </trkpt>
      <trkpt lat="43.22599" lon="5.43805">
        <ele>167.2</ele>
        <time>2018-02-25T12:56:08Z</time>
      </trkpt>
      <trkpt lat="43.22593" lon="5.43806">
        <ele>166.4</ele>
        <time>2018-02-25T12:56:13Z</time>
      </trkpt>
      <trkpt lat="43.22587" lon="5.43807">
        <ele>167.4</ele>
        <time>2018-02-25T12:56:18Z</time>
      </trkpt>
      <trkpt lat="43.22581" lon="5.43808">
        <ele>168</ele>
        <time>2018-02-25T12:56:23Z</time>
      </trkpt>
      <trkpt lat="43.22575" lon="5.43809">
        <ele>167.2</ele>
        <time>2018-02-25T12:56:28Z</time>
      </trkpt>
      <trkpt lat="43.22568" lon="5.43809">
        <ele>166.4</ele>
        <time>2018-02-25T12:56:33Z</time>
      </trkpt>
      <trkpt lat="43.22562" lon="5.4381">
        <ele>165.8</ele>
        <time>2018-02-25T12:56:38Z</time>
      </trkpt>
      <trkpt lat="43.22556" lon="5.43811">
        <ele>166.2</ele>
        <time>2018-02-25T12:56:43Z</time>
      </trkpt>
      <trkpt lat="43.22548" lon="5.43809">
        <ele>168.6</ele>
        <time>2018-02-25T12:56:48Z</time>
      </trkpt>
      <trkpt lat="43.22541" lon="5.4381">
        <ele>167.4</ele>
        <time>2018-02-25T12:56:53Z</time>
      </trkpt>
      <trkpt lat="43.22534" lon="5.4381">
        <ele>169.6</ele>
        <time>2018-02-25T12:56:58Z</time>
      </trkpt>
      <trkpt lat="43.22528" lon="5.43812">
        <ele>168.8</ele>
        <time>2018-02-25T12:57:03Z</time>
      </trkpt>
      <trkpt lat="43.22522" lon="5.43812">
        <ele>168.4</ele>
        <time>2018-02-25T12:57:08Z</time>
      </trkpt>
      <trkpt lat="43.22515" lon="5.43813">
        <ele>170.2</ele>
        <time>2018-02-25T12:57:13Z</time>
      </trkpt>
      <trkpt lat="43.22508" lon="5.43813">
        <ele>169.6</ele>
        <time>2018-02-25T12:57:18Z</time>
      </trkpt>
      <trkpt lat="43.22502" lon="5.43811">
        <ele>166.4</ele>
        <time>2018-02-25T12:57:23Z</time>
      </trkpt>
      <trkpt lat="43.22495" lon="5.43811">
        <ele>169.4</ele>
        <time>2018-02-25T12:57:28Z</time>
      </trkpt>
      <trkpt lat="43.22489" lon="5.43812">
        <ele>169.8</ele>
        <time>2018-02-25T12:57:33Z</time>
      </trkpt>
      <trkpt lat="43.22483" lon="5.43811">
        <ele>167</ele>
        <time>2018-02-25T12:57:38Z</time>
      </trkpt>
      <trkpt lat="43.22478" lon="5.43811">
        <ele>166.6</ele>
        <time>2018-02-25T12:57:43Z</time>
      </trkpt>
      <trkpt lat="43.22472" lon="5.43812">
        <ele>165.4</ele>
        <time>2018-02-25T12:57:48Z</time>
      </trkpt>
      <trkpt lat="43.22467" lon="5.43813">
        <ele>169</ele>
        <time>2018-02-25T12:57:53Z</time>
      </trkpt>
      <trkpt lat="43.22461" lon="5.43812">
        <ele>169.6</ele>
        <time>2018-02-25T12:57:58Z</time>
      </trkpt>
      <trkpt lat="43.22456" lon="5.43814">
        <ele>167.4</ele>
        <time>2018-02-25T12:58:03Z</time>
      </trkpt>
      <trkpt lat="43.22452" lon="5.43818">
        <ele>169.4</ele>
        <time>2018-02-25T12:58:08Z</time>
      </trkpt>
      <trkpt lat="43.22447" lon="5.43823">
        <ele>167.6</ele>
        <time>2018-02-25T12:58:13Z</time>
      </trkpt>
      <trkpt lat="43.22442" lon="5.43829">
        <ele>169</ele>
        <time>2018-02-25T12:58:18Z</time>
      </trkpt>
      <trkpt lat="43.22435" lon="5.43833">
        <ele>168.8</ele>
        <time>2018-02-25T12:58:23Z</time>
      </trkpt>
      <trkpt lat="43.22429" lon="5.43838">
        <ele>170.4</ele>
        <time>2018-02-25T12:58:28Z</time>
      </trkpt>
      <trkpt lat="43.22424" lon="5.43841">
        <ele>169.6</ele>
        <time>2018-02-25T12:58:33Z</time>
      </trkpt>
      <trkpt lat="43.2242" lon="5.43845">
        <ele>167</ele>
        <time>2018-02-25T12:58:38Z</time>
      </trkpt>
      <trkpt lat="43.22413" lon="5.43848">
        <ele>169.4</ele>
        <time>2018-02-25T12:58:43Z</time>
      </trkpt>
      <trkpt lat="43.22409" lon="5.43851">
        <ele>167.4</ele>
        <time>2018-02-25T12:58:48Z</time>
      </trkpt>
      <trkpt lat="43.22404" lon="5.43854">
        <ele>170.4</ele>
        <time>2018-02-25T12:58:53Z</time>
      </trkpt>
      <trkpt lat="43.22398" lon="5.43857">
        <ele>168.4</ele>
        <time>2018-02-25T12:58:58Z</time>
      </trkpt>
      <trkpt lat="43.22392" lon="5.43861">
        <ele>170.6</ele>
        <time>2018-02-25T12:59:03Z</time>
      </trkpt>
      <trkpt lat="43.22387" lon="5.43865">
        <ele>172.8</ele>
        <time>2018-02-25T12:59:08Z</time>
      </trkpt>
      <trkpt lat="43.2238" lon="5.43868">
        <ele>174.4</ele>
        <time>2018-02-25T12:59:13Z</time>
      </trkpt>
      <trkpt lat="43.22375" lon="5.43871">
        <ele>173.6</ele>
        <time>2018-02-25T12:59:18Z</time>
      </trkpt>
      <trkpt lat="43.2237" lon="5.43876">
        <ele>173.2</ele>
        <time>2018-02-25T12:59:23Z</time>
      </trkpt>
      <trkpt lat="43.22366" lon="5.4388">
        <ele>171</ele>
        <time>2018-02-25T12:59:28Z</time>
      </trkpt>
      <trkpt lat="43.22361" lon="5.43884">
        <ele>172.8</ele>
        <time>2018-02-25T12:59:33Z</time>
      </trkpt>
      <trkpt lat="43.22357" lon="5.43888">
        <ele>171.4</ele>
        <time>2018-02-25T12:59:38Z</time>
      </trkpt>
      <trkpt lat="43.22353" lon="5.43893">
        <ele>172.2</ele>
        <time>2018-02-25T12:59:43Z</time>
      </trkpt>
      <trkpt lat="43.22349" lon="5.43898">
        <ele>174.6</ele>
        <time>2018-02-25T12:59:48Z</time>
      </trkpt>
      <trkpt lat="43.22344" lon="5.43903">
        <ele>172.6</ele>
        <time>2018-02-25T12:59:53Z</time>
      </trkpt>
      <trkpt lat="43.2234" lon="5.43908">
        <ele>174</ele>
        <time>2018-02-25T12:59:58Z</time>
      </trkpt>
      <trkpt lat="43.22334" lon="5.43914">
        <ele>173.8</ele>
        <time>2018-02-25T13:00:03Z</time>
      </trkpt>
      <trkpt lat="43.2233" lon="5.4392">
        <ele>173.8</ele>
        <time>2018-02-25T13:00:08Z</time>
      </trkpt>
      <trkpt lat="43.22326" lon="5.43925">
        <ele>175.2</ele>
        <time>2018-02-25T13:00:13Z</time>
      </trkpt>
      <trkpt lat="43.22322" lon="5.43931">
        <ele>174.6</ele>
        <time>2018-02-25T13:00:18Z</time>
      </trkpt>
      <trkpt lat="43.22316" lon="5.43938">
        <ele>172.4</ele>
        <time>2018-02-25T13:00:23Z</time>
      </trkpt>
      <trkpt lat="43.22311" lon="5.43944">
        <ele>175.2</ele>
        <time>2018-02-25T13:00:28Z</time>
      </trkpt>
      <trkpt lat="43.22307" lon="5.43949">
        <ele>176.4</ele>
        <time>2018-02-25T13:00:33Z</time>
      </trkpt>
      <trkpt lat="43.22303" lon="5.43953">
        <ele>174.4</ele>
        <time>2018-02-25T13:00:38Z</time>
      </trkpt>
      <trkpt lat="43.22297" lon="5.43957">
        <ele>179.2</ele>
        <time>2018-02-25T13:00:43Z</time>
      </trkpt>
      <trkpt lat="43.22293" lon="5.43961">
        <ele>174.6</ele>
        <time>2018-02-25T13:00:48Z</time>
      </trkpt>
      <trkpt lat="43.22288" lon="5.43966">
        <ele>176</ele>
        <time>2018-02-25T13:00:53Z</time>
      </trkpt>
      <trkpt lat="43.22284" lon="5.43971">
        <ele>176.2</ele>
        <time>2018-02-25T13:00:58Z</time>
      </trkpt>
      <trkpt lat="43.22278" lon="5.43974">
        <ele>174.6</ele>
        <time>2018-02-25T13:01:03Z</time>
      </trkpt>
      <trkpt lat="43.22273" lon="5.43978">
        <ele>173</ele>
        <time>2018-02-25T13:01:08Z</time>
      </trkpt>
      <trkpt lat="43.22268" lon="5.43983">
        <ele>176</ele>
        <time>2018-02-25T13:01:13Z</time>
      </trkpt>
      <trkpt lat="43.22262" lon="5.43986">
        <ele>175.6</ele>
        <time>2018-02-25T13:01:18Z</time>
      </trkpt>
      <trkpt lat="43.22257" lon="5.43987">
        <ele>174.8</ele>
        <time>2018-02-25T13:01:23Z</time>
      </trkpt>
      <trkpt lat="43.22252" lon="5.4399">
        <ele>175.2</ele>
        <time>2018-02-25T13:01:28Z</time>
      </trkpt>
      <trkpt lat="43.22245" lon="5.43992">
        <ele>174</ele>
        <time>2018-02-25T13:01:33Z</time>
      </trkpt>
      <trkpt lat="43.22238" lon="5.43994">
        <ele>176.2</ele>
        <time>2018-02-25T13:01:38Z</time>
      </trkpt>
      <trkpt lat="43.22232" lon="5.43996">
        <ele>174.6</ele>
        <time>2018-02-25T13:01:43Z</time>
      </trkpt>
      <trkpt lat="43.22227" lon="5.43999">
        <ele>176.4</ele>
        <time>2018-02-25T13:01:48Z</time>
      </trkpt>
      <trkpt lat="43.22222" lon="5.44">
        <ele>179.6</ele>
        <time>2018-02-25T13:01:53Z</time>
      </trkpt>
      <trkpt lat="43.22217" lon="5.44003">
        <ele>179.2</ele>
        <time>2018-02-25T13:01:58Z</time>
      </trkpt>
      <trkpt lat="43.22209" lon="5.44005">
        <ele>180.2</ele>
        <time>2018-02-25T13:02:03Z</time>
      </trkpt>
      <trkpt lat="43.22202" lon="5.44008">
        <ele>180.6</ele>
        <time>2018-02-25T13:02:08Z</time>
      </trkpt>
      <trkpt lat="43.22195" lon="5.4401">
        <ele>181.8</ele>
        <time>2018-02-25T13:02:13Z</time>
      </trkpt>
      <trkpt lat="43.22188" lon="5.44012">
        <ele>178.8</ele>
        <time>2018-02-25T13:02:18Z</time>
      </trkpt>
      <trkpt lat="43.22182" lon="5.44014">
        <ele>178.4</ele>
        <time>2018-02-25T13:02:23Z</time>
      </trkpt>
      <trkpt lat="43.22177" lon="5.44016">
        <ele>177</ele>
        <time>2018-02-25T13:02:28Z</time>
      </trkpt>
      <trkpt lat="43.22171" lon="5.44019">
        <ele>178.2</ele>
        <time>2018-02-25T13:02:33Z</time>
      </trkpt>
      <trkpt lat="43.22167" lon="5.44023">
        <ele>179.8</ele>
        <time>2018-02-25T13:02:38Z</time>
      </trkpt>
      <trkpt lat="43.22163" lon="5.44025">
        <ele>179</ele>
        <time>2018-02-25T13:02:43Z</time>
      </trkpt>
      <trkpt lat="43.22157" lon="5.44029">
        <ele>180</ele>
        <time>2018-02-25T13:02:48Z</time>
      </trkpt>
      <trkpt lat="43.22151" lon="5.44034">
        <ele>179</ele>
        <time>2018-02-25T13:02:53Z</time>
      </trkpt>
      <trkpt lat="43.22146" lon="5.44038">
        <ele>179.2</ele>
        <time>2018-02-25T13:02:58Z</time>
      </trkpt>
      <trkpt lat="43.22142" lon="5.44043">
        <ele>181.8</ele>
        <time>2018-02-25T13:03:03Z</time>
      </trkpt>
      <trkpt lat="43.22136" lon="5.44045">
        <ele>182.4</ele>
        <time>2018-02-25T13:03:08Z</time>
      </trkpt>
      <trkpt lat="43.22132" lon="5.44051">
        <ele>182.6</ele>
        <time>2018-02-25T13:03:13Z</time>
      </trkpt>
      <trkpt lat="43.22131" lon="5.44055">
        <ele>184.2</ele>
        <time>2018-02-25T13:03:18Z</time>
      </trkpt>
      <trkpt lat="43.22126" lon="5.4406">
        <ele>180.6</ele>
        <time>2018-02-25T13:03:23Z</time>
      </trkpt>
      <trkpt lat="43.22121" lon="5.44062">
        <ele>184.8</ele>
        <time>2018-02-25T13:03:28Z</time>
      </trkpt>
      <trkpt lat="43.22116" lon="5.44068">
        <ele>182.2</ele>
        <time>2018-02-25T13:03:33Z</time>
      </trkpt>
      <trkpt lat="43.22111" lon="5.44072">
        <ele>183.6</ele>
        <time>2018-02-25T13:03:38Z</time>
      </trkpt>
      <trkpt lat="43.22108" lon="5.44078">
        <ele>184</ele>
        <time>2018-02-25T13:03:43Z</time>
      </trkpt>
      <trkpt lat="43.22102" lon="5.44082">
        <ele>183.6</ele>
        <time>2018-02-25T13:03:48Z</time>
      </trkpt>
      <trkpt lat="43.22097" lon="5.44085">
        <ele>181.6</ele>
        <time>2018-02-25T13:03:53Z</time>
      </trkpt>
      <trkpt lat="43.22092" lon="5.4409">
        <ele>183.8</ele>
        <time>2018-02-25T13:03:58Z</time>
      </trkpt>
      <trkpt lat="43.22088" lon="5.44094">
        <ele>182.8</ele>
        <time>2018-02-25T13:04:03Z</time>
      </trkpt>
      <trkpt lat="43.22084" lon="5.441">
        <ele>183.8</ele>
        <time>2018-02-25T13:04:08Z</time>
      </trkpt>
      <trkpt lat="43.2208" lon="5.44106">
        <ele>180.8</ele>
        <time>2018-02-25T13:04:13Z</time>
      </trkpt>
      <trkpt lat="43.22076" lon="5.44112">
        <ele>182.8</ele>
        <time>2018-02-25T13:04:18Z</time>
      </trkpt>
      <trkpt lat="43.22071" lon="5.44117">
        <ele>181</ele>
        <time>2018-02-25T13:04:23Z</time>
      </trkpt>
      <trkpt lat="43.22068" lon="5.44123">
        <ele>183.4</ele>
        <time>2018-02-25T13:04:28Z</time>
      </trkpt>
      <trkpt lat="43.22065" lon="5.44129">
        <ele>181.4</ele>
        <time>2018-02-25T13:04:33Z</time>
      </trkpt>
      <trkpt lat="43.2206" lon="5.44134">
        <ele>179.6</ele>
        <time>2018-02-25T13:04:38Z</time>
      </trkpt>
      <trkpt lat="43.22058" lon="5.44139">
        <ele>182.4</ele>
        <time>2018-02-25T13:04:43Z</time>
      </trkpt>
      <trkpt lat="43.22058" lon="5.44147">
        <ele>182.2</ele>
        <time>2018-02-25T13:04:48Z</time>
      </trkpt>
      <trkpt lat="43.22058" lon="5.44154">
        <ele>184</ele>
        <time>2018-02-25T13:04:53Z</time>
      </trkpt>
      <trkpt lat="43.22059" lon="5.44161">
        <ele>184</ele>
        <time>2018-02-25T13:04:58Z</time>
      </trkpt>
      <trkpt lat="43.22062" lon="5.44166">
        <ele>182.8</ele>
        <time>2018-02-25T13:05:03Z</time>
      </trkpt>
      <trkpt lat="43.22062" lon="5.44173">
        <ele>184.2</ele>
        <time>2018-02-25T13:05:08Z</time>
      </trkpt>
      <trkpt lat="43.22061" lon="5.44179">
        <ele>181.4</ele>
        <time>2018-02-25T13:05:13Z</time>
      </trkpt>
      <trkpt lat="43.2206" lon="5.44185">
        <ele>185</ele>
        <time>2018-02-25T13:05:18Z</time>
      </trkpt>
      <trkpt lat="43.22059" lon="5.44193">
        <ele>184.2</ele>
        <time>2018-02-25T13:05:23Z</time>
      </trkpt>
      <trkpt lat="43.22058" lon="5.442">
        <ele>184.6</ele>
        <time>2018-02-25T13:05:28Z</time>
      </trkpt>
      <trkpt lat="43.2206" lon="5.44206">
        <ele>186.8</ele>
        <time>2018-02-25T13:05:38Z</time>
      </trkpt>
      <trkpt lat="43.22059" lon="5.44205">
        <ele>187.2</ele>
        <time>2018-02-25T13:06:28Z</time>
      </trkpt>
      <trkpt lat="43.22051" lon="5.44209">
        <ele>183</ele>
        <time>2018-02-25T13:06:33Z</time>
      </trkpt>
      <trkpt lat="43.22043" lon="5.4422">
        <ele>189.8</ele>
        <time>2018-02-25T13:06:38Z</time>
      </trkpt>
      <trkpt lat="43.22039" lon="5.44232">
        <ele>187.2</ele>
        <time>2018-02-25T13:06:43Z</time>
      </trkpt>
      <trkpt lat="43.22036" lon="5.44245">
        <ele>189</ele>
        <time>2018-02-25T13:06:48Z</time>
      </trkpt>
      <trkpt lat="43.22033" lon="5.44254">
        <ele>190.4</ele>
        <time>2018-02-25T13:06:53Z</time>
      </trkpt>
      <trkpt lat="43.22029" lon="5.44261">
        <ele>189.2</ele>
        <time>2018-02-25T13:06:58Z</time>
      </trkpt>
      <trkpt lat="43.22025" lon="5.44269">
        <ele>189.6</ele>
        <time>2018-02-25T13:07:03Z</time>
      </trkpt>
      <trkpt lat="43.22022" lon="5.44276">
        <ele>189</ele>
        <time>2018-02-25T13:07:08Z</time>
      </trkpt>
      <trkpt lat="43.22017" lon="5.44282">
        <ele>188.2</ele>
        <time>2018-02-25T13:07:13Z</time>
      </trkpt>
      <trkpt lat="43.22014" lon="5.44289">
        <ele>188.8</ele>
        <time>2018-02-25T13:07:18Z</time>
      </trkpt>
      <trkpt lat="43.2201" lon="5.44295">
        <ele>187.6</ele>
        <time>2018-02-25T13:07:23Z</time>
      </trkpt>
      <trkpt lat="43.22005" lon="5.44302">
        <ele>188</ele>
        <time>2018-02-25T13:07:28Z</time>
      </trkpt>
      <trkpt lat="43.22001" lon="5.44311">
        <ele>187.4</ele>
        <time>2018-02-25T13:07:33Z</time>
      </trkpt>
      <trkpt lat="43.21997" lon="5.44318">
        <ele>187.4</ele>
        <time>2018-02-25T13:07:38Z</time>
      </trkpt>
      <trkpt lat="43.21993" lon="5.44325">
        <ele>187.6</ele>
        <time>2018-02-25T13:07:43Z</time>
      </trkpt>
      <trkpt lat="43.2199" lon="5.44332">
        <ele>191.4</ele>
        <time>2018-02-25T13:07:48Z</time>
      </trkpt>
      <trkpt lat="43.21987" lon="5.44339">
        <ele>192</ele>
        <time>2018-02-25T13:07:53Z</time>
      </trkpt>
      <trkpt lat="43.21983" lon="5.44345">
        <ele>189</ele>
        <time>2018-02-25T13:07:58Z</time>
      </trkpt>
      <trkpt lat="43.2198" lon="5.44353">
        <ele>189.4</ele>
        <time>2018-02-25T13:08:03Z</time>
      </trkpt>
      <trkpt lat="43.21977" lon="5.4436">
        <ele>188.6</ele>
        <time>2018-02-25T13:08:08Z</time>
      </trkpt>
      <trkpt lat="43.21973" lon="5.44366">
        <ele>192.2</ele>
        <time>2018-02-25T13:08:13Z</time>
      </trkpt>
      <trkpt lat="43.2197" lon="5.44372">
        <ele>191.8</ele>
        <time>2018-02-25T13:08:18Z</time>
      </trkpt>
      <trkpt lat="43.21967" lon="5.44379">
        <ele>190.4</ele>
        <time>2018-02-25T13:08:23Z</time>
      </trkpt>
      <trkpt lat="43.21963" lon="5.44385">
        <ele>192</ele>
        <time>2018-02-25T13:08:28Z</time>
      </trkpt>
      <trkpt lat="43.21958" lon="5.44391">
        <ele>194.2</ele>
        <time>2018-02-25T13:08:33Z</time>
      </trkpt>
      <trkpt lat="43.21954" lon="5.44397">
        <ele>194.2</ele>
        <time>2018-02-25T13:08:38Z</time>
      </trkpt>
      <trkpt lat="43.21951" lon="5.44403">
        <ele>196.6</ele>
        <time>2018-02-25T13:08:43Z</time>
      </trkpt>
      <trkpt lat="43.21947" lon="5.44409">
        <ele>195.2</ele>
        <time>2018-02-25T13:08:48Z</time>
      </trkpt>
      <trkpt lat="43.21942" lon="5.44415">
        <ele>193.8</ele>
        <time>2018-02-25T13:08:53Z</time>
      </trkpt>
      <trkpt lat="43.21939" lon="5.44422">
        <ele>194.2</ele>
        <time>2018-02-25T13:08:58Z</time>
      </trkpt>
      <trkpt lat="43.21937" lon="5.44427">
        <ele>195.8</ele>
        <time>2018-02-25T13:09:03Z</time>
      </trkpt>
      <trkpt lat="43.21934" lon="5.44433">
        <ele>196.2</ele>
        <time>2018-02-25T13:09:08Z</time>
      </trkpt>
      <trkpt lat="43.21931" lon="5.44439">
        <ele>200.6</ele>
        <time>2018-02-25T13:09:13Z</time>
      </trkpt>
      <trkpt lat="43.21929" lon="5.44447">
        <ele>200.2</ele>
        <time>2018-02-25T13:09:18Z</time>
      </trkpt>
      <trkpt lat="43.21927" lon="5.44454">
        <ele>198.4</ele>
        <time>2018-02-25T13:09:23Z</time>
      </trkpt>
      <trkpt lat="43.21925" lon="5.44461">
        <ele>197.8</ele>
        <time>2018-02-25T13:09:28Z</time>
      </trkpt>
      <trkpt lat="43.21923" lon="5.44466">
        <ele>197.6</ele>
        <time>2018-02-25T13:09:33Z</time>
      </trkpt>
      <trkpt lat="43.21923" lon="5.44475">
        <ele>200.6</ele>
        <time>2018-02-25T13:09:38Z</time>
      </trkpt>
      <trkpt lat="43.21922" lon="5.44478">
        <ele>199</ele>
        <time>2018-02-25T13:09:43Z</time>
      </trkpt>
      <trkpt lat="43.21922" lon="5.44478">
        <ele>198.2</ele>
        <time>2018-02-25T13:09:58Z</time>
      </trkpt>
      <trkpt lat="43.21922" lon="5.44479">
        <ele>197.8</ele>
        <time>2018-02-25T13:10:03Z</time>
      </trkpt>
      <trkpt lat="43.21922" lon="5.4448">
        <ele>197.4</ele>
        <time>2018-02-25T13:10:18Z</time>
      </trkpt>
      <trkpt lat="43.21922" lon="5.44481">
        <ele>197</ele>
        <time>2018-02-25T13:10:28Z</time>
      </trkpt>
      <trkpt lat="43.2192" lon="5.44481">
        <ele>197.2</ele>
        <time>2018-02-25T13:10:58Z</time>
      </trkpt>
      <trkpt lat="43.2192" lon="5.4448">
        <ele>197.6</ele>
        <time>2018-02-25T13:11:03Z</time>
      </trkpt>
      <trkpt lat="43.2192" lon="5.44484">
        <ele>198</ele>
        <time>2018-02-25T13:11:38Z</time>
      </trkpt>
      <trkpt lat="43.2192" lon="5.4449">
        <ele>199.4</ele>
        <time>2018-02-25T13:11:43Z</time>
      </trkpt>
      <trkpt lat="43.2192" lon="5.44496">
        <ele>199.2</ele>
        <time>2018-02-25T13:11:48Z</time>
      </trkpt>
      <trkpt lat="43.21921" lon="5.44503">
        <ele>201</ele>
        <time>2018-02-25T13:11:53Z</time>
      </trkpt>
      <trkpt lat="43.21922" lon="5.44511">
        <ele>202.4</ele>
        <time>2018-02-25T13:11:58Z</time>
      </trkpt>
      <trkpt lat="43.21924" lon="5.44518">
        <ele>201.6</ele>
        <time>2018-02-25T13:12:03Z</time>
      </trkpt>
      <trkpt lat="43.21926" lon="5.44524">
        <ele>200.8</ele>
        <time>2018-02-25T13:12:08Z</time>
      </trkpt>
      <trkpt lat="43.21926" lon="5.44532">
        <ele>205</ele>
        <time>2018-02-25T13:12:13Z</time>
      </trkpt>
      <trkpt lat="43.21927" lon="5.4454">
        <ele>204.2</ele>
        <time>2018-02-25T13:12:18Z</time>
      </trkpt>
      <trkpt lat="43.21928" lon="5.44546">
        <ele>208.2</ele>
        <time>2018-02-25T13:12:23Z</time>
      </trkpt>
      <trkpt lat="43.21929" lon="5.44555">
        <ele>207.4</ele>
        <time>2018-02-25T13:12:28Z</time>
      </trkpt>
      <trkpt lat="43.21926" lon="5.44562">
        <ele>207.6</ele>
        <time>2018-02-25T13:12:33Z</time>
      </trkpt>
      <trkpt lat="43.21922" lon="5.44569">
        <ele>207.6</ele>
        <time>2018-02-25T13:12:38Z</time>
      </trkpt>
      <trkpt lat="43.21919" lon="5.44575">
        <ele>209.4</ele>
        <time>2018-02-25T13:12:43Z</time>
      </trkpt>
      <trkpt lat="43.21917" lon="5.44582">
        <ele>211</ele>
        <time>2018-02-25T13:12:48Z</time>
      </trkpt>
      <trkpt lat="43.21914" lon="5.44588">
        <ele>206.8</ele>
        <time>2018-02-25T13:12:53Z</time>
      </trkpt>
      <trkpt lat="43.21911" lon="5.44595">
        <ele>209.2</ele>
        <time>2018-02-25T13:12:58Z</time>
      </trkpt>
      <trkpt lat="43.21907" lon="5.44603">
        <ele>207</ele>
        <time>2018-02-25T13:13:03Z</time>
      </trkpt>
      <trkpt lat="43.21902" lon="5.44609">
        <ele>208.6</ele>
        <time>2018-02-25T13:13:08Z</time>
      </trkpt>
      <trkpt lat="43.21897" lon="5.44612">
        <ele>207.4</ele>
        <time>2018-02-25T13:13:13Z</time>
      </trkpt>
      <trkpt lat="43.21893" lon="5.44619">
        <ele>208.8</ele>
        <time>2018-02-25T13:13:18Z</time>
      </trkpt>
      <trkpt lat="43.21891" lon="5.44626">
        <ele>207.8</ele>
        <time>2018-02-25T13:13:23Z</time>
      </trkpt>
      <trkpt lat="43.21888" lon="5.44633">
        <ele>206.6</ele>
        <time>2018-02-25T13:13:28Z</time>
      </trkpt>
      <trkpt lat="43.21888" lon="5.4464">
        <ele>210</ele>
        <time>2018-02-25T13:13:33Z</time>
      </trkpt>
      <trkpt lat="43.21887" lon="5.44648">
        <ele>213</ele>
        <time>2018-02-25T13:13:38Z</time>
      </trkpt>
      <trkpt lat="43.21886" lon="5.44655">
        <ele>211</ele>
        <time>2018-02-25T13:13:43Z</time>
      </trkpt>
      <trkpt lat="43.21884" lon="5.44661">
        <ele>212.2</ele>
        <time>2018-02-25T13:13:48Z</time>
      </trkpt>
      <trkpt lat="43.21882" lon="5.44668">
        <ele>211.6</ele>
        <time>2018-02-25T13:13:53Z</time>
      </trkpt>
      <trkpt lat="43.21881" lon="5.44675">
        <ele>210.8</ele>
        <time>2018-02-25T13:13:58Z</time>
      </trkpt>
      <trkpt lat="43.21881" lon="5.44682">
        <ele>210.4</ele>
        <time>2018-02-25T13:14:03Z</time>
      </trkpt>
      <trkpt lat="43.2188" lon="5.44689">
        <ele>214.6</ele>
        <time>2018-02-25T13:14:08Z</time>
      </trkpt>
      <trkpt lat="43.2188" lon="5.44697">
        <ele>213.4</ele>
        <time>2018-02-25T13:14:13Z</time>
      </trkpt>
      <trkpt lat="43.2188" lon="5.44704">
        <ele>213.2</ele>
        <time>2018-02-25T13:14:18Z</time>
      </trkpt>
      <trkpt lat="43.21882" lon="5.44711">
        <ele>216</ele>
        <time>2018-02-25T13:14:23Z</time>
      </trkpt>
      <trkpt lat="43.21884" lon="5.44717">
        <ele>217.4</ele>
        <time>2018-02-25T13:14:28Z</time>
      </trkpt>
      <trkpt lat="43.21887" lon="5.44722">
        <ele>214.4</ele>
        <time>2018-02-25T13:14:33Z</time>
      </trkpt>
      <trkpt lat="43.21892" lon="5.44724">
        <ele>214.4</ele>
        <time>2018-02-25T13:14:38Z</time>
      </trkpt>
      <trkpt lat="43.21897" lon="5.44726">
        <ele>216.4</ele>
        <time>2018-02-25T13:14:43Z</time>
      </trkpt>
      <trkpt lat="43.21902" lon="5.44727">
        <ele>219</ele>
        <time>2018-02-25T13:14:48Z</time>
      </trkpt>
      <trkpt lat="43.21907" lon="5.44728">
        <ele>219</ele>
        <time>2018-02-25T13:14:53Z</time>
      </trkpt>
      <trkpt lat="43.21912" lon="5.44729">
        <ele>217.6</ele>
        <time>2018-02-25T13:14:58Z</time>
      </trkpt>
      <trkpt lat="43.21917" lon="5.44731">
        <ele>215.4</ele>
        <time>2018-02-25T13:15:03Z</time>
      </trkpt>
      <trkpt lat="43.21921" lon="5.44733">
        <ele>218.6</ele>
        <time>2018-02-25T13:15:08Z</time>
      </trkpt>
      <trkpt lat="43.21926" lon="5.44735">
        <ele>218.4</ele>
        <time>2018-02-25T13:15:13Z</time>
      </trkpt>
      <trkpt lat="43.2193" lon="5.44736">
        <ele>221.2</ele>
        <time>2018-02-25T13:15:18Z</time>
      </trkpt>
      <trkpt lat="43.21935" lon="5.44738">
        <ele>217.6</ele>
        <time>2018-02-25T13:15:23Z</time>
      </trkpt>
      <trkpt lat="43.2194" lon="5.4474">
        <ele>221.2</ele>
        <time>2018-02-25T13:15:28Z</time>
      </trkpt>
      <trkpt lat="43.21945" lon="5.44742">
        <ele>221.8</ele>
        <time>2018-02-25T13:15:33Z</time>
      </trkpt>
      <trkpt lat="43.21949" lon="5.44744">
        <ele>219.2</ele>
        <time>2018-02-25T13:15:38Z</time>
      </trkpt>
      <trkpt lat="43.21953" lon="5.44746">
        <ele>221</ele>
        <time>2018-02-25T13:15:43Z</time>
      </trkpt>
      <trkpt lat="43.21957" lon="5.44747">
        <ele>222.8</ele>
        <time>2018-02-25T13:15:48Z</time>
      </trkpt>
      <trkpt lat="43.2196" lon="5.4475">
        <ele>221.8</ele>
        <time>2018-02-25T13:15:53Z</time>
      </trkpt>
      <trkpt lat="43.21964" lon="5.44752">
        <ele>225.4</ele>
        <time>2018-02-25T13:15:58Z</time>
      </trkpt>
      <trkpt lat="43.21967" lon="5.44756">
        <ele>224.6</ele>
        <time>2018-02-25T13:16:03Z</time>
      </trkpt>
      <trkpt lat="43.21971" lon="5.44759">
        <ele>222.4</ele>
        <time>2018-02-25T13:16:08Z</time>
      </trkpt>
      <trkpt lat="43.21975" lon="5.44762">
        <ele>224</ele>
        <time>2018-02-25T13:16:13Z</time>
      </trkpt>
      <trkpt lat="43.21977" lon="5.44766">
        <ele>225.4</ele>
        <time>2018-02-25T13:16:18Z</time>
      </trkpt>
      <trkpt lat="43.21981" lon="5.4477">
        <ele>226.8</ele>
        <time>2018-02-25T13:16:23Z</time>
      </trkpt>
      <trkpt lat="43.21984" lon="5.44772">
        <ele>227</ele>
        <time>2018-02-25T13:16:28Z</time>
      </trkpt>
      <trkpt lat="43.21987" lon="5.44775">
        <ele>228.8</ele>
        <time>2018-02-25T13:16:33Z</time>
      </trkpt>
      <trkpt lat="43.21991" lon="5.44779">
        <ele>228.8</ele>
        <time>2018-02-25T13:16:38Z</time>
      </trkpt>
      <trkpt lat="43.21995" lon="5.44781">
        <ele>227.6</ele>
        <time>2018-02-25T13:16:43Z</time>
      </trkpt>
      <trkpt lat="43.21998" lon="5.44784">
        <ele>229</ele>
        <time>2018-02-25T13:16:48Z</time>
      </trkpt>
      <trkpt lat="43.22002" lon="5.44786">
        <ele>231</ele>
        <time>2018-02-25T13:16:53Z</time>
      </trkpt>
      <trkpt lat="43.22007" lon="5.44787">
        <ele>229.8</ele>
        <time>2018-02-25T13:16:58Z</time>
      </trkpt>
      <trkpt lat="43.22011" lon="5.4479">
        <ele>230.4</ele>
        <time>2018-02-25T13:17:03Z</time>
      </trkpt>
      <trkpt lat="43.22015" lon="5.44794">
        <ele>229.6</ele>
        <time>2018-02-25T13:17:08Z</time>
      </trkpt>
      <trkpt lat="43.2202" lon="5.44797">
        <ele>228.4</ele>
        <time>2018-02-25T13:17:13Z</time>
      </trkpt>
      <trkpt lat="43.22024" lon="5.44801">
        <ele>229</ele>
        <time>2018-02-25T13:17:18Z</time>
      </trkpt>
      <trkpt lat="43.22029" lon="5.44805">
        <ele>228.4</ele>
        <time>2018-02-25T13:17:23Z</time>
      </trkpt>
      <trkpt lat="43.22033" lon="5.44808">
        <ele>229.2</ele>
        <time>2018-02-25T13:17:28Z</time>
      </trkpt>
      <trkpt lat="43.22039" lon="5.44809">
        <ele>231.8</ele>
        <time>2018-02-25T13:17:33Z</time>
      </trkpt>
      <trkpt lat="43.22043" lon="5.44806">
        <ele>232</ele>
        <time>2018-02-25T13:17:38Z</time>
      </trkpt>
      <trkpt lat="43.22048" lon="5.44804">
        <ele>229.2</ele>
        <time>2018-02-25T13:17:43Z</time>
      </trkpt>
      <trkpt lat="43.22052" lon="5.44801">
        <ele>230.8</ele>
        <time>2018-02-25T13:17:48Z</time>
      </trkpt>
      <trkpt lat="43.22056" lon="5.44797">
        <ele>234.6</ele>
        <time>2018-02-25T13:17:53Z</time>
      </trkpt>
      <trkpt lat="43.22061" lon="5.44794">
        <ele>232.8</ele>
        <time>2018-02-25T13:17:58Z</time>
      </trkpt>
      <trkpt lat="43.22065" lon="5.44791">
        <ele>231.8</ele>
        <time>2018-02-25T13:18:03Z</time>
      </trkpt>
      <trkpt lat="43.2207" lon="5.44787">
        <ele>232.8</ele>
        <time>2018-02-25T13:18:08Z</time>
      </trkpt>
      <trkpt lat="43.22076" lon="5.44784">
        <ele>236.6</ele>
        <time>2018-02-25T13:18:13Z</time>
      </trkpt>
      <trkpt lat="43.22081" lon="5.44782">
        <ele>234.4</ele>
        <time>2018-02-25T13:18:18Z</time>
      </trkpt>
      <trkpt lat="43.22086" lon="5.44781">
        <ele>234.6</ele>
        <time>2018-02-25T13:18:23Z</time>
      </trkpt>
      <trkpt lat="43.22093" lon="5.4478">
        <ele>237.2</ele>
        <time>2018-02-25T13:18:29Z</time>
      </trkpt>
      <trkpt lat="43.22099" lon="5.44778">
        <ele>236.4</ele>
        <time>2018-02-25T13:18:35Z</time>
      </trkpt>
      <trkpt lat="43.22104" lon="5.44778">
        <ele>235</ele>
        <time>2018-02-25T13:18:40Z</time>
      </trkpt>
      <trkpt lat="43.22109" lon="5.44777">
        <ele>235.6</ele>
        <time>2018-02-25T13:18:45Z</time>
      </trkpt>
      <trkpt lat="43.22114" lon="5.44777">
        <ele>236.2</ele>
        <time>2018-02-25T13:18:50Z</time>
      </trkpt>
      <trkpt lat="43.2212" lon="5.44775">
        <ele>236.4</ele>
        <time>2018-02-25T13:18:55Z</time>
      </trkpt>
      <trkpt lat="43.22126" lon="5.44773">
        <ele>237</ele>
        <time>2018-02-25T13:19:00Z</time>
      </trkpt>
      <trkpt lat="43.22129" lon="5.44767">
        <ele>235.4</ele>
        <time>2018-02-25T13:19:05Z</time>
      </trkpt>
      <trkpt lat="43.22133" lon="5.44761">
        <ele>238.8</ele>
        <time>2018-02-25T13:19:10Z</time>
      </trkpt>
      <trkpt lat="43.22137" lon="5.44755">
        <ele>236.2</ele>
        <time>2018-02-25T13:19:15Z</time>
      </trkpt>
      <trkpt lat="43.22142" lon="5.4475">
        <ele>237.4</ele>
        <time>2018-02-25T13:19:20Z</time>
      </trkpt>
      <trkpt lat="43.22147" lon="5.44745">
        <ele>238.2</ele>
        <time>2018-02-25T13:19:25Z</time>
      </trkpt>
      <trkpt lat="43.22152" lon="5.4474">
        <ele>238.4</ele>
        <time>2018-02-25T13:19:30Z</time>
      </trkpt>
      <trkpt lat="43.22157" lon="5.44735">
        <ele>238.6</ele>
        <time>2018-02-25T13:19:35Z</time>
      </trkpt>
      <trkpt lat="43.22162" lon="5.44732">
        <ele>238.2</ele>
        <time>2018-02-25T13:19:40Z</time>
      </trkpt>
      <trkpt lat="43.22168" lon="5.44732">
        <ele>238.8</ele>
        <time>2018-02-25T13:19:45Z</time>
      </trkpt>
      <trkpt lat="43.22173" lon="5.44734">
        <ele>237.8</ele>
        <time>2018-02-25T13:19:50Z</time>
      </trkpt>
      <trkpt lat="43.22178" lon="5.44738">
        <ele>239</ele>
        <time>2018-02-25T13:19:55Z</time>
      </trkpt>
      <trkpt lat="43.22183" lon="5.44742">
        <ele>240.4</ele>
        <time>2018-02-25T13:20:00Z</time>
      </trkpt>
      <trkpt lat="43.22186" lon="5.44746">
        <ele>242.4</ele>
        <time>2018-02-25T13:20:05Z</time>
      </trkpt>
      <trkpt lat="43.22188" lon="5.44752">
        <ele>241</ele>
        <time>2018-02-25T13:20:10Z</time>
      </trkpt>
      <trkpt lat="43.22189" lon="5.44759">
        <ele>243.8</ele>
        <time>2018-02-25T13:20:15Z</time>
      </trkpt>
      <trkpt lat="43.2219" lon="5.44766">
        <ele>241</ele>
        <time>2018-02-25T13:20:20Z</time>
      </trkpt>
      <trkpt lat="43.22191" lon="5.44772">
        <ele>243.4</ele>
        <time>2018-02-25T13:20:25Z</time>
      </trkpt>
      <trkpt lat="43.22192" lon="5.44778">
        <ele>241.8</ele>
        <time>2018-02-25T13:20:30Z</time>
      </trkpt>
      <trkpt lat="43.22193" lon="5.44783">
        <ele>243.8</ele>
        <time>2018-02-25T13:20:35Z</time>
      </trkpt>
      <trkpt lat="43.22192" lon="5.44787">
        <ele>246.8</ele>
        <time>2018-02-25T13:20:40Z</time>
      </trkpt>
      <trkpt lat="43.22191" lon="5.44791">
        <ele>244.8</ele>
        <time>2018-02-25T13:20:45Z</time>
      </trkpt>
      <trkpt lat="43.22191" lon="5.44795">
        <ele>245.4</ele>
        <time>2018-02-25T13:20:50Z</time>
      </trkpt>
      <trkpt lat="43.22191" lon="5.448">
        <ele>249.4</ele>
        <time>2018-02-25T13:20:55Z</time>
      </trkpt>
      <trkpt lat="43.2219" lon="5.44804">
        <ele>250</ele>
        <time>2018-02-25T13:21:00Z</time>
      </trkpt>
      <trkpt lat="43.22191" lon="5.44807">
        <ele>248.4</ele>
        <time>2018-02-25T13:21:05Z</time>
      </trkpt>
      <trkpt lat="43.22191" lon="5.44812">
        <ele>249.4</ele>
        <time>2018-02-25T13:21:10Z</time>
      </trkpt>
      <trkpt lat="43.2219" lon="5.44819">
        <ele>250</ele>
        <time>2018-02-25T13:21:20Z</time>
      </trkpt>
      <trkpt lat="43.22187" lon="5.44823">
        <ele>249.8</ele>
        <time>2018-02-25T13:21:25Z</time>
      </trkpt>
      <trkpt lat="43.22184" lon="5.44826">
        <ele>251.6</ele>
        <time>2018-02-25T13:21:30Z</time>
      </trkpt>
      <trkpt lat="43.22183" lon="5.4483">
        <ele>252.4</ele>
        <time>2018-02-25T13:21:35Z</time>
      </trkpt>
      <trkpt lat="43.22181" lon="5.44835">
        <ele>249.8</ele>
        <time>2018-02-25T13:21:40Z</time>
      </trkpt>
      <trkpt lat="43.2218" lon="5.44841">
        <ele>249.8</ele>
        <time>2018-02-25T13:21:45Z</time>
      </trkpt>
      <trkpt lat="43.22179" lon="5.44846">
        <ele>253.4</ele>
        <time>2018-02-25T13:21:50Z</time>
      </trkpt>
      <trkpt lat="43.22179" lon="5.44851">
        <ele>253.8</ele>
        <time>2018-02-25T13:21:55Z</time>
      </trkpt>
      <trkpt lat="43.22178" lon="5.44855">
        <ele>254</ele>
        <time>2018-02-25T13:22:00Z</time>
      </trkpt>
      <trkpt lat="43.22177" lon="5.4486">
        <ele>253</ele>
        <time>2018-02-25T13:22:05Z</time>
      </trkpt>
      <trkpt lat="43.22176" lon="5.44864">
        <ele>255.2</ele>
        <time>2018-02-25T13:22:10Z</time>
      </trkpt>
      <trkpt lat="43.22175" lon="5.44868">
        <ele>253.8</ele>
        <time>2018-02-25T13:22:15Z</time>
      </trkpt>
      <trkpt lat="43.22174" lon="5.44872">
        <ele>249.6</ele>
        <time>2018-02-25T13:22:20Z</time>
      </trkpt>
      <trkpt lat="43.22172" lon="5.44876">
        <ele>255.4</ele>
        <time>2018-02-25T13:22:25Z</time>
      </trkpt>
      <trkpt lat="43.22169" lon="5.44881">
        <ele>256.8</ele>
        <time>2018-02-25T13:22:30Z</time>
      </trkpt>
      <trkpt lat="43.22168" lon="5.44881">
        <ele>256.8</ele>
        <time>2018-02-25T13:22:35Z</time>
      </trkpt>
      <trkpt lat="43.22168" lon="5.44881">
        <ele>257.4</ele>
        <time>2018-02-25T13:22:55Z</time>
      </trkpt>
      <trkpt lat="43.22168" lon="5.44878">
        <ele>257</ele>
        <time>2018-02-25T13:23:25Z</time>
      </trkpt>
      <trkpt lat="43.22167" lon="5.44881">
        <ele>259</ele>
        <time>2018-02-25T13:23:40Z</time>
      </trkpt>
      <trkpt lat="43.22163" lon="5.44884">
        <ele>256</ele>
        <time>2018-02-25T13:23:45Z</time>
      </trkpt>
      <trkpt lat="43.22159" lon="5.44885">
        <ele>260.8</ele>
        <time>2018-02-25T13:23:50Z</time>
      </trkpt>
      <trkpt lat="43.22156" lon="5.44885">
        <ele>261.6</ele>
        <time>2018-02-25T13:23:55Z</time>
      </trkpt>
      <trkpt lat="43.22152" lon="5.44883">
        <ele>261.4</ele>
        <time>2018-02-25T13:24:00Z</time>
      </trkpt>
      <trkpt lat="43.22147" lon="5.4488">
        <ele>261.8</ele>
        <time>2018-02-25T13:24:05Z</time>
      </trkpt>
      <trkpt lat="43.22143" lon="5.44878">
        <ele>262.6</ele>
        <time>2018-02-25T13:24:10Z</time>
      </trkpt>
      <trkpt lat="43.22139" lon="5.44876">
        <ele>262.6</ele>
        <time>2018-02-25T13:24:15Z</time>
      </trkpt>
      <trkpt lat="43.22134" lon="5.44874">
        <ele>261</ele>
        <time>2018-02-25T13:24:20Z</time>
      </trkpt>
      <trkpt lat="43.22129" lon="5.44874">
        <ele>261.8</ele>
        <time>2018-02-25T13:24:25Z</time>
      </trkpt>
      <trkpt lat="43.22125" lon="5.44874">
        <ele>263.8</ele>
        <time>2018-02-25T13:24:30Z</time>
      </trkpt>
      <trkpt lat="43.22121" lon="5.44874">
        <ele>261.2</ele>
        <time>2018-02-25T13:24:35Z</time>
      </trkpt>
      <trkpt lat="43.22115" lon="5.44875">
        <ele>254.8</ele>
        <time>2018-02-25T13:24:40Z</time>
      </trkpt>
      <trkpt lat="43.22111" lon="5.44877">
        <ele>269.2</ele>
        <time>2018-02-25T13:24:45Z</time>
      </trkpt>
      <trkpt lat="43.22106" lon="5.44879">
        <ele>266.4</ele>
        <time>2018-02-25T13:24:50Z</time>
      </trkpt>
      <trkpt lat="43.22101" lon="5.44882">
        <ele>267.8</ele>
        <time>2018-02-25T13:24:55Z</time>
      </trkpt>
      <trkpt lat="43.22098" lon="5.44885">
        <ele>267.8</ele>
        <time>2018-02-25T13:25:00Z</time>
      </trkpt>
      <trkpt lat="43.22093" lon="5.44889">
        <ele>267.4</ele>
        <time>2018-02-25T13:25:05Z</time>
      </trkpt>
      <trkpt lat="43.22089" lon="5.44893">
        <ele>267</ele>
        <time>2018-02-25T13:25:10Z</time>
      </trkpt>
      <trkpt lat="43.22086" lon="5.44897">
        <ele>267.6</ele>
        <time>2018-02-25T13:25:15Z</time>
      </trkpt>
      <trkpt lat="43.22083" lon="5.44901">
        <ele>268.8</ele>
        <time>2018-02-25T13:25:20Z</time>
      </trkpt>
      <trkpt lat="43.22079" lon="5.44904">
        <ele>268</ele>
        <time>2018-02-25T13:25:25Z</time>
      </trkpt>
      <trkpt lat="43.22075" lon="5.44909">
        <ele>269.2</ele>
        <time>2018-02-25T13:25:30Z</time>
      </trkpt>
      <trkpt lat="43.22071" lon="5.44912">
        <ele>268.2</ele>
        <time>2018-02-25T13:25:35Z</time>
      </trkpt>
      <trkpt lat="43.22067" lon="5.44914">
        <ele>271.4</ele>
        <time>2018-02-25T13:25:40Z</time>
      </trkpt>
      <trkpt lat="43.22062" lon="5.44917">
        <ele>272.8</ele>
        <time>2018-02-25T13:25:45Z</time>
      </trkpt>
      <trkpt lat="43.22059" lon="5.44921">
        <ele>272.6</ele>
        <time>2018-02-25T13:25:50Z</time>
      </trkpt>
      <trkpt lat="43.22054" lon="5.44923">
        <ele>272.4</ele>
        <time>2018-02-25T13:25:55Z</time>
      </trkpt>
      <trkpt lat="43.22048" lon="5.44926">
        <ele>273.2</ele>
        <time>2018-02-25T13:26:00Z</time>
      </trkpt>
      <trkpt lat="43.22042" lon="5.44925">
        <ele>271.8</ele>
        <time>2018-02-25T13:26:05Z</time>
      </trkpt>
      <trkpt lat="43.22037" lon="5.44923">
        <ele>272</ele>
        <time>2018-02-25T13:26:10Z</time>
      </trkpt>
      <trkpt lat="43.22032" lon="5.44921">
        <ele>274.8</ele>
        <time>2018-02-25T13:26:15Z</time>
      </trkpt>
      <trkpt lat="43.22026" lon="5.4492">
        <ele>275.8</ele>
        <time>2018-02-25T13:26:20Z</time>
      </trkpt>
      <trkpt lat="43.22021" lon="5.44919">
        <ele>272.4</ele>
        <time>2018-02-25T13:26:25Z</time>
      </trkpt>
      <trkpt lat="43.22016" lon="5.44917">
        <ele>272.6</ele>
        <time>2018-02-25T13:26:30Z</time>
      </trkpt>
      <trkpt lat="43.22011" lon="5.44916">
        <ele>274</ele>
        <time>2018-02-25T13:26:35Z</time>
      </trkpt>
      <trkpt lat="43.22006" lon="5.44915">
        <ele>277.6</ele>
        <time>2018-02-25T13:26:40Z</time>
      </trkpt>
      <trkpt lat="43.22" lon="5.44915">
        <ele>277.8</ele>
        <time>2018-02-25T13:26:45Z</time>
      </trkpt>
      <trkpt lat="43.21996" lon="5.44915">
        <ele>277.6</ele>
        <time>2018-02-25T13:26:50Z</time>
      </trkpt>
      <trkpt lat="43.21991" lon="5.44917">
        <ele>277.2</ele>
        <time>2018-02-25T13:26:55Z</time>
      </trkpt>
      <trkpt lat="43.21988" lon="5.44922">
        <ele>277.8</ele>
        <time>2018-02-25T13:27:00Z</time>
      </trkpt>
      <trkpt lat="43.21987" lon="5.44929">
        <ele>278.6</ele>
        <time>2018-02-25T13:27:05Z</time>
      </trkpt>
      <trkpt lat="43.21988" lon="5.44937">
        <ele>280.6</ele>
        <time>2018-02-25T13:27:10Z</time>
      </trkpt>
      <trkpt lat="43.21987" lon="5.44944">
        <ele>279.2</ele>
        <time>2018-02-25T13:27:15Z</time>
      </trkpt>
      <trkpt lat="43.21986" lon="5.44951">
        <ele>279</ele>
        <time>2018-02-25T13:27:20Z</time>
      </trkpt>
      <trkpt lat="43.21985" lon="5.44959">
        <ele>281.8</ele>
        <time>2018-02-25T13:27:25Z</time>
      </trkpt>
      <trkpt lat="43.21983" lon="5.44966">
        <ele>282.6</ele>
        <time>2018-02-25T13:27:30Z</time>
      </trkpt>
      <trkpt lat="43.2198" lon="5.44972">
        <ele>279.4</ele>
        <time>2018-02-25T13:27:35Z</time>
      </trkpt>
      <trkpt lat="43.21976" lon="5.44976">
        <ele>282.2</ele>
        <time>2018-02-25T13:27:40Z</time>
      </trkpt>
      <trkpt lat="43.2197" lon="5.44977">
        <ele>284.2</ele>
        <time>2018-02-25T13:27:45Z</time>
      </trkpt>
      <trkpt lat="43.21966" lon="5.44978">
        <ele>281</ele>
        <time>2018-02-25T13:27:50Z</time>
      </trkpt>
      <trkpt lat="43.21961" lon="5.44977">
        <ele>282.8</ele>
        <time>2018-02-25T13:27:55Z</time>
      </trkpt>
      <trkpt lat="43.21956" lon="5.44976">
        <ele>282.6</ele>
        <time>2018-02-25T13:28:00Z</time>
      </trkpt>
      <trkpt lat="43.21951" lon="5.44975">
        <ele>283.4</ele>
        <time>2018-02-25T13:28:05Z</time>
      </trkpt>
      <trkpt lat="43.21946" lon="5.44976">
        <ele>282.8</ele>
        <time>2018-02-25T13:28:10Z</time>
      </trkpt>
      <trkpt lat="43.21944" lon="5.44979">
        <ele>286.4</ele>
        <time>2018-02-25T13:28:15Z</time>
      </trkpt>
      <trkpt lat="43.21942" lon="5.44984">
        <ele>283</ele>
        <time>2018-02-25T13:28:20Z</time>
      </trkpt>
      <trkpt lat="43.2194" lon="5.44989">
        <ele>283.4</ele>
        <time>2018-02-25T13:28:25Z</time>
      </trkpt>
      <trkpt lat="43.2194" lon="5.44995">
        <ele>284.2</ele>
        <time>2018-02-25T13:28:30Z</time>
      </trkpt>
      <trkpt lat="43.2194" lon="5.45">
        <ele>284.4</ele>
        <time>2018-02-25T13:28:35Z</time>
      </trkpt>
      <trkpt lat="43.21941" lon="5.45005">
        <ele>286</ele>
        <time>2018-02-25T13:28:40Z</time>
      </trkpt>
      <trkpt lat="43.21941" lon="5.4501">
        <ele>286.8</ele>
        <time>2018-02-25T13:28:45Z</time>
      </trkpt>
      <trkpt lat="43.21943" lon="5.45016">
        <ele>288.8</ele>
        <time>2018-02-25T13:28:50Z</time>
      </trkpt>
      <trkpt lat="43.21944" lon="5.45021">
        <ele>287.2</ele>
        <time>2018-02-25T13:28:55Z</time>
      </trkpt>
      <trkpt lat="43.21946" lon="5.45027">
        <ele>289.2</ele>
        <time>2018-02-25T13:29:00Z</time>
      </trkpt>
      <trkpt lat="43.21946" lon="5.45033">
        <ele>285.8</ele>
        <time>2018-02-25T13:29:05Z</time>
      </trkpt>
      <trkpt lat="43.21947" lon="5.45038">
        <ele>289.8</ele>
        <time>2018-02-25T13:29:10Z</time>
      </trkpt>
      <trkpt lat="43.21947" lon="5.45044">
        <ele>288.6</ele>
        <time>2018-02-25T13:29:15Z</time>
      </trkpt>
      <trkpt lat="43.21946" lon="5.45048">
        <ele>289.6</ele>
        <time>2018-02-25T13:29:20Z</time>
      </trkpt>
      <trkpt lat="43.21945" lon="5.45054">
        <ele>292.4</ele>
        <time>2018-02-25T13:29:25Z</time>
      </trkpt>
      <trkpt lat="43.21943" lon="5.45059">
        <ele>288.2</ele>
        <time>2018-02-25T13:29:30Z</time>
      </trkpt>
      <trkpt lat="43.21942" lon="5.45065">
        <ele>290.4</ele>
        <time>2018-02-25T13:29:35Z</time>
      </trkpt>
      <trkpt lat="43.21939" lon="5.4507">
        <ele>290.2</ele>
        <time>2018-02-25T13:29:40Z</time>
      </trkpt>
      <trkpt lat="43.21936" lon="5.45074">
        <ele>291.8</ele>
        <time>2018-02-25T13:29:45Z</time>
      </trkpt>
      <trkpt lat="43.21933" lon="5.45078">
        <ele>294.2</ele>
        <time>2018-02-25T13:29:50Z</time>
      </trkpt>
      <trkpt lat="43.21931" lon="5.45081">
        <ele>292.6</ele>
        <time>2018-02-25T13:29:55Z</time>
      </trkpt>
      <trkpt lat="43.21928" lon="5.45086">
        <ele>292.8</ele>
        <time>2018-02-25T13:30:00Z</time>
      </trkpt>
      <trkpt lat="43.21925" lon="5.45089">
        <ele>296.6</ele>
        <time>2018-02-25T13:30:05Z</time>
      </trkpt>
      <trkpt lat="43.21922" lon="5.45093">
        <ele>294</ele>
        <time>2018-02-25T13:30:10Z</time>
      </trkpt>
      <trkpt lat="43.21919" lon="5.45096">
        <ele>296.2</ele>
        <time>2018-02-25T13:30:15Z</time>
      </trkpt>
      <trkpt lat="43.21916" lon="5.45097">
        <ele>296.4</ele>
        <time>2018-02-25T13:30:20Z</time>
      </trkpt>
      <trkpt lat="43.21913" lon="5.45099">
        <ele>295.2</ele>
        <time>2018-02-25T13:30:25Z</time>
      </trkpt>
      <trkpt lat="43.2191" lon="5.45101">
        <ele>296.6</ele>
        <time>2018-02-25T13:30:30Z</time>
      </trkpt>
      <trkpt lat="43.21907" lon="5.45104">
        <ele>296.2</ele>
        <time>2018-02-25T13:30:35Z</time>
      </trkpt>
      <trkpt lat="43.21903" lon="5.45107">
        <ele>295.2</ele>
        <time>2018-02-25T13:30:40Z</time>
      </trkpt>
      <trkpt lat="43.219" lon="5.45109">
        <ele>298.8</ele>
        <time>2018-02-25T13:30:45Z</time>
      </trkpt>
      <trkpt lat="43.21897" lon="5.45112">
        <ele>297.2</ele>
        <time>2018-02-25T13:30:50Z</time>
      </trkpt>
      <trkpt lat="43.21893" lon="5.45114">
        <ele>299.2</ele>
        <time>2018-02-25T13:30:55Z</time>
      </trkpt>
      <trkpt lat="43.2189" lon="5.45117">
        <ele>299.6</ele>
        <time>2018-02-25T13:31:00Z</time>
      </trkpt>
      <trkpt lat="43.21887" lon="5.45119">
        <ele>299.8</ele>
        <time>2018-02-25T13:31:05Z</time>
      </trkpt>
      <trkpt lat="43.21884" lon="5.45123">
        <ele>299.4</ele>
        <time>2018-02-25T13:31:10Z</time>
      </trkpt>
      <trkpt lat="43.21881" lon="5.45127">
        <ele>298.4</ele>
        <time>2018-02-25T13:31:15Z</time>
      </trkpt>
      <trkpt lat="43.2188" lon="5.45132">
        <ele>300</ele>
        <time>2018-02-25T13:31:20Z</time>
      </trkpt>
      <trkpt lat="43.21879" lon="5.45138">
        <ele>300.4</ele>
        <time>2018-02-25T13:31:25Z</time>
      </trkpt>
      <trkpt lat="43.21878" lon="5.45143">
        <ele>303.2</ele>
        <time>2018-02-25T13:31:30Z</time>
      </trkpt>
      <trkpt lat="43.21877" lon="5.45149">
        <ele>303.6</ele>
        <time>2018-02-25T13:31:35Z</time>
      </trkpt>
      <trkpt lat="43.21876" lon="5.45154">
        <ele>308</ele>
        <time>2018-02-25T13:31:40Z</time>
      </trkpt>
      <trkpt lat="43.21875" lon="5.45158">
        <ele>304</ele>
        <time>2018-02-25T13:31:45Z</time>
      </trkpt>
      <trkpt lat="43.21873" lon="5.45162">
        <ele>308</ele>
        <time>2018-02-25T13:31:50Z</time>
      </trkpt>
      <trkpt lat="43.21872" lon="5.45168">
        <ele>308.4</ele>
        <time>2018-02-25T13:31:55Z</time>
      </trkpt>
      <trkpt lat="43.21871" lon="5.45173">
        <ele>306</ele>
        <time>2018-02-25T13:32:00Z</time>
      </trkpt>
      <trkpt lat="43.2187" lon="5.45178">
        <ele>307.4</ele>
        <time>2018-02-25T13:32:05Z</time>
      </trkpt>
      <trkpt lat="43.21869" lon="5.45183">
        <ele>307.2</ele>
        <time>2018-02-25T13:32:10Z</time>
      </trkpt>
      <trkpt lat="43.21868" lon="5.45189">
        <ele>307</ele>
        <time>2018-02-25T13:32:15Z</time>
      </trkpt>
      <trkpt lat="43.21868" lon="5.45195">
        <ele>309.6</ele>
        <time>2018-02-25T13:32:20Z</time>
      </trkpt>
      <trkpt lat="43.21868" lon="5.452">
        <ele>308.8</ele>
        <time>2018-02-25T13:32:25Z</time>
      </trkpt>
      <trkpt lat="43.2187" lon="5.45205">
        <ele>308.2</ele>
        <time>2018-02-25T13:32:30Z</time>
      </trkpt>
      <trkpt lat="43.21873" lon="5.45209">
        <ele>311.8</ele>
        <time>2018-02-25T13:32:35Z</time>
      </trkpt>
      <trkpt lat="43.21877" lon="5.45211">
        <ele>311</ele>
        <time>2018-02-25T13:32:40Z</time>
      </trkpt>
      <trkpt lat="43.21881" lon="5.45212">
        <ele>310</ele>
        <time>2018-02-25T13:32:45Z</time>
      </trkpt>
      <trkpt lat="43.21885" lon="5.45212">
        <ele>312.4</ele>
        <time>2018-02-25T13:32:50Z</time>
      </trkpt>
      <trkpt lat="43.21889" lon="5.45211">
        <ele>312.4</ele>
        <time>2018-02-25T13:32:55Z</time>
      </trkpt>
      <trkpt lat="43.21894" lon="5.45209">
        <ele>313.8</ele>
        <time>2018-02-25T13:33:00Z</time>
      </trkpt>
      <trkpt lat="43.21898" lon="5.45206">
        <ele>312.2</ele>
        <time>2018-02-25T13:33:05Z</time>
      </trkpt>
      <trkpt lat="43.21902" lon="5.45203">
        <ele>313.2</ele>
        <time>2018-02-25T13:33:10Z</time>
      </trkpt>
      <trkpt lat="43.21907" lon="5.45199">
        <ele>314.2</ele>
        <time>2018-02-25T13:33:15Z</time>
      </trkpt>
      <trkpt lat="43.21912" lon="5.45196">
        <ele>310.8</ele>
        <time>2018-02-25T13:33:20Z</time>
      </trkpt>
      <trkpt lat="43.21916" lon="5.45191">
        <ele>310.6</ele>
        <time>2018-02-25T13:33:25Z</time>
      </trkpt>
      <trkpt lat="43.21921" lon="5.45189">
        <ele>314.4</ele>
        <time>2018-02-25T13:33:30Z</time>
      </trkpt>
      <trkpt lat="43.21926" lon="5.45189">
        <ele>310.2</ele>
        <time>2018-02-25T13:33:35Z</time>
      </trkpt>
      <trkpt lat="43.21931" lon="5.45188">
        <ele>313.8</ele>
        <time>2018-02-25T13:33:40Z</time>
      </trkpt>
      <trkpt lat="43.21935" lon="5.45187">
        <ele>311.8</ele>
        <time>2018-02-25T13:33:45Z</time>
      </trkpt>
      <trkpt lat="43.21939" lon="5.45185">
        <ele>312.4</ele>
        <time>2018-02-25T13:33:50Z</time>
      </trkpt>
      <trkpt lat="43.21944" lon="5.45184">
        <ele>314.8</ele>
        <time>2018-02-25T13:33:55Z</time>
      </trkpt>
      <trkpt lat="43.21948" lon="5.45181">
        <ele>313.8</ele>
        <time>2018-02-25T13:34:00Z</time>
      </trkpt>
      <trkpt lat="43.21951" lon="5.45178">
        <ele>314</ele>
        <time>2018-02-25T13:34:05Z</time>
      </trkpt>
      <trkpt lat="43.21955" lon="5.45175">
        <ele>313.6</ele>
        <time>2018-02-25T13:34:10Z</time>
      </trkpt>
      <trkpt lat="43.21959" lon="5.45172">
        <ele>315</ele>
        <time>2018-02-25T13:34:15Z</time>
      </trkpt>
      <trkpt lat="43.21962" lon="5.45168">
        <ele>315.6</ele>
        <time>2018-02-25T13:34:20Z</time>
      </trkpt>
      <trkpt lat="43.21965" lon="5.45164">
        <ele>317.4</ele>
        <time>2018-02-25T13:34:25Z</time>
      </trkpt>
      <trkpt lat="43.2197" lon="5.45161">
        <ele>317.4</ele>
        <time>2018-02-25T13:34:31Z</time>
      </trkpt>
      <trkpt lat="43.21974" lon="5.45159">
        <ele>317.8</ele>
        <time>2018-02-25T13:34:36Z</time>
      </trkpt>
      <trkpt lat="43.21979" lon="5.45157">
        <ele>321</ele>
        <time>2018-02-25T13:34:41Z</time>
      </trkpt>
      <trkpt lat="43.21983" lon="5.45156">
        <ele>320.2</ele>
        <time>2018-02-25T13:34:46Z</time>
      </trkpt>
      <trkpt lat="43.21986" lon="5.45155">
        <ele>319</ele>
        <time>2018-02-25T13:34:51Z</time>
      </trkpt>
      <trkpt lat="43.2199" lon="5.45153">
        <ele>321</ele>
        <time>2018-02-25T13:34:56Z</time>
      </trkpt>
      <trkpt lat="43.21994" lon="5.45151">
        <ele>318.6</ele>
        <time>2018-02-25T13:35:01Z</time>
      </trkpt>
      <trkpt lat="43.21998" lon="5.45149">
        <ele>319.4</ele>
        <time>2018-02-25T13:35:06Z</time>
      </trkpt>
      <trkpt lat="43.22002" lon="5.45147">
        <ele>320.4</ele>
        <time>2018-02-25T13:35:11Z</time>
      </trkpt>
      <trkpt lat="43.22007" lon="5.45145">
        <ele>325.6</ele>
        <time>2018-02-25T13:35:16Z</time>
      </trkpt>
      <trkpt lat="43.22011" lon="5.45144">
        <ele>319.4</ele>
        <time>2018-02-25T13:35:21Z</time>
      </trkpt>
      <trkpt lat="43.22015" lon="5.45141">
        <ele>320.8</ele>
        <time>2018-02-25T13:35:26Z</time>
      </trkpt>
      <trkpt lat="43.22019" lon="5.4514">
        <ele>323.6</ele>
        <time>2018-02-25T13:35:31Z</time>
      </trkpt>
      <trkpt lat="43.22023" lon="5.45139">
        <ele>324.2</ele>
        <time>2018-02-25T13:35:36Z</time>
      </trkpt>
      <trkpt lat="43.22027" lon="5.45136">
        <ele>322.2</ele>
        <time>2018-02-25T13:35:41Z</time>
      </trkpt>
      <trkpt lat="43.22032" lon="5.45135">
        <ele>323.6</ele>
        <time>2018-02-25T13:35:46Z</time>
      </trkpt>
      <trkpt lat="43.22036" lon="5.45134">
        <ele>321</ele>
        <time>2018-02-25T13:35:51Z</time>
      </trkpt>
      <trkpt lat="43.2204" lon="5.45132">
        <ele>326.6</ele>
        <time>2018-02-25T13:35:56Z</time>
      </trkpt>
      <trkpt lat="43.22045" lon="5.4513">
        <ele>326.2</ele>
        <time>2018-02-25T13:36:01Z</time>
      </trkpt>
      <trkpt lat="43.22049" lon="5.4513">
        <ele>326.4</ele>
        <time>2018-02-25T13:36:06Z</time>
      </trkpt>
      <trkpt lat="43.22053" lon="5.45129">
        <ele>327.2</ele>
        <time>2018-02-25T13:36:11Z</time>
      </trkpt>
      <trkpt lat="43.22057" lon="5.45128">
        <ele>328.2</ele>
        <time>2018-02-25T13:36:16Z</time>
      </trkpt>
      <trkpt lat="43.22062" lon="5.45126">
        <ele>326.8</ele>
        <time>2018-02-25T13:36:21Z</time>
      </trkpt>
      <trkpt lat="43.22066" lon="5.45125">
        <ele>328.8</ele>
        <time>2018-02-25T13:36:26Z</time>
      </trkpt>
      <trkpt lat="43.22071" lon="5.45123">
        <ele>329.6</ele>
        <time>2018-02-25T13:36:31Z</time>
      </trkpt>
      <trkpt lat="43.22075" lon="5.45122">
        <ele>325.6</ele>
        <time>2018-02-25T13:36:36Z</time>
      </trkpt>
      <trkpt lat="43.2208" lon="5.45121">
        <ele>327</ele>
        <time>2018-02-25T13:36:41Z</time>
      </trkpt>
      <trkpt lat="43.22084" lon="5.45118">
        <ele>326</ele>
        <time>2018-02-25T13:36:46Z</time>
      </trkpt>
      <trkpt lat="43.22088" lon="5.45115">
        <ele>328.8</ele>
        <time>2018-02-25T13:36:51Z</time>
      </trkpt>
      <trkpt lat="43.22092" lon="5.45112">
        <ele>330.4</ele>
        <time>2018-02-25T13:36:56Z</time>
      </trkpt>
      <trkpt lat="43.22096" lon="5.45108">
        <ele>330.8</ele>
        <time>2018-02-25T13:37:01Z</time>
      </trkpt>
      <trkpt lat="43.221" lon="5.45104">
        <ele>329.8</ele>
        <time>2018-02-25T13:37:06Z</time>
      </trkpt>
      <trkpt lat="43.22104" lon="5.45101">
        <ele>330.8</ele>
        <time>2018-02-25T13:37:11Z</time>
      </trkpt>
      <trkpt lat="43.22108" lon="5.45098">
        <ele>330.2</ele>
        <time>2018-02-25T13:37:16Z</time>
      </trkpt>
      <trkpt lat="43.22113" lon="5.45097">
        <ele>334.4</ele>
        <time>2018-02-25T13:37:21Z</time>
      </trkpt>
      <trkpt lat="43.22117" lon="5.45095">
        <ele>331.2</ele>
        <time>2018-02-25T13:37:26Z</time>
      </trkpt>
      <trkpt lat="43.22122" lon="5.45095">
        <ele>335.8</ele>
        <time>2018-02-25T13:37:31Z</time>
      </trkpt>
      <trkpt lat="43.22128" lon="5.45094">
        <ele>333.2</ele>
        <time>2018-02-25T13:37:36Z</time>
      </trkpt>
      <trkpt lat="43.22132" lon="5.45093">
        <ele>334</ele>
        <time>2018-02-25T13:37:41Z</time>
      </trkpt>
      <trkpt lat="43.22136" lon="5.45092">
        <ele>331.2</ele>
        <time>2018-02-25T13:37:46Z</time>
      </trkpt>
      <trkpt lat="43.2214" lon="5.45092">
        <ele>332.8</ele>
        <time>2018-02-25T13:37:51Z</time>
      </trkpt>
      <trkpt lat="43.22144" lon="5.45091">
        <ele>338</ele>
        <time>2018-02-25T13:37:56Z</time>
      </trkpt>
      <trkpt lat="43.22148" lon="5.45091">
        <ele>336.8</ele>
        <time>2018-02-25T13:38:01Z</time>
      </trkpt>
      <trkpt lat="43.22152" lon="5.45091">
        <ele>338.2</ele>
        <time>2018-02-25T13:38:06Z</time>
      </trkpt>
      <trkpt lat="43.22156" lon="5.45092">
        <ele>338.6</ele>
        <time>2018-02-25T13:38:11Z</time>
      </trkpt>
      <trkpt lat="43.2216" lon="5.45092">
        <ele>339.6</ele>
        <time>2018-02-25T13:38:16Z</time>
      </trkpt>
      <trkpt lat="43.22164" lon="5.45092">
        <ele>339.6</ele>
        <time>2018-02-25T13:38:21Z</time>
      </trkpt>
      <trkpt lat="43.22168" lon="5.45093">
        <ele>336.6</ele>
        <time>2018-02-25T13:38:26Z</time>
      </trkpt>
      <trkpt lat="43.22173" lon="5.45094">
        <ele>342</ele>
        <time>2018-02-25T13:38:31Z</time>
      </trkpt>
      <trkpt lat="43.22177" lon="5.45094">
        <ele>340.6</ele>
        <time>2018-02-25T13:38:36Z</time>
      </trkpt>
      <trkpt lat="43.22181" lon="5.45094">
        <ele>339.6</ele>
        <time>2018-02-25T13:38:41Z</time>
      </trkpt>
      <trkpt lat="43.22186" lon="5.45094">
        <ele>341.6</ele>
        <time>2018-02-25T13:38:46Z</time>
      </trkpt>
      <trkpt lat="43.2219" lon="5.45094">
        <ele>339.8</ele>
        <time>2018-02-25T13:38:51Z</time>
      </trkpt>
      <trkpt lat="43.22195" lon="5.45094">
        <ele>341.4</ele>
        <time>2018-02-25T13:38:56Z</time>
      </trkpt>
      <trkpt lat="43.222" lon="5.45095">
        <ele>342.6</ele>
        <time>2018-02-25T13:39:01Z</time>
      </trkpt>
      <trkpt lat="43.22205" lon="5.45096">
        <ele>339.2</ele>
        <time>2018-02-25T13:39:06Z</time>
      </trkpt>
      <trkpt lat="43.22209" lon="5.45097">
        <ele>343.4</ele>
        <time>2018-02-25T13:39:11Z</time>
      </trkpt>
      <trkpt lat="43.22214" lon="5.45097">
        <ele>343.6</ele>
        <time>2018-02-25T13:39:16Z</time>
      </trkpt>
      <trkpt lat="43.22219" lon="5.45098">
        <ele>342</ele>
        <time>2018-02-25T13:39:21Z</time>
      </trkpt>
      <trkpt lat="43.22223" lon="5.45099">
        <ele>343.4</ele>
        <time>2018-02-25T13:39:26Z</time>
      </trkpt>
      <trkpt lat="43.22228" lon="5.451">
        <ele>344.4</ele>
        <time>2018-02-25T13:39:31Z</time>
      </trkpt>
      <trkpt lat="43.22232" lon="5.45101">
        <ele>343</ele>
        <time>2018-02-25T13:39:36Z</time>
      </trkpt>
      <trkpt lat="43.22236" lon="5.45102">
        <ele>342.4</ele>
        <time>2018-02-25T13:39:41Z</time>
      </trkpt>
      <trkpt lat="43.22241" lon="5.45102">
        <ele>344.4</ele>
        <time>2018-02-25T13:39:46Z</time>
      </trkpt>
      <trkpt lat="43.22245" lon="5.451">
        <ele>345.2</ele>
        <time>2018-02-25T13:39:51Z</time>
      </trkpt>
      <trkpt lat="43.2225" lon="5.45099">
        <ele>345.4</ele>
        <time>2018-02-25T13:39:56Z</time>
      </trkpt>
      <trkpt lat="43.22252" lon="5.45101">
        <ele>345</ele>
        <time>2018-02-25T13:40:31Z</time>
      </trkpt>
      <trkpt lat="43.22251" lon="5.45102">
        <ele>343.8</ele>
        <time>2018-02-25T13:47:32Z</time>
      </trkpt>
      <trkpt lat="43.22251" lon="5.45101">
        <ele>344.8</ele>
        <time>2018-02-25T13:51:07Z</time>
      </trkpt>
      <trkpt lat="43.22251" lon="5.45096">
        <ele>345.2</ele>
        <time>2018-02-25T13:54:13Z</time>
      </trkpt>
      <trkpt lat="43.22251" lon="5.45096">
        <ele>344.6</ele>
        <time>2018-02-25T13:54:23Z</time>
      </trkpt>
      <trkpt lat="43.22253" lon="5.45096">
        <ele>342.8</ele>
        <time>2018-02-25T13:54:43Z</time>
      </trkpt>
      <trkpt lat="43.22254" lon="5.45095">
        <ele>342.8</ele>
        <time>2018-02-25T13:54:48Z</time>
      </trkpt>
      <trkpt lat="43.22257" lon="5.45095">
        <ele>343.8</ele>
        <time>2018-02-25T13:54:53Z</time>
      </trkpt>
      <trkpt lat="43.22259" lon="5.45094">
        <ele>344</ele>
        <time>2018-02-25T13:54:58Z</time>
      </trkpt>
      <trkpt lat="43.22263" lon="5.45092">
        <ele>344</ele>
        <time>2018-02-25T13:55:03Z</time>
      </trkpt>
      <trkpt lat="43.22267" lon="5.45089">
        <ele>346.2</ele>
        <time>2018-02-25T13:55:08Z</time>
      </trkpt>
      <trkpt lat="43.22271" lon="5.45087">
        <ele>344.4</ele>
        <time>2018-02-25T13:55:13Z</time>
      </trkpt>
      <trkpt lat="43.22274" lon="5.45087">
        <ele>346.4</ele>
        <time>2018-02-25T13:55:18Z</time>
      </trkpt>
      <trkpt lat="43.22278" lon="5.45087">
        <ele>348.4</ele>
        <time>2018-02-25T13:55:23Z</time>
      </trkpt>
      <trkpt lat="43.22282" lon="5.45086">
        <ele>347.8</ele>
        <time>2018-02-25T13:55:28Z</time>
      </trkpt>
      <trkpt lat="43.22287" lon="5.45086">
        <ele>347.8</ele>
        <time>2018-02-25T13:55:33Z</time>
      </trkpt>
      <trkpt lat="43.22292" lon="5.45086">
        <ele>350.2</ele>
        <time>2018-02-25T13:55:38Z</time>
      </trkpt>
      <trkpt lat="43.22296" lon="5.45087">
        <ele>351.4</ele>
        <time>2018-02-25T13:55:43Z</time>
      </trkpt>
      <trkpt lat="43.22301" lon="5.45086">
        <ele>350</ele>
        <time>2018-02-25T13:55:48Z</time>
      </trkpt>
      <trkpt lat="43.22305" lon="5.45086">
        <ele>349.4</ele>
        <time>2018-02-25T13:55:53Z</time>
      </trkpt>
      <trkpt lat="43.22309" lon="5.45085">
        <ele>349.4</ele>
        <time>2018-02-25T13:55:58Z</time>
      </trkpt>
      <trkpt lat="43.22313" lon="5.45085">
        <ele>350.2</ele>
        <time>2018-02-25T13:56:03Z</time>
      </trkpt>
      <trkpt lat="43.22318" lon="5.45085">
        <ele>351.2</ele>
        <time>2018-02-25T13:56:08Z</time>
      </trkpt>
      <trkpt lat="43.22322" lon="5.45085">
        <ele>350</ele>
        <time>2018-02-25T13:56:13Z</time>
      </trkpt>
      <trkpt lat="43.22325" lon="5.45084">
        <ele>353</ele>
        <time>2018-02-25T13:56:18Z</time>
      </trkpt>
      <trkpt lat="43.2233" lon="5.45084">
        <ele>354.4</ele>
        <time>2018-02-25T13:56:23Z</time>
      </trkpt>
      <trkpt lat="43.22334" lon="5.45083">
        <ele>353.2</ele>
        <time>2018-02-25T13:56:28Z</time>
      </trkpt>
      <trkpt lat="43.22338" lon="5.45082">
        <ele>350.2</ele>
        <time>2018-02-25T13:56:33Z</time>
      </trkpt>
      <trkpt lat="43.22343" lon="5.45081">
        <ele>356.2</ele>
        <time>2018-02-25T13:56:38Z</time>
      </trkpt>
      <trkpt lat="43.22347" lon="5.45078">
        <ele>356.4</ele>
        <time>2018-02-25T13:56:43Z</time>
      </trkpt>
      <trkpt lat="43.22351" lon="5.45077">
        <ele>354.4</ele>
        <time>2018-02-25T13:56:48Z</time>
      </trkpt>
      <trkpt lat="43.22355" lon="5.45076">
        <ele>354.8</ele>
        <time>2018-02-25T13:56:53Z</time>
      </trkpt>
      <trkpt lat="43.22359" lon="5.45075">
        <ele>355.8</ele>
        <time>2018-02-25T13:56:58Z</time>
      </trkpt>
      <trkpt lat="43.22364" lon="5.45075">
        <ele>355.6</ele>
        <time>2018-02-25T13:57:03Z</time>
      </trkpt>
      <trkpt lat="43.22368" lon="5.45075">
        <ele>359.2</ele>
        <time>2018-02-25T13:57:08Z</time>
      </trkpt>
      <trkpt lat="43.22373" lon="5.45076">
        <ele>358.4</ele>
        <time>2018-02-25T13:57:13Z</time>
      </trkpt>
      <trkpt lat="43.22377" lon="5.45077">
        <ele>361.4</ele>
        <time>2018-02-25T13:57:18Z</time>
      </trkpt>
      <trkpt lat="43.22382" lon="5.45078">
        <ele>359.2</ele>
        <time>2018-02-25T13:57:23Z</time>
      </trkpt>
      <trkpt lat="43.22386" lon="5.45081">
        <ele>359.4</ele>
        <time>2018-02-25T13:57:28Z</time>
      </trkpt>
      <trkpt lat="43.2239" lon="5.45084">
        <ele>358.4</ele>
        <time>2018-02-25T13:57:33Z</time>
      </trkpt>
      <trkpt lat="43.22393" lon="5.45088">
        <ele>362.6</ele>
        <time>2018-02-25T13:57:38Z</time>
      </trkpt>
      <trkpt lat="43.22398" lon="5.45091">
        <ele>359</ele>
        <time>2018-02-25T13:57:43Z</time>
      </trkpt>
      <trkpt lat="43.22401" lon="5.45095">
        <ele>362.8</ele>
        <time>2018-02-25T13:57:48Z</time>
      </trkpt>
      <trkpt lat="43.22404" lon="5.45101">
        <ele>362.6</ele>
        <time>2018-02-25T13:57:53Z</time>
      </trkpt>
      <trkpt lat="43.22407" lon="5.45106">
        <ele>365.4</ele>
        <time>2018-02-25T13:57:58Z</time>
      </trkpt>
      <trkpt lat="43.22411" lon="5.45111">
        <ele>363.8</ele>
        <time>2018-02-25T13:58:03Z</time>
      </trkpt>
      <trkpt lat="43.22414" lon="5.45115">
        <ele>362</ele>
        <time>2018-02-25T13:58:08Z</time>
      </trkpt>
      <trkpt lat="43.22417" lon="5.4512">
        <ele>364.8</ele>
        <time>2018-02-25T13:58:13Z</time>
      </trkpt>
      <trkpt lat="43.22421" lon="5.45124">
        <ele>364</ele>
        <time>2018-02-25T13:58:18Z</time>
      </trkpt>
      <trkpt lat="43.22424" lon="5.45128">
        <ele>365.6</ele>
        <time>2018-02-25T13:58:23Z</time>
      </trkpt>
      <trkpt lat="43.22427" lon="5.45133">
        <ele>367.6</ele>
        <time>2018-02-25T13:58:28Z</time>
      </trkpt>
      <trkpt lat="43.2243" lon="5.45137">
        <ele>368</ele>
        <time>2018-02-25T13:58:33Z</time>
      </trkpt>
      <trkpt lat="43.22433" lon="5.45141">
        <ele>371.6</ele>
        <time>2018-02-25T13:58:38Z</time>
      </trkpt>
      <trkpt lat="43.22436" lon="5.45145">
        <ele>371.8</ele>
        <time>2018-02-25T13:58:43Z</time>
      </trkpt>
      <trkpt lat="43.22439" lon="5.4515">
        <ele>369.2</ele>
        <time>2018-02-25T13:58:48Z</time>
      </trkpt>
      <trkpt lat="43.22443" lon="5.45154">
        <ele>368</ele>
        <time>2018-02-25T13:58:53Z</time>
      </trkpt>
      <trkpt lat="43.22447" lon="5.45157">
        <ele>368.6</ele>
        <time>2018-02-25T13:58:58Z</time>
      </trkpt>
      <trkpt lat="43.22452" lon="5.45158">
        <ele>368.8</ele>
        <time>2018-02-25T13:59:03Z</time>
      </trkpt>
      <trkpt lat="43.22456" lon="5.45157">
        <ele>370.2</ele>
        <time>2018-02-25T13:59:08Z</time>
      </trkpt>
      <trkpt lat="43.22461" lon="5.45156">
        <ele>369.4</ele>
        <time>2018-02-25T13:59:13Z</time>
      </trkpt>
      <trkpt lat="43.22466" lon="5.45154">
        <ele>374</ele>
        <time>2018-02-25T13:59:18Z</time>
      </trkpt>
      <trkpt lat="43.22471" lon="5.45153">
        <ele>369.4</ele>
        <time>2018-02-25T13:59:23Z</time>
      </trkpt>
      <trkpt lat="43.22475" lon="5.45153">
        <ele>371.6</ele>
        <time>2018-02-25T13:59:28Z</time>
      </trkpt>
      <trkpt lat="43.22479" lon="5.45153">
        <ele>371.2</ele>
        <time>2018-02-25T13:59:33Z</time>
      </trkpt>
      <trkpt lat="43.22484" lon="5.45154">
        <ele>372.6</ele>
        <time>2018-02-25T13:59:38Z</time>
      </trkpt>
      <trkpt lat="43.22489" lon="5.45155">
        <ele>374.6</ele>
        <time>2018-02-25T13:59:43Z</time>
      </trkpt>
      <trkpt lat="43.22494" lon="5.45157">
        <ele>371</ele>
        <time>2018-02-25T13:59:48Z</time>
      </trkpt>
      <trkpt lat="43.22499" lon="5.45158">
        <ele>371</ele>
        <time>2018-02-25T13:59:53Z</time>
      </trkpt>
      <trkpt lat="43.22503" lon="5.4516">
        <ele>370.4</ele>
        <time>2018-02-25T13:59:58Z</time>
      </trkpt>
      <trkpt lat="43.22508" lon="5.45161">
        <ele>373.6</ele>
        <time>2018-02-25T14:00:03Z</time>
      </trkpt>
      <trkpt lat="43.22513" lon="5.45162">
        <ele>372.6</ele>
        <time>2018-02-25T14:00:08Z</time>
      </trkpt>
      <trkpt lat="43.22518" lon="5.45163">
        <ele>372</ele>
        <time>2018-02-25T14:00:13Z</time>
      </trkpt>
      <trkpt lat="43.22523" lon="5.45165">
        <ele>374.4</ele>
        <time>2018-02-25T14:00:18Z</time>
      </trkpt>
      <trkpt lat="43.22527" lon="5.45167">
        <ele>378.2</ele>
        <time>2018-02-25T14:00:23Z</time>
      </trkpt>
      <trkpt lat="43.22531" lon="5.45171">
        <ele>376</ele>
        <time>2018-02-25T14:00:28Z</time>
      </trkpt>
      <trkpt lat="43.22535" lon="5.45175">
        <ele>375.8</ele>
        <time>2018-02-25T14:00:33Z</time>
      </trkpt>
      <trkpt lat="43.22539" lon="5.45179">
        <ele>379</ele>
        <time>2018-02-25T14:00:38Z</time>
      </trkpt>
      <trkpt lat="43.22543" lon="5.45183">
        <ele>376.2</ele>
        <time>2018-02-25T14:00:43Z</time>
      </trkpt>
      <trkpt lat="43.22547" lon="5.45188">
        <ele>378</ele>
        <time>2018-02-25T14:00:48Z</time>
      </trkpt>
      <trkpt lat="43.22551" lon="5.45193">
        <ele>377.6</ele>
        <time>2018-02-25T14:00:53Z</time>
      </trkpt>
      <trkpt lat="43.22555" lon="5.45198">
        <ele>376</ele>
        <time>2018-02-25T14:00:58Z</time>
      </trkpt>
      <trkpt lat="43.22559" lon="5.45204">
        <ele>376.6</ele>
        <time>2018-02-25T14:01:03Z</time>
      </trkpt>
      <trkpt lat="43.22562" lon="5.45211">
        <ele>377.6</ele>
        <time>2018-02-25T14:01:08Z</time>
      </trkpt>
      <trkpt lat="43.22565" lon="5.45217">
        <ele>376.8</ele>
        <time>2018-02-25T14:01:13Z</time>
      </trkpt>
      <trkpt lat="43.22566" lon="5.45225">
        <ele>378</ele>
        <time>2018-02-25T14:01:18Z</time>
      </trkpt>
      <trkpt lat="43.22568" lon="5.45232">
        <ele>376</ele>
        <time>2018-02-25T14:01:23Z</time>
      </trkpt>
      <trkpt lat="43.22568" lon="5.4524">
        <ele>376</ele>
        <time>2018-02-25T14:01:28Z</time>
      </trkpt>
      <trkpt lat="43.22568" lon="5.45247">
        <ele>377.6</ele>
        <time>2018-02-25T14:01:33Z</time>
      </trkpt>
      <trkpt lat="43.22566" lon="5.45254">
        <ele>375.6</ele>
        <time>2018-02-25T14:01:38Z</time>
      </trkpt>
      <trkpt lat="43.22564" lon="5.45261">
        <ele>374.4</ele>
        <time>2018-02-25T14:01:43Z</time>
      </trkpt>
      <trkpt lat="43.22561" lon="5.4527">
        <ele>376.4</ele>
        <time>2018-02-25T14:01:49Z</time>
      </trkpt>
      <trkpt lat="43.22559" lon="5.45278">
        <ele>373.4</ele>
        <time>2018-02-25T14:01:54Z</time>
      </trkpt>
      <trkpt lat="43.22558" lon="5.45286">
        <ele>374.4</ele>
        <time>2018-02-25T14:01:59Z</time>
      </trkpt>
      <trkpt lat="43.22557" lon="5.45294">
        <ele>377.4</ele>
        <time>2018-02-25T14:02:04Z</time>
      </trkpt>
      <trkpt lat="43.22558" lon="5.45301">
        <ele>374</ele>
        <time>2018-02-25T14:02:09Z</time>
      </trkpt>
      <trkpt lat="43.22558" lon="5.45309">
        <ele>374.8</ele>
        <time>2018-02-25T14:02:14Z</time>
      </trkpt>
      <trkpt lat="43.22559" lon="5.45318">
        <ele>375</ele>
        <time>2018-02-25T14:02:19Z</time>
      </trkpt>
      <trkpt lat="43.2256" lon="5.45326">
        <ele>375</ele>
        <time>2018-02-25T14:02:24Z</time>
      </trkpt>
      <trkpt lat="43.22562" lon="5.45333">
        <ele>374.8</ele>
        <time>2018-02-25T14:02:29Z</time>
      </trkpt>
      <trkpt lat="43.22565" lon="5.4534">
        <ele>376</ele>
        <time>2018-02-25T14:02:34Z</time>
      </trkpt>
      <trkpt lat="43.22569" lon="5.45346">
        <ele>374.4</ele>
        <time>2018-02-25T14:02:39Z</time>
      </trkpt>
      <trkpt lat="43.22573" lon="5.45352">
        <ele>373</ele>
        <time>2018-02-25T14:02:44Z</time>
      </trkpt>
      <trkpt lat="43.22575" lon="5.45361">
        <ele>376</ele>
        <time>2018-02-25T14:02:49Z</time>
      </trkpt>
      <trkpt lat="43.22577" lon="5.4537">
        <ele>376</ele>
        <time>2018-02-25T14:02:54Z</time>
      </trkpt>
      <trkpt lat="43.22578" lon="5.45379">
        <ele>373.8</ele>
        <time>2018-02-25T14:02:59Z</time>
      </trkpt>
      <trkpt lat="43.2258" lon="5.45386">
        <ele>377.8</ele>
        <time>2018-02-25T14:03:04Z</time>
      </trkpt>
      <trkpt lat="43.22583" lon="5.45392">
        <ele>374.6</ele>
        <time>2018-02-25T14:03:09Z</time>
      </trkpt>
      <trkpt lat="43.22588" lon="5.45397">
        <ele>374</ele>
        <time>2018-02-25T14:03:14Z</time>
      </trkpt>
      <trkpt lat="43.22594" lon="5.45403">
        <ele>376</ele>
        <time>2018-02-25T14:03:19Z</time>
      </trkpt>
      <trkpt lat="43.226" lon="5.45408">
        <ele>375.6</ele>
        <time>2018-02-25T14:03:24Z</time>
      </trkpt>
      <trkpt lat="43.22605" lon="5.45412">
        <ele>375.2</ele>
        <time>2018-02-25T14:03:29Z</time>
      </trkpt>
      <trkpt lat="43.2261" lon="5.45415">
        <ele>375.4</ele>
        <time>2018-02-25T14:03:34Z</time>
      </trkpt>
      <trkpt lat="43.22616" lon="5.45415">
        <ele>374.8</ele>
        <time>2018-02-25T14:03:39Z</time>
      </trkpt>
      <trkpt lat="43.22622" lon="5.45416">
        <ele>379.4</ele>
        <time>2018-02-25T14:03:44Z</time>
      </trkpt>
      <trkpt lat="43.22627" lon="5.45418">
        <ele>380.2</ele>
        <time>2018-02-25T14:03:49Z</time>
      </trkpt>
      <trkpt lat="43.22633" lon="5.45424">
        <ele>380.4</ele>
        <time>2018-02-25T14:03:54Z</time>
      </trkpt>
      <trkpt lat="43.22637" lon="5.4543">
        <ele>381.2</ele>
        <time>2018-02-25T14:03:59Z</time>
      </trkpt>
      <trkpt lat="43.22642" lon="5.45438">
        <ele>378.2</ele>
        <time>2018-02-25T14:04:04Z</time>
      </trkpt>
      <trkpt lat="43.22648" lon="5.45444">
        <ele>378.4</ele>
        <time>2018-02-25T14:04:09Z</time>
      </trkpt>
      <trkpt lat="43.22652" lon="5.45447">
        <ele>378.2</ele>
        <time>2018-02-25T14:04:14Z</time>
      </trkpt>
      <trkpt lat="43.22657" lon="5.45448">
        <ele>379.2</ele>
        <time>2018-02-25T14:04:19Z</time>
      </trkpt>
      <trkpt lat="43.22663" lon="5.45448">
        <ele>379.4</ele>
        <time>2018-02-25T14:04:24Z</time>
      </trkpt>
      <trkpt lat="43.22668" lon="5.45447">
        <ele>378.4</ele>
        <time>2018-02-25T14:04:29Z</time>
      </trkpt>
      <trkpt lat="43.22674" lon="5.45446">
        <ele>376.8</ele>
        <time>2018-02-25T14:04:34Z</time>
      </trkpt>
      <trkpt lat="43.22679" lon="5.45446">
        <ele>377.2</ele>
        <time>2018-02-25T14:04:39Z</time>
      </trkpt>
      <trkpt lat="43.22684" lon="5.45446">
        <ele>377.8</ele>
        <time>2018-02-25T14:04:44Z</time>
      </trkpt>
      <trkpt lat="43.22689" lon="5.45447">
        <ele>377.2</ele>
        <time>2018-02-25T14:04:49Z</time>
      </trkpt>
      <trkpt lat="43.22694" lon="5.45447">
        <ele>378</ele>
        <time>2018-02-25T14:04:54Z</time>
      </trkpt>
      <trkpt lat="43.22699" lon="5.45449">
        <ele>377.6</ele>
        <time>2018-02-25T14:04:59Z</time>
      </trkpt>
      <trkpt lat="43.22703" lon="5.45453">
        <ele>378.4</ele>
        <time>2018-02-25T14:05:04Z</time>
      </trkpt>
      <trkpt lat="43.22707" lon="5.45458">
        <ele>376.8</ele>
        <time>2018-02-25T14:05:09Z</time>
      </trkpt>
      <trkpt lat="43.22711" lon="5.45463">
        <ele>378.2</ele>
        <time>2018-02-25T14:05:14Z</time>
      </trkpt>
      <trkpt lat="43.22713" lon="5.45471">
        <ele>377.6</ele>
        <time>2018-02-25T14:05:19Z</time>
      </trkpt>
      <trkpt lat="43.22714" lon="5.45478">
        <ele>378.4</ele>
        <time>2018-02-25T14:05:24Z</time>
      </trkpt>
      <trkpt lat="43.22715" lon="5.45485">
        <ele>376.2</ele>
        <time>2018-02-25T14:05:29Z</time>
      </trkpt>
      <trkpt lat="43.22717" lon="5.45492">
        <ele>378.6</ele>
        <time>2018-02-25T14:05:34Z</time>
      </trkpt>
      <trkpt lat="43.22718" lon="5.45499">
        <ele>379.4</ele>
        <time>2018-02-25T14:05:39Z</time>
      </trkpt>
      <trkpt lat="43.22719" lon="5.45505">
        <ele>380</ele>
        <time>2018-02-25T14:05:44Z</time>
      </trkpt>
      <trkpt lat="43.22721" lon="5.4551">
        <ele>378</ele>
        <time>2018-02-25T14:05:49Z</time>
      </trkpt>
      <trkpt lat="43.22725" lon="5.45515">
        <ele>380.2</ele>
        <time>2018-02-25T14:05:54Z</time>
      </trkpt>
      <trkpt lat="43.22729" lon="5.45517">
        <ele>380.2</ele>
        <time>2018-02-25T14:05:59Z</time>
      </trkpt>
      <trkpt lat="43.22733" lon="5.45518">
        <ele>382.4</ele>
        <time>2018-02-25T14:06:04Z</time>
      </trkpt>
      <trkpt lat="43.22737" lon="5.45517">
        <ele>380.4</ele>
        <time>2018-02-25T14:06:09Z</time>
      </trkpt>
      <trkpt lat="43.22742" lon="5.45517">
        <ele>380.2</ele>
        <time>2018-02-25T14:06:14Z</time>
      </trkpt>
      <trkpt lat="43.22745" lon="5.45515">
        <ele>383.2</ele>
        <time>2018-02-25T14:06:19Z</time>
      </trkpt>
      <trkpt lat="43.2275" lon="5.45514">
        <ele>381.2</ele>
        <time>2018-02-25T14:06:24Z</time>
      </trkpt>
      <trkpt lat="43.22753" lon="5.45507">
        <ele>385</ele>
        <time>2018-02-25T14:06:29Z</time>
      </trkpt>
      <trkpt lat="43.22757" lon="5.45505">
        <ele>382.4</ele>
        <time>2018-02-25T14:06:34Z</time>
      </trkpt>
      <trkpt lat="43.2276" lon="5.45502">
        <ele>383.8</ele>
        <time>2018-02-25T14:06:39Z</time>
      </trkpt>
      <trkpt lat="43.22764" lon="5.455">
        <ele>385.2</ele>
        <time>2018-02-25T14:06:44Z</time>
      </trkpt>
      <trkpt lat="43.22767" lon="5.45498">
        <ele>387.2</ele>
        <time>2018-02-25T14:06:49Z</time>
      </trkpt>
      <trkpt lat="43.22771" lon="5.45497">
        <ele>384.6</ele>
        <time>2018-02-25T14:06:54Z</time>
      </trkpt>
      <trkpt lat="43.22775" lon="5.45496">
        <ele>385.8</ele>
        <time>2018-02-25T14:06:59Z</time>
      </trkpt>
      <trkpt lat="43.2278" lon="5.45496">
        <ele>385.4</ele>
        <time>2018-02-25T14:07:04Z</time>
      </trkpt>
      <trkpt lat="43.22784" lon="5.45496">
        <ele>386.2</ele>
        <time>2018-02-25T14:07:09Z</time>
      </trkpt>
      <trkpt lat="43.22788" lon="5.45497">
        <ele>387.6</ele>
        <time>2018-02-25T14:07:14Z</time>
      </trkpt>
      <trkpt lat="43.22792" lon="5.45497">
        <ele>386.6</ele>
        <time>2018-02-25T14:07:19Z</time>
      </trkpt>
      <trkpt lat="43.22796" lon="5.45499">
        <ele>387.6</ele>
        <time>2018-02-25T14:07:24Z</time>
      </trkpt>
      <trkpt lat="43.228" lon="5.45502">
        <ele>385.6</ele>
        <time>2018-02-25T14:07:29Z</time>
      </trkpt>
      <trkpt lat="43.22804" lon="5.45503">
        <ele>387.2</ele>
        <time>2018-02-25T14:07:34Z</time>
      </trkpt>
      <trkpt lat="43.22808" lon="5.45505">
        <ele>388.8</ele>
        <time>2018-02-25T14:07:39Z</time>
      </trkpt>
      <trkpt lat="43.22812" lon="5.45507">
        <ele>390.2</ele>
        <time>2018-02-25T14:07:44Z</time>
      </trkpt>
      <trkpt lat="43.22816" lon="5.4551">
        <ele>390.4</ele>
        <time>2018-02-25T14:07:49Z</time>
      </trkpt>
      <trkpt lat="43.2282" lon="5.45514">
        <ele>390.6</ele>
        <time>2018-02-25T14:07:54Z</time>
      </trkpt>
      <trkpt lat="43.22825" lon="5.45519">
        <ele>389.8</ele>
        <time>2018-02-25T14:07:59Z</time>
      </trkpt>
      <trkpt lat="43.22829" lon="5.45524">
        <ele>389.4</ele>
        <time>2018-02-25T14:08:04Z</time>
      </trkpt>
      <trkpt lat="43.22832" lon="5.45529">
        <ele>391.8</ele>
        <time>2018-02-25T14:08:09Z</time>
      </trkpt>
      <trkpt lat="43.22837" lon="5.45533">
        <ele>393.2</ele>
        <time>2018-02-25T14:08:14Z</time>
      </trkpt>
      <trkpt lat="43.2284" lon="5.45537">
        <ele>391.4</ele>
        <time>2018-02-25T14:08:19Z</time>
      </trkpt>
      <trkpt lat="43.22844" lon="5.45541">
        <ele>392.2</ele>
        <time>2018-02-25T14:08:24Z</time>
      </trkpt>
      <trkpt lat="43.22848" lon="5.45547">
        <ele>391.4</ele>
        <time>2018-02-25T14:08:29Z</time>
      </trkpt>
      <trkpt lat="43.22851" lon="5.45552">
        <ele>392.2</ele>
        <time>2018-02-25T14:08:34Z</time>
      </trkpt>
      <trkpt lat="43.22854" lon="5.45558">
        <ele>392.4</ele>
        <time>2018-02-25T14:08:39Z</time>
      </trkpt>
      <trkpt lat="43.22855" lon="5.45565">
        <ele>392.4</ele>
        <time>2018-02-25T14:08:44Z</time>
      </trkpt>
      <trkpt lat="43.22857" lon="5.45572">
        <ele>390</ele>
        <time>2018-02-25T14:08:49Z</time>
      </trkpt>
      <trkpt lat="43.22859" lon="5.45579">
        <ele>390</ele>
        <time>2018-02-25T14:08:54Z</time>
      </trkpt>
      <trkpt lat="43.22861" lon="5.45585">
        <ele>390.4</ele>
        <time>2018-02-25T14:08:59Z</time>
      </trkpt>
      <trkpt lat="43.22863" lon="5.45591">
        <ele>393</ele>
        <time>2018-02-25T14:09:04Z</time>
      </trkpt>
      <trkpt lat="43.22863" lon="5.45592">
        <ele>392.6</ele>
        <time>2018-02-25T14:09:09Z</time>
      </trkpt>
      <trkpt lat="43.22865" lon="5.45599">
        <ele>393.2</ele>
        <time>2018-02-25T14:09:14Z</time>
      </trkpt>
      <trkpt lat="43.22868" lon="5.45605">
        <ele>392.8</ele>
        <time>2018-02-25T14:09:19Z</time>
      </trkpt>
      <trkpt lat="43.22871" lon="5.45611">
        <ele>394.8</ele>
        <time>2018-02-25T14:09:24Z</time>
      </trkpt>
      <trkpt lat="43.22875" lon="5.45617">
        <ele>393.6</ele>
        <time>2018-02-25T14:09:29Z</time>
      </trkpt>
      <trkpt lat="43.22878" lon="5.45624">
        <ele>392.6</ele>
        <time>2018-02-25T14:09:34Z</time>
      </trkpt>
      <trkpt lat="43.2288" lon="5.45632">
        <ele>392</ele>
        <time>2018-02-25T14:09:39Z</time>
      </trkpt>
      <trkpt lat="43.22882" lon="5.45639">
        <ele>394.2</ele>
        <time>2018-02-25T14:09:44Z</time>
      </trkpt>
      <trkpt lat="43.22883" lon="5.45647">
        <ele>393.6</ele>
        <time>2018-02-25T14:09:49Z</time>
      </trkpt>
      <trkpt lat="43.22883" lon="5.45654">
        <ele>392.2</ele>
        <time>2018-02-25T14:09:54Z</time>
      </trkpt>
      <trkpt lat="43.22881" lon="5.4566">
        <ele>392.8</ele>
        <time>2018-02-25T14:09:59Z</time>
      </trkpt>
      <trkpt lat="43.2288" lon="5.45667">
        <ele>389.2</ele>
        <time>2018-02-25T14:10:04Z</time>
      </trkpt>
      <trkpt lat="43.22879" lon="5.45674">
        <ele>389.6</ele>
        <time>2018-02-25T14:10:09Z</time>
      </trkpt>
      <trkpt lat="43.2288" lon="5.45682">
        <ele>391</ele>
        <time>2018-02-25T14:10:14Z</time>
      </trkpt>
      <trkpt lat="43.22881" lon="5.45689">
        <ele>388.6</ele>
        <time>2018-02-25T14:10:19Z</time>
      </trkpt>
      <trkpt lat="43.22883" lon="5.45696">
        <ele>387.6</ele>
        <time>2018-02-25T14:10:24Z</time>
      </trkpt>
      <trkpt lat="43.22885" lon="5.45703">
        <ele>388.6</ele>
        <time>2018-02-25T14:10:29Z</time>
      </trkpt>
      <trkpt lat="43.22885" lon="5.45712">
        <ele>387.8</ele>
        <time>2018-02-25T14:10:34Z</time>
      </trkpt>
      <trkpt lat="43.22885" lon="5.4572">
        <ele>387.2</ele>
        <time>2018-02-25T14:10:39Z</time>
      </trkpt>
      <trkpt lat="43.22887" lon="5.45727">
        <ele>385.6</ele>
        <time>2018-02-25T14:10:44Z</time>
      </trkpt>
      <trkpt lat="43.22891" lon="5.45734">
        <ele>384.4</ele>
        <time>2018-02-25T14:10:49Z</time>
      </trkpt>
      <trkpt lat="43.22894" lon="5.45743">
        <ele>387</ele>
        <time>2018-02-25T14:10:54Z</time>
      </trkpt>
      <trkpt lat="43.22897" lon="5.45751">
        <ele>384</ele>
        <time>2018-02-25T14:10:59Z</time>
      </trkpt>
      <trkpt lat="43.22899" lon="5.45759">
        <ele>384.8</ele>
        <time>2018-02-25T14:11:04Z</time>
      </trkpt>
      <trkpt lat="43.22901" lon="5.45767">
        <ele>384.2</ele>
        <time>2018-02-25T14:11:09Z</time>
      </trkpt>
      <trkpt lat="43.22902" lon="5.45776">
        <ele>382.4</ele>
        <time>2018-02-25T14:11:14Z</time>
      </trkpt>
      <trkpt lat="43.22903" lon="5.45785">
        <ele>384.8</ele>
        <time>2018-02-25T14:11:19Z</time>
      </trkpt>
      <trkpt lat="43.22904" lon="5.45792">
        <ele>383.6</ele>
        <time>2018-02-25T14:11:24Z</time>
      </trkpt>
      <trkpt lat="43.22908" lon="5.45798">
        <ele>383</ele>
        <time>2018-02-25T14:11:29Z</time>
      </trkpt>
      <trkpt lat="43.22913" lon="5.45804">
        <ele>381.8</ele>
        <time>2018-02-25T14:11:34Z</time>
      </trkpt>
      <trkpt lat="43.22917" lon="5.4581">
        <ele>383</ele>
        <time>2018-02-25T14:11:39Z</time>
      </trkpt>
      <trkpt lat="43.22922" lon="5.45816">
        <ele>380.8</ele>
        <time>2018-02-25T14:11:44Z</time>
      </trkpt>
      <trkpt lat="43.22926" lon="5.45822">
        <ele>381.2</ele>
        <time>2018-02-25T14:11:49Z</time>
      </trkpt>
      <trkpt lat="43.22929" lon="5.45829">
        <ele>381.4</ele>
        <time>2018-02-25T14:11:54Z</time>
      </trkpt>
      <trkpt lat="43.22931" lon="5.45836">
        <ele>379.2</ele>
        <time>2018-02-25T14:11:59Z</time>
      </trkpt>
      <trkpt lat="43.22932" lon="5.45844">
        <ele>379.8</ele>
        <time>2018-02-25T14:12:04Z</time>
      </trkpt>
      <trkpt lat="43.22931" lon="5.45852">
        <ele>377.8</ele>
        <time>2018-02-25T14:12:09Z</time>
      </trkpt>
      <trkpt lat="43.22929" lon="5.45859">
        <ele>377</ele>
        <time>2018-02-25T14:12:14Z</time>
      </trkpt>
      <trkpt lat="43.22926" lon="5.45866">
        <ele>377.6</ele>
        <time>2018-02-25T14:12:19Z</time>
      </trkpt>
      <trkpt lat="43.22923" lon="5.45873">
        <ele>378.2</ele>
        <time>2018-02-25T14:12:24Z</time>
      </trkpt>
      <trkpt lat="43.22919" lon="5.4588">
        <ele>379.4</ele>
        <time>2018-02-25T14:12:29Z</time>
      </trkpt>
      <trkpt lat="43.22915" lon="5.45887">
        <ele>378.4</ele>
        <time>2018-02-25T14:12:34Z</time>
      </trkpt>
      <trkpt lat="43.22912" lon="5.45893">
        <ele>379.6</ele>
        <time>2018-02-25T14:12:39Z</time>
      </trkpt>
      <trkpt lat="43.22908" lon="5.45898">
        <ele>380.8</ele>
        <time>2018-02-25T14:12:44Z</time>
      </trkpt>
      <trkpt lat="43.22907" lon="5.45905">
        <ele>379.4</ele>
        <time>2018-02-25T14:12:49Z</time>
      </trkpt>
      <trkpt lat="43.22906" lon="5.45913">
        <ele>380</ele>
        <time>2018-02-25T14:12:54Z</time>
      </trkpt>
      <trkpt lat="43.22905" lon="5.45921">
        <ele>380.2</ele>
        <time>2018-02-25T14:12:59Z</time>
      </trkpt>
      <trkpt lat="43.22903" lon="5.4593">
        <ele>385.4</ele>
        <time>2018-02-25T14:13:04Z</time>
      </trkpt>
      <trkpt lat="43.22905" lon="5.45937">
        <ele>382.2</ele>
        <time>2018-02-25T14:13:09Z</time>
      </trkpt>
      <trkpt lat="43.22908" lon="5.45942">
        <ele>381</ele>
        <time>2018-02-25T14:13:14Z</time>
      </trkpt>
      <trkpt lat="43.22913" lon="5.45947">
        <ele>383</ele>
        <time>2018-02-25T14:13:19Z</time>
      </trkpt>
      <trkpt lat="43.22918" lon="5.45951">
        <ele>384.8</ele>
        <time>2018-02-25T14:13:24Z</time>
      </trkpt>
      <trkpt lat="43.22924" lon="5.45956">
        <ele>384.4</ele>
        <time>2018-02-25T14:13:29Z</time>
      </trkpt>
      <trkpt lat="43.22929" lon="5.45962">
        <ele>385.8</ele>
        <time>2018-02-25T14:13:34Z</time>
      </trkpt>
      <trkpt lat="43.22934" lon="5.4597">
        <ele>385.4</ele>
        <time>2018-02-25T14:13:39Z</time>
      </trkpt>
      <trkpt lat="43.2294" lon="5.45978">
        <ele>387</ele>
        <time>2018-02-25T14:13:44Z</time>
      </trkpt>
      <trkpt lat="43.22946" lon="5.45985">
        <ele>386.8</ele>
        <time>2018-02-25T14:13:49Z</time>
      </trkpt>
      <trkpt lat="43.22951" lon="5.45991">
        <ele>385.4</ele>
        <time>2018-02-25T14:13:54Z</time>
      </trkpt>
      <trkpt lat="43.22955" lon="5.45997">
        <ele>387.4</ele>
        <time>2018-02-25T14:13:59Z</time>
      </trkpt>
      <trkpt lat="43.2296" lon="5.46004">
        <ele>383.4</ele>
        <time>2018-02-25T14:14:04Z</time>
      </trkpt>
      <trkpt lat="43.22965" lon="5.4601">
        <ele>384.8</ele>
        <time>2018-02-25T14:14:09Z</time>
      </trkpt>
      <trkpt lat="43.22969" lon="5.46017">
        <ele>381.8</ele>
        <time>2018-02-25T14:14:14Z</time>
      </trkpt>
      <trkpt lat="43.22973" lon="5.46024">
        <ele>380.4</ele>
        <time>2018-02-25T14:14:19Z</time>
      </trkpt>
      <trkpt lat="43.22976" lon="5.46031">
        <ele>378.8</ele>
        <time>2018-02-25T14:14:24Z</time>
      </trkpt>
      <trkpt lat="43.22978" lon="5.46039">
        <ele>376.6</ele>
        <time>2018-02-25T14:14:29Z</time>
      </trkpt>
      <trkpt lat="43.2298" lon="5.46046">
        <ele>378</ele>
        <time>2018-02-25T14:14:34Z</time>
      </trkpt>
      <trkpt lat="43.22981" lon="5.46054">
        <ele>377.2</ele>
        <time>2018-02-25T14:14:39Z</time>
      </trkpt>
      <trkpt lat="43.22983" lon="5.46061">
        <ele>376</ele>
        <time>2018-02-25T14:14:44Z</time>
      </trkpt>
      <trkpt lat="43.22985" lon="5.46068">
        <ele>377.4</ele>
        <time>2018-02-25T14:14:49Z</time>
      </trkpt>
      <trkpt lat="43.22986" lon="5.46074">
        <ele>375</ele>
        <time>2018-02-25T14:14:54Z</time>
      </trkpt>
      <trkpt lat="43.22987" lon="5.46076">
        <ele>374.2</ele>
        <time>2018-02-25T14:14:59Z</time>
      </trkpt>
      <trkpt lat="43.22988" lon="5.46081">
        <ele>373.4</ele>
        <time>2018-02-25T14:15:04Z</time>
      </trkpt>
      <trkpt lat="43.2299" lon="5.46088">
        <ele>372.2</ele>
        <time>2018-02-25T14:15:09Z</time>
      </trkpt>
      <trkpt lat="43.22992" lon="5.46095">
        <ele>373.8</ele>
        <time>2018-02-25T14:15:14Z</time>
      </trkpt>
      <trkpt lat="43.22994" lon="5.46102">
        <ele>373.2</ele>
        <time>2018-02-25T14:15:19Z</time>
      </trkpt>
      <trkpt lat="43.22997" lon="5.46109">
        <ele>371.4</ele>
        <time>2018-02-25T14:15:24Z</time>
      </trkpt>
      <trkpt lat="43.22999" lon="5.46116">
        <ele>374.2</ele>
        <time>2018-02-25T14:15:29Z</time>
      </trkpt>
      <trkpt lat="43.23002" lon="5.46123">
        <ele>374.2</ele>
        <time>2018-02-25T14:15:34Z</time>
      </trkpt>
      <trkpt lat="43.23005" lon="5.4613">
        <ele>370.6</ele>
        <time>2018-02-25T14:15:39Z</time>
      </trkpt>
      <trkpt lat="43.23008" lon="5.46137">
        <ele>372.4</ele>
        <time>2018-02-25T14:15:44Z</time>
      </trkpt>
      <trkpt lat="43.23012" lon="5.46143">
        <ele>373.6</ele>
        <time>2018-02-25T14:15:49Z</time>
      </trkpt>
      <trkpt lat="43.23016" lon="5.46149">
        <ele>371.8</ele>
        <time>2018-02-25T14:15:54Z</time>
      </trkpt>
      <trkpt lat="43.23018" lon="5.46157">
        <ele>370.4</ele>
        <time>2018-02-25T14:15:59Z</time>
      </trkpt>
      <trkpt lat="43.2302" lon="5.46163">
        <ele>371.6</ele>
        <time>2018-02-25T14:16:04Z</time>
      </trkpt>
      <trkpt lat="43.23021" lon="5.4617">
        <ele>370</ele>
        <time>2018-02-25T14:16:09Z</time>
      </trkpt>
      <trkpt lat="43.23022" lon="5.46177">
        <ele>371.8</ele>
        <time>2018-02-25T14:16:14Z</time>
      </trkpt>
      <trkpt lat="43.23023" lon="5.46184">
        <ele>369.6</ele>
        <time>2018-02-25T14:16:19Z</time>
      </trkpt>
      <trkpt lat="43.23023" lon="5.46191">
        <ele>367</ele>
        <time>2018-02-25T14:16:24Z</time>
      </trkpt>
      <trkpt lat="43.23024" lon="5.46198">
        <ele>367</ele>
        <time>2018-02-25T14:16:29Z</time>
      </trkpt>
      <trkpt lat="43.23024" lon="5.46205">
        <ele>367</ele>
        <time>2018-02-25T14:16:34Z</time>
      </trkpt>
      <trkpt lat="43.23024" lon="5.46212">
        <ele>367.4</ele>
        <time>2018-02-25T14:16:39Z</time>
      </trkpt>
      <trkpt lat="43.23024" lon="5.46218">
        <ele>369.6</ele>
        <time>2018-02-25T14:16:44Z</time>
      </trkpt>
      <trkpt lat="43.23024" lon="5.46224">
        <ele>364.8</ele>
        <time>2018-02-25T14:16:49Z</time>
      </trkpt>
      <trkpt lat="43.23024" lon="5.46232">
        <ele>365.4</ele>
        <time>2018-02-25T14:16:54Z</time>
      </trkpt>
      <trkpt lat="43.23023" lon="5.46239">
        <ele>364.6</ele>
        <time>2018-02-25T14:16:59Z</time>
      </trkpt>
      <trkpt lat="43.23023" lon="5.46244">
        <ele>365.6</ele>
        <time>2018-02-25T14:17:04Z</time>
      </trkpt>
      <trkpt lat="43.23024" lon="5.4625">
        <ele>365</ele>
        <time>2018-02-25T14:17:09Z</time>
      </trkpt>
      <trkpt lat="43.23024" lon="5.46257">
        <ele>363.2</ele>
        <time>2018-02-25T14:17:14Z</time>
      </trkpt>
      <trkpt lat="43.23024" lon="5.46264">
        <ele>362.2</ele>
        <time>2018-02-25T14:17:19Z</time>
      </trkpt>
      <trkpt lat="43.23024" lon="5.4627">
        <ele>363.6</ele>
        <time>2018-02-25T14:17:24Z</time>
      </trkpt>
      <trkpt lat="43.23024" lon="5.46277">
        <ele>362.4</ele>
        <time>2018-02-25T14:17:29Z</time>
      </trkpt>
      <trkpt lat="43.23023" lon="5.46284">
        <ele>362.2</ele>
        <time>2018-02-25T14:17:34Z</time>
      </trkpt>
      <trkpt lat="43.23022" lon="5.4629">
        <ele>357</ele>
        <time>2018-02-25T14:17:39Z</time>
      </trkpt>
      <trkpt lat="43.2302" lon="5.46297">
        <ele>360.2</ele>
        <time>2018-02-25T14:17:44Z</time>
      </trkpt>
      <trkpt lat="43.23019" lon="5.46305">
        <ele>360</ele>
        <time>2018-02-25T14:17:49Z</time>
      </trkpt>
      <trkpt lat="43.23016" lon="5.46311">
        <ele>359.6</ele>
        <time>2018-02-25T14:17:54Z</time>
      </trkpt>
      <trkpt lat="43.23014" lon="5.46318">
        <ele>357.4</ele>
        <time>2018-02-25T14:17:59Z</time>
      </trkpt>
      <trkpt lat="43.23013" lon="5.46323">
        <ele>356.4</ele>
        <time>2018-02-25T14:18:04Z</time>
      </trkpt>
      <trkpt lat="43.23011" lon="5.46332">
        <ele>356.4</ele>
        <time>2018-02-25T14:18:09Z</time>
      </trkpt>
      <trkpt lat="43.23009" lon="5.46339">
        <ele>355.4</ele>
        <time>2018-02-25T14:18:14Z</time>
      </trkpt>
      <trkpt lat="43.23007" lon="5.46347">
        <ele>354</ele>
        <time>2018-02-25T14:18:19Z</time>
      </trkpt>
      <trkpt lat="43.23004" lon="5.46354">
        <ele>352</ele>
        <time>2018-02-25T14:18:24Z</time>
      </trkpt>
      <trkpt lat="43.23001" lon="5.4636">
        <ele>350.2</ele>
        <time>2018-02-25T14:18:29Z</time>
      </trkpt>
      <trkpt lat="43.22997" lon="5.46366">
        <ele>350.2</ele>
        <time>2018-02-25T14:18:34Z</time>
      </trkpt>
      <trkpt lat="43.22992" lon="5.46371">
        <ele>347.8</ele>
        <time>2018-02-25T14:18:39Z</time>
      </trkpt>
      <trkpt lat="43.22987" lon="5.46376">
        <ele>350.6</ele>
        <time>2018-02-25T14:18:44Z</time>
      </trkpt>
      <trkpt lat="43.22984" lon="5.46381">
        <ele>347.6</ele>
        <time>2018-02-25T14:18:49Z</time>
      </trkpt>
      <trkpt lat="43.22981" lon="5.46387">
        <ele>349.4</ele>
        <time>2018-02-25T14:18:54Z</time>
      </trkpt>
      <trkpt lat="43.22977" lon="5.46391">
        <ele>347</ele>
        <time>2018-02-25T14:18:59Z</time>
      </trkpt>
      <trkpt lat="43.22974" lon="5.46396">
        <ele>346.4</ele>
        <time>2018-02-25T14:19:04Z</time>
      </trkpt>
      <trkpt lat="43.22972" lon="5.464">
        <ele>343.2</ele>
        <time>2018-02-25T14:19:09Z</time>
      </trkpt>
      <trkpt lat="43.22969" lon="5.46404">
        <ele>342.6</ele>
        <time>2018-02-25T14:19:14Z</time>
      </trkpt>
      <trkpt lat="43.22965" lon="5.46409">
        <ele>340.2</ele>
        <time>2018-02-25T14:19:19Z</time>
      </trkpt>
      <trkpt lat="43.2296" lon="5.46414">
        <ele>342.4</ele>
        <time>2018-02-25T14:19:24Z</time>
      </trkpt>
      <trkpt lat="43.22956" lon="5.46418">
        <ele>344.8</ele>
        <time>2018-02-25T14:19:29Z</time>
      </trkpt>
      <trkpt lat="43.22951" lon="5.46421">
        <ele>341.8</ele>
        <time>2018-02-25T14:19:34Z</time>
      </trkpt>
      <trkpt lat="43.22946" lon="5.46424">
        <ele>338.2</ele>
        <time>2018-02-25T14:19:39Z</time>
      </trkpt>
      <trkpt lat="43.22942" lon="5.46427">
        <ele>338.8</ele>
        <time>2018-02-25T14:19:44Z</time>
      </trkpt>
      <trkpt lat="43.22938" lon="5.46429">
        <ele>337.4</ele>
        <time>2018-02-25T14:19:49Z</time>
      </trkpt>
      <trkpt lat="43.22934" lon="5.46433">
        <ele>337.2</ele>
        <time>2018-02-25T14:19:54Z</time>
      </trkpt>
      <trkpt lat="43.2293" lon="5.46436">
        <ele>337</ele>
        <time>2018-02-25T14:19:59Z</time>
      </trkpt>
      <trkpt lat="43.22927" lon="5.46439">
        <ele>335.2</ele>
        <time>2018-02-25T14:20:04Z</time>
      </trkpt>
      <trkpt lat="43.22923" lon="5.46441">
        <ele>336</ele>
        <time>2018-02-25T14:20:09Z</time>
      </trkpt>
      <trkpt lat="43.2292" lon="5.46446">
        <ele>333.8</ele>
        <time>2018-02-25T14:20:14Z</time>
      </trkpt>
      <trkpt lat="43.22916" lon="5.46449">
        <ele>334.4</ele>
        <time>2018-02-25T14:20:19Z</time>
      </trkpt>
      <trkpt lat="43.22911" lon="5.46453">
        <ele>332.8</ele>
        <time>2018-02-25T14:20:24Z</time>
      </trkpt>
      <trkpt lat="43.22906" lon="5.46457">
        <ele>334.2</ele>
        <time>2018-02-25T14:20:29Z</time>
      </trkpt>
      <trkpt lat="43.22902" lon="5.4646">
        <ele>331</ele>
        <time>2018-02-25T14:20:34Z</time>
      </trkpt>
      <trkpt lat="43.22897" lon="5.46464">
        <ele>328.4</ele>
        <time>2018-02-25T14:20:39Z</time>
      </trkpt>
      <trkpt lat="43.22893" lon="5.46468">
        <ele>331.4</ele>
        <time>2018-02-25T14:20:44Z</time>
      </trkpt>
      <trkpt lat="43.22889" lon="5.46472">
        <ele>328.6</ele>
        <time>2018-02-25T14:20:49Z</time>
      </trkpt>
      <trkpt lat="43.22886" lon="5.46476">
        <ele>328.8</ele>
        <time>2018-02-25T14:20:54Z</time>
      </trkpt>
      <trkpt lat="43.22882" lon="5.46481">
        <ele>324.4</ele>
        <time>2018-02-25T14:20:59Z</time>
      </trkpt>
      <trkpt lat="43.22878" lon="5.46485">
        <ele>322.4</ele>
        <time>2018-02-25T14:21:04Z</time>
      </trkpt>
      <trkpt lat="43.22875" lon="5.46489">
        <ele>323.6</ele>
        <time>2018-02-25T14:21:09Z</time>
      </trkpt>
      <trkpt lat="43.22871" lon="5.46494">
        <ele>322.2</ele>
        <time>2018-02-25T14:21:14Z</time>
      </trkpt>
      <trkpt lat="43.22868" lon="5.465">
        <ele>322.6</ele>
        <time>2018-02-25T14:21:19Z</time>
      </trkpt>
      <trkpt lat="43.22866" lon="5.46504">
        <ele>319.6</ele>
        <time>2018-02-25T14:21:24Z</time>
      </trkpt>
      <trkpt lat="43.22862" lon="5.46508">
        <ele>316.6</ele>
        <time>2018-02-25T14:21:29Z</time>
      </trkpt>
      <trkpt lat="43.22859" lon="5.46514">
        <ele>316.8</ele>
        <time>2018-02-25T14:21:34Z</time>
      </trkpt>
      <trkpt lat="43.22856" lon="5.46518">
        <ele>317.6</ele>
        <time>2018-02-25T14:21:39Z</time>
      </trkpt>
      <trkpt lat="43.22854" lon="5.46523">
        <ele>315.4</ele>
        <time>2018-02-25T14:21:44Z</time>
      </trkpt>
      <trkpt lat="43.22851" lon="5.46528">
        <ele>316</ele>
        <time>2018-02-25T14:21:49Z</time>
      </trkpt>
      <trkpt lat="43.22849" lon="5.46534">
        <ele>312.6</ele>
        <time>2018-02-25T14:21:54Z</time>
      </trkpt>
      <trkpt lat="43.22846" lon="5.46539">
        <ele>312.4</ele>
        <time>2018-02-25T14:21:59Z</time>
      </trkpt>
      <trkpt lat="43.22843" lon="5.46544">
        <ele>311.8</ele>
        <time>2018-02-25T14:22:04Z</time>
      </trkpt>
      <trkpt lat="43.22841" lon="5.46546">
        <ele>310.4</ele>
        <time>2018-02-25T14:22:09Z</time>
      </trkpt>
      <trkpt lat="43.22838" lon="5.4655">
        <ele>311.6</ele>
        <time>2018-02-25T14:22:14Z</time>
      </trkpt>
      <trkpt lat="43.22836" lon="5.46554">
        <ele>309</ele>
        <time>2018-02-25T14:22:19Z</time>
      </trkpt>
      <trkpt lat="43.22833" lon="5.4656">
        <ele>306.8</ele>
        <time>2018-02-25T14:22:24Z</time>
      </trkpt>
      <trkpt lat="43.22831" lon="5.46566">
        <ele>306.2</ele>
        <time>2018-02-25T14:22:29Z</time>
      </trkpt>
      <trkpt lat="43.22829" lon="5.46572">
        <ele>303.8</ele>
        <time>2018-02-25T14:22:34Z</time>
      </trkpt>
      <trkpt lat="43.22827" lon="5.46579">
        <ele>303.8</ele>
        <time>2018-02-25T14:22:39Z</time>
      </trkpt>
      <trkpt lat="43.22825" lon="5.46586">
        <ele>302.4</ele>
        <time>2018-02-25T14:22:44Z</time>
      </trkpt>
      <trkpt lat="43.22823" lon="5.46593">
        <ele>304.2</ele>
        <time>2018-02-25T14:22:49Z</time>
      </trkpt>
      <trkpt lat="43.22821" lon="5.466">
        <ele>300.2</ele>
        <time>2018-02-25T14:22:54Z</time>
      </trkpt>
      <trkpt lat="43.22819" lon="5.46607">
        <ele>302.6</ele>
        <time>2018-02-25T14:22:59Z</time>
      </trkpt>
      <trkpt lat="43.22818" lon="5.46613">
        <ele>300.4</ele>
        <time>2018-02-25T14:23:04Z</time>
      </trkpt>
      <trkpt lat="43.22819" lon="5.46618">
        <ele>301.8</ele>
        <time>2018-02-25T14:23:09Z</time>
      </trkpt>
      <trkpt lat="43.22821" lon="5.46623">
        <ele>299.2</ele>
        <time>2018-02-25T14:23:14Z</time>
      </trkpt>
      <trkpt lat="43.22821" lon="5.46624">
        <ele>299</ele>
        <time>2018-02-25T14:23:24Z</time>
      </trkpt>
      <trkpt lat="43.22822" lon="5.46627">
        <ele>299.2</ele>
        <time>2018-02-25T14:23:29Z</time>
      </trkpt>
      <trkpt lat="43.22824" lon="5.46633">
        <ele>297</ele>
        <time>2018-02-25T14:23:34Z</time>
      </trkpt>
      <trkpt lat="43.22826" lon="5.4664">
        <ele>300.2</ele>
        <time>2018-02-25T14:23:39Z</time>
      </trkpt>
      <trkpt lat="43.22826" lon="5.46641">
        <ele>299.4</ele>
        <time>2018-02-25T14:23:44Z</time>
      </trkpt>
      <trkpt lat="43.22827" lon="5.46649">
        <ele>297</ele>
        <time>2018-02-25T14:23:49Z</time>
      </trkpt>
      <trkpt lat="43.22828" lon="5.46656">
        <ele>298.4</ele>
        <time>2018-02-25T14:23:54Z</time>
      </trkpt>
      <trkpt lat="43.2283" lon="5.46663">
        <ele>295.8</ele>
        <time>2018-02-25T14:23:59Z</time>
      </trkpt>
      <trkpt lat="43.22832" lon="5.4667">
        <ele>297.8</ele>
        <time>2018-02-25T14:24:04Z</time>
      </trkpt>
      <trkpt lat="43.22833" lon="5.46676">
        <ele>296.4</ele>
        <time>2018-02-25T14:24:09Z</time>
      </trkpt>
      <trkpt lat="43.22836" lon="5.46682">
        <ele>294.2</ele>
        <time>2018-02-25T14:24:14Z</time>
      </trkpt>
      <trkpt lat="43.22837" lon="5.46689">
        <ele>291.8</ele>
        <time>2018-02-25T14:24:19Z</time>
      </trkpt>
      <trkpt lat="43.22838" lon="5.46698">
        <ele>292</ele>
        <time>2018-02-25T14:24:24Z</time>
      </trkpt>
      <trkpt lat="43.22835" lon="5.46702">
        <ele>291.6</ele>
        <time>2018-02-25T14:24:29Z</time>
      </trkpt>
      <trkpt lat="43.22832" lon="5.46705">
        <ele>290.8</ele>
        <time>2018-02-25T14:24:34Z</time>
      </trkpt>
      <trkpt lat="43.22828" lon="5.46709">
        <ele>289.2</ele>
        <time>2018-02-25T14:24:39Z</time>
      </trkpt>
      <trkpt lat="43.22824" lon="5.46712">
        <ele>293.6</ele>
        <time>2018-02-25T14:24:44Z</time>
      </trkpt>
      <trkpt lat="43.22818" lon="5.46716">
        <ele>292.4</ele>
        <time>2018-02-25T14:24:49Z</time>
      </trkpt>
      <trkpt lat="43.22814" lon="5.4672">
        <ele>290.8</ele>
        <time>2018-02-25T14:24:54Z</time>
      </trkpt>
      <trkpt lat="43.2281" lon="5.46724">
        <ele>297.4</ele>
        <time>2018-02-25T14:24:59Z</time>
      </trkpt>
      <trkpt lat="43.22807" lon="5.46728">
        <ele>293.2</ele>
        <time>2018-02-25T14:25:04Z</time>
      </trkpt>
      <trkpt lat="43.22803" lon="5.46732">
        <ele>296.4</ele>
        <time>2018-02-25T14:25:09Z</time>
      </trkpt>
      <trkpt lat="43.22798" lon="5.46739">
        <ele>298.6</ele>
        <time>2018-02-25T14:25:14Z</time>
      </trkpt>
      <trkpt lat="43.22794" lon="5.46744">
        <ele>299.2</ele>
        <time>2018-02-25T14:25:19Z</time>
      </trkpt>
      <trkpt lat="43.22789" lon="5.46748">
        <ele>295.8</ele>
        <time>2018-02-25T14:25:24Z</time>
      </trkpt>
      <trkpt lat="43.22784" lon="5.46752">
        <ele>299</ele>
        <time>2018-02-25T14:25:29Z</time>
      </trkpt>
      <trkpt lat="43.22779" lon="5.46757">
        <ele>297.4</ele>
        <time>2018-02-25T14:25:34Z</time>
      </trkpt>
      <trkpt lat="43.22773" lon="5.46761">
        <ele>299</ele>
        <time>2018-02-25T14:25:39Z</time>
      </trkpt>
      <trkpt lat="43.22768" lon="5.46764">
        <ele>298.4</ele>
        <time>2018-02-25T14:25:44Z</time>
      </trkpt>
      <trkpt lat="43.22764" lon="5.46766">
        <ele>299</ele>
        <time>2018-02-25T14:25:49Z</time>
      </trkpt>
      <trkpt lat="43.2276" lon="5.46768">
        <ele>298.8</ele>
        <time>2018-02-25T14:25:54Z</time>
      </trkpt>
      <trkpt lat="43.22757" lon="5.46772">
        <ele>299.8</ele>
        <time>2018-02-25T14:25:59Z</time>
      </trkpt>
      <trkpt lat="43.22752" lon="5.46774">
        <ele>301.6</ele>
        <time>2018-02-25T14:26:04Z</time>
      </trkpt>
      <trkpt lat="43.22748" lon="5.46777">
        <ele>300.6</ele>
        <time>2018-02-25T14:26:09Z</time>
      </trkpt>
      <trkpt lat="43.22743" lon="5.46783">
        <ele>301.6</ele>
        <time>2018-02-25T14:26:14Z</time>
      </trkpt>
      <trkpt lat="43.22737" lon="5.46788">
        <ele>302.4</ele>
        <time>2018-02-25T14:26:19Z</time>
      </trkpt>
      <trkpt lat="43.22732" lon="5.4679">
        <ele>303</ele>
        <time>2018-02-25T14:26:24Z</time>
      </trkpt>
      <trkpt lat="43.22731" lon="5.4679">
        <ele>302.8</ele>
        <time>2018-02-25T14:26:29Z</time>
      </trkpt>
      <trkpt lat="43.22731" lon="5.46791">
        <ele>302.8</ele>
        <time>2018-02-25T14:26:34Z</time>
      </trkpt>
      <trkpt lat="43.22726" lon="5.4679">
        <ele>304</ele>
        <time>2018-02-25T14:26:39Z</time>
      </trkpt>
      <trkpt lat="43.22722" lon="5.4679">
        <ele>305.4</ele>
        <time>2018-02-25T14:26:44Z</time>
      </trkpt>
      <trkpt lat="43.22719" lon="5.4679">
        <ele>304.8</ele>
        <time>2018-02-25T14:26:49Z</time>
      </trkpt>
      <trkpt lat="43.22717" lon="5.46792">
        <ele>307</ele>
        <time>2018-02-25T14:27:04Z</time>
      </trkpt>
      <trkpt lat="43.22715" lon="5.46792">
        <ele>307.8</ele>
        <time>2018-02-25T14:27:09Z</time>
      </trkpt>
      <trkpt lat="43.2271" lon="5.46792">
        <ele>311</ele>
        <time>2018-02-25T14:27:14Z</time>
      </trkpt>
      <trkpt lat="43.22705" lon="5.46794">
        <ele>312.2</ele>
        <time>2018-02-25T14:27:19Z</time>
      </trkpt>
      <trkpt lat="43.227" lon="5.46794">
        <ele>311.6</ele>
        <time>2018-02-25T14:27:24Z</time>
      </trkpt>
      <trkpt lat="43.22696" lon="5.46794">
        <ele>310.6</ele>
        <time>2018-02-25T14:27:29Z</time>
      </trkpt>
      <trkpt lat="43.22694" lon="5.46792">
        <ele>308.2</ele>
        <time>2018-02-25T14:27:34Z</time>
      </trkpt>
      <trkpt lat="43.2269" lon="5.46792">
        <ele>310.4</ele>
        <time>2018-02-25T14:27:39Z</time>
      </trkpt>
      <trkpt lat="43.22685" lon="5.46792">
        <ele>313</ele>
        <time>2018-02-25T14:27:44Z</time>
      </trkpt>
      <trkpt lat="43.22682" lon="5.46793">
        <ele>313.8</ele>
        <time>2018-02-25T14:27:49Z</time>
      </trkpt>
      <trkpt lat="43.22677" lon="5.46791">
        <ele>312.2</ele>
        <time>2018-02-25T14:27:54Z</time>
      </trkpt>
      <trkpt lat="43.22668" lon="5.46788">
        <ele>319.2</ele>
        <time>2018-02-25T14:29:04Z</time>
      </trkpt>
      <trkpt lat="43.22662" lon="5.46785">
        <ele>315.6</ele>
        <time>2018-02-25T14:29:09Z</time>
      </trkpt>
      <trkpt lat="43.22657" lon="5.4678">
        <ele>318.6</ele>
        <time>2018-02-25T14:29:14Z</time>
      </trkpt>
      <trkpt lat="43.22653" lon="5.46779">
        <ele>316.4</ele>
        <time>2018-02-25T14:29:19Z</time>
      </trkpt>
      <trkpt lat="43.22653" lon="5.46777">
        <ele>316.2</ele>
        <time>2018-02-25T14:29:24Z</time>
      </trkpt>
      <trkpt lat="43.22649" lon="5.46778">
        <ele>318.2</ele>
        <time>2018-02-25T14:29:29Z</time>
      </trkpt>
      <trkpt lat="43.22646" lon="5.4678">
        <ele>316.2</ele>
        <time>2018-02-25T14:29:34Z</time>
      </trkpt>
      <trkpt lat="43.22644" lon="5.4678">
        <ele>317.2</ele>
        <time>2018-02-25T14:29:39Z</time>
      </trkpt>
      <trkpt lat="43.2264" lon="5.46782">
        <ele>320.2</ele>
        <time>2018-02-25T14:29:44Z</time>
      </trkpt>
      <trkpt lat="43.22636" lon="5.46783">
        <ele>318.4</ele>
        <time>2018-02-25T14:29:49Z</time>
      </trkpt>
      <trkpt lat="43.22631" lon="5.46786">
        <ele>317</ele>
        <time>2018-02-25T14:29:54Z</time>
      </trkpt>
      <trkpt lat="43.22624" lon="5.46788">
        <ele>320</ele>
        <time>2018-02-25T14:29:59Z</time>
      </trkpt>
      <trkpt lat="43.22619" lon="5.46789">
        <ele>320</ele>
        <time>2018-02-25T14:30:04Z</time>
      </trkpt>
      <trkpt lat="43.22614" lon="5.46789">
        <ele>322.6</ele>
        <time>2018-02-25T14:30:09Z</time>
      </trkpt>
      <trkpt lat="43.22609" lon="5.46785">
        <ele>323</ele>
        <time>2018-02-25T14:30:14Z</time>
      </trkpt>
      <trkpt lat="43.22605" lon="5.4678">
        <ele>323.2</ele>
        <time>2018-02-25T14:30:19Z</time>
      </trkpt>
      <trkpt lat="43.22601" lon="5.46775">
        <ele>325.8</ele>
        <time>2018-02-25T14:30:24Z</time>
      </trkpt>
      <trkpt lat="43.22598" lon="5.46773">
        <ele>324</ele>
        <time>2018-02-25T14:30:29Z</time>
      </trkpt>
      <trkpt lat="43.22594" lon="5.4677">
        <ele>326.8</ele>
        <time>2018-02-25T14:30:34Z</time>
      </trkpt>
      <trkpt lat="43.22591" lon="5.46769">
        <ele>327.2</ele>
        <time>2018-02-25T14:30:39Z</time>
      </trkpt>
      <trkpt lat="43.22588" lon="5.46767">
        <ele>325.6</ele>
        <time>2018-02-25T14:30:44Z</time>
      </trkpt>
      <trkpt lat="43.22587" lon="5.46761">
        <ele>324.8</ele>
        <time>2018-02-25T14:30:49Z</time>
      </trkpt>
      <trkpt lat="43.22585" lon="5.46758">
        <ele>326.4</ele>
        <time>2018-02-25T14:30:54Z</time>
      </trkpt>
      <trkpt lat="43.22582" lon="5.46758">
        <ele>327</ele>
        <time>2018-02-25T14:30:59Z</time>
      </trkpt>
      <trkpt lat="43.22581" lon="5.46755">
        <ele>326.2</ele>
        <time>2018-02-25T14:31:04Z</time>
      </trkpt>
      <trkpt lat="43.22579" lon="5.46754">
        <ele>325</ele>
        <time>2018-02-25T14:31:09Z</time>
      </trkpt>
      <trkpt lat="43.22578" lon="5.46751">
        <ele>325.2</ele>
        <time>2018-02-25T14:31:14Z</time>
      </trkpt>
      <trkpt lat="43.22576" lon="5.46747">
        <ele>326</ele>
        <time>2018-02-25T14:31:19Z</time>
      </trkpt>
      <trkpt lat="43.22576" lon="5.46738">
        <ele>322.8</ele>
        <time>2018-02-25T14:31:25Z</time>
      </trkpt>
      <trkpt lat="43.22572" lon="5.46733">
        <ele>324</ele>
        <time>2018-02-25T14:31:30Z</time>
      </trkpt>
      <trkpt lat="43.22568" lon="5.4673">
        <ele>322.4</ele>
        <time>2018-02-25T14:31:35Z</time>
      </trkpt>
      <trkpt lat="43.22566" lon="5.46727">
        <ele>323</ele>
        <time>2018-02-25T14:31:40Z</time>
      </trkpt>
      <trkpt lat="43.22564" lon="5.46723">
        <ele>324</ele>
        <time>2018-02-25T14:31:45Z</time>
      </trkpt>
      <trkpt lat="43.22561" lon="5.46723">
        <ele>324.8</ele>
        <time>2018-02-25T14:31:50Z</time>
      </trkpt>
      <trkpt lat="43.22558" lon="5.46722">
        <ele>324.6</ele>
        <time>2018-02-25T14:31:55Z</time>
      </trkpt>
      <trkpt lat="43.22555" lon="5.46721">
        <ele>328.8</ele>
        <time>2018-02-25T14:32:00Z</time>
      </trkpt>
      <trkpt lat="43.22552" lon="5.4672">
        <ele>327.2</ele>
        <time>2018-02-25T14:32:05Z</time>
      </trkpt>
      <trkpt lat="43.22548" lon="5.4672">
        <ele>328.2</ele>
        <time>2018-02-25T14:32:10Z</time>
      </trkpt>
      <trkpt lat="43.22545" lon="5.46721">
        <ele>329.6</ele>
        <time>2018-02-25T14:32:15Z</time>
      </trkpt>
      <trkpt lat="43.22544" lon="5.46719">
        <ele>329.8</ele>
        <time>2018-02-25T14:32:20Z</time>
      </trkpt>
      <trkpt lat="43.22541" lon="5.46717">
        <ele>330.2</ele>
        <time>2018-02-25T14:32:25Z</time>
      </trkpt>
      <trkpt lat="43.2254" lon="5.46713">
        <ele>329</ele>
        <time>2018-02-25T14:32:30Z</time>
      </trkpt>
      <trkpt lat="43.22539" lon="5.4671">
        <ele>331.2</ele>
        <time>2018-02-25T14:32:35Z</time>
      </trkpt>
      <trkpt lat="43.22539" lon="5.46706">
        <ele>332.4</ele>
        <time>2018-02-25T14:32:40Z</time>
      </trkpt>
      <trkpt lat="43.22539" lon="5.46703">
        <ele>332.6</ele>
        <time>2018-02-25T14:32:45Z</time>
      </trkpt>
      <trkpt lat="43.22537" lon="5.46703">
        <ele>334</ele>
        <time>2018-02-25T14:32:50Z</time>
      </trkpt>
      <trkpt lat="43.22534" lon="5.46703">
        <ele>334.6</ele>
        <time>2018-02-25T14:32:55Z</time>
      </trkpt>
      <trkpt lat="43.22533" lon="5.46702">
        <ele>335.2</ele>
        <time>2018-02-25T14:33:00Z</time>
      </trkpt>
      <trkpt lat="43.22532" lon="5.467">
        <ele>334.6</ele>
        <time>2018-02-25T14:33:05Z</time>
      </trkpt>
      <trkpt lat="43.22531" lon="5.46699">
        <ele>334.6</ele>
        <time>2018-02-25T14:33:10Z</time>
      </trkpt>
      <trkpt lat="43.2253" lon="5.46699">
        <ele>335</ele>
        <time>2018-02-25T14:33:15Z</time>
      </trkpt>
      <trkpt lat="43.2253" lon="5.46695">
        <ele>334.8</ele>
        <time>2018-02-25T14:33:20Z</time>
      </trkpt>
      <trkpt lat="43.22529" lon="5.46692">
        <ele>337</ele>
        <time>2018-02-25T14:33:25Z</time>
      </trkpt>
      <trkpt lat="43.22529" lon="5.46688">
        <ele>334.4</ele>
        <time>2018-02-25T14:33:30Z</time>
      </trkpt>
      <trkpt lat="43.22529" lon="5.46685">
        <ele>335</ele>
        <time>2018-02-25T14:33:35Z</time>
      </trkpt>
      <trkpt lat="43.22528" lon="5.46683">
        <ele>335.8</ele>
        <time>2018-02-25T14:33:40Z</time>
      </trkpt>
      <trkpt lat="43.22528" lon="5.46681">
        <ele>336.6</ele>
        <time>2018-02-25T14:33:45Z</time>
      </trkpt>
      <trkpt lat="43.22527" lon="5.46679">
        <ele>335.4</ele>
        <time>2018-02-25T14:33:50Z</time>
      </trkpt>
      <trkpt lat="43.22526" lon="5.46677">
        <ele>336.6</ele>
        <time>2018-02-25T14:33:55Z</time>
      </trkpt>
      <trkpt lat="43.22525" lon="5.46675">
        <ele>335.6</ele>
        <time>2018-02-25T14:34:00Z</time>
      </trkpt>
      <trkpt lat="43.22525" lon="5.46675">
        <ele>337.2</ele>
        <time>2018-02-25T14:34:05Z</time>
      </trkpt>
      <trkpt lat="43.22523" lon="5.46674">
        <ele>340</ele>
        <time>2018-02-25T14:34:10Z</time>
      </trkpt>
      <trkpt lat="43.2252" lon="5.46672">
        <ele>339.2</ele>
        <time>2018-02-25T14:34:15Z</time>
      </trkpt>
      <trkpt lat="43.22519" lon="5.4667">
        <ele>342.8</ele>
        <time>2018-02-25T14:34:20Z</time>
      </trkpt>
      <trkpt lat="43.22518" lon="5.46669">
        <ele>340.4</ele>
        <time>2018-02-25T14:34:25Z</time>
      </trkpt>
      <trkpt lat="43.22516" lon="5.46668">
        <ele>343.2</ele>
        <time>2018-02-25T14:34:30Z</time>
      </trkpt>
      <trkpt lat="43.22514" lon="5.46667">
        <ele>346.4</ele>
        <time>2018-02-25T14:34:35Z</time>
      </trkpt>
      <trkpt lat="43.22512" lon="5.46666">
        <ele>345.6</ele>
        <time>2018-02-25T14:34:40Z</time>
      </trkpt>
      <trkpt lat="43.22511" lon="5.46666">
        <ele>345.2</ele>
        <time>2018-02-25T14:34:45Z</time>
      </trkpt>
      <trkpt lat="43.22511" lon="5.46665">
        <ele>345.6</ele>
        <time>2018-02-25T14:34:50Z</time>
      </trkpt>
      <trkpt lat="43.2251" lon="5.46663">
        <ele>348.6</ele>
        <time>2018-02-25T14:34:55Z</time>
      </trkpt>
      <trkpt lat="43.22509" lon="5.46661">
        <ele>349.2</ele>
        <time>2018-02-25T14:35:00Z</time>
      </trkpt>
      <trkpt lat="43.22508" lon="5.46658">
        <ele>349.2</ele>
        <time>2018-02-25T14:35:05Z</time>
      </trkpt>
      <trkpt lat="43.22507" lon="5.46655">
        <ele>350.6</ele>
        <time>2018-02-25T14:35:10Z</time>
      </trkpt>
      <trkpt lat="43.22506" lon="5.46654">
        <ele>355.2</ele>
        <time>2018-02-25T14:35:15Z</time>
      </trkpt>
      <trkpt lat="43.22504" lon="5.46652">
        <ele>356.4</ele>
        <time>2018-02-25T14:35:20Z</time>
      </trkpt>
      <trkpt lat="43.22504" lon="5.46652">
        <ele>355.8</ele>
        <time>2018-02-25T14:35:25Z</time>
      </trkpt>
      <trkpt lat="43.22503" lon="5.46651">
        <ele>356</ele>
        <time>2018-02-25T14:35:30Z</time>
      </trkpt>
      <trkpt lat="43.22504" lon="5.46647">
        <ele>356.6</ele>
        <time>2018-02-25T14:35:35Z</time>
      </trkpt>
      <trkpt lat="43.22502" lon="5.46645">
        <ele>354.4</ele>
        <time>2018-02-25T14:35:40Z</time>
      </trkpt>
      <trkpt lat="43.225" lon="5.46644">
        <ele>357.8</ele>
        <time>2018-02-25T14:35:45Z</time>
      </trkpt>
      <trkpt lat="43.22498" lon="5.46643">
        <ele>356.2</ele>
        <time>2018-02-25T14:35:50Z</time>
      </trkpt>
      <trkpt lat="43.22497" lon="5.46642">
        <ele>357.6</ele>
        <time>2018-02-25T14:35:55Z</time>
      </trkpt>
      <trkpt lat="43.22496" lon="5.46643">
        <ele>357.2</ele>
        <time>2018-02-25T14:36:00Z</time>
      </trkpt>
      <trkpt lat="43.22494" lon="5.46642">
        <ele>358.6</ele>
        <time>2018-02-25T14:36:05Z</time>
      </trkpt>
      <trkpt lat="43.22493" lon="5.46642">
        <ele>359.6</ele>
        <time>2018-02-25T14:36:10Z</time>
      </trkpt>
      <trkpt lat="43.22492" lon="5.46642">
        <ele>360.2</ele>
        <time>2018-02-25T14:36:15Z</time>
      </trkpt>
      <trkpt lat="43.22491" lon="5.46641">
        <ele>361.8</ele>
        <time>2018-02-25T14:36:21Z</time>
      </trkpt>
      <trkpt lat="43.22489" lon="5.46639">
        <ele>364.4</ele>
        <time>2018-02-25T14:36:26Z</time>
      </trkpt>
      <trkpt lat="43.22488" lon="5.46636">
        <ele>367</ele>
        <time>2018-02-25T14:36:31Z</time>
      </trkpt>
      <trkpt lat="43.22487" lon="5.46633">
        <ele>367.2</ele>
        <time>2018-02-25T14:36:46Z</time>
      </trkpt>
      <trkpt lat="43.22488" lon="5.46631">
        <ele>367.2</ele>
        <time>2018-02-25T14:37:06Z</time>
      </trkpt>
      <trkpt lat="43.22486" lon="5.46629">
        <ele>367.8</ele>
        <time>2018-02-25T14:37:11Z</time>
      </trkpt>
      <trkpt lat="43.22485" lon="5.46629">
        <ele>368.6</ele>
        <time>2018-02-25T14:37:16Z</time>
      </trkpt>
      <trkpt lat="43.22483" lon="5.46626">
        <ele>369.4</ele>
        <time>2018-02-25T14:37:26Z</time>
      </trkpt>
      <trkpt lat="43.2248" lon="5.46626">
        <ele>370</ele>
        <time>2018-02-25T14:37:36Z</time>
      </trkpt>
      <trkpt lat="43.22477" lon="5.46625">
        <ele>372.6</ele>
        <time>2018-02-25T14:37:41Z</time>
      </trkpt>
      <trkpt lat="43.22475" lon="5.46624">
        <ele>372.4</ele>
        <time>2018-02-25T14:37:46Z</time>
      </trkpt>
      <trkpt lat="43.22473" lon="5.46624">
        <ele>372.2</ele>
        <time>2018-02-25T14:37:51Z</time>
      </trkpt>
      <trkpt lat="43.22473" lon="5.46624">
        <ele>372.6</ele>
        <time>2018-02-25T14:37:56Z</time>
      </trkpt>
      <trkpt lat="43.22472" lon="5.46624">
        <ele>372.6</ele>
        <time>2018-02-25T14:38:21Z</time>
      </trkpt>
      <trkpt lat="43.22472" lon="5.46624">
        <ele>372.6</ele>
        <time>2018-02-25T14:38:26Z</time>
      </trkpt>
      <trkpt lat="43.22472" lon="5.46622">
        <ele>372.6</ele>
        <time>2018-02-25T14:38:31Z</time>
      </trkpt>
      <trkpt lat="43.22471" lon="5.46621">
        <ele>373.2</ele>
        <time>2018-02-25T14:38:36Z</time>
      </trkpt>
      <trkpt lat="43.2247" lon="5.4662">
        <ele>372.4</ele>
        <time>2018-02-25T14:39:01Z</time>
      </trkpt>
      <trkpt lat="43.2247" lon="5.4662">
        <ele>372.6</ele>
        <time>2018-02-25T14:39:16Z</time>
      </trkpt>
      <trkpt lat="43.22469" lon="5.46619">
        <ele>372.6</ele>
        <time>2018-02-25T14:39:21Z</time>
      </trkpt>
      <trkpt lat="43.22468" lon="5.46617">
        <ele>375.2</ele>
        <time>2018-02-25T14:39:26Z</time>
      </trkpt>
      <trkpt lat="43.22465" lon="5.46615">
        <ele>374.2</ele>
        <time>2018-02-25T14:39:31Z</time>
      </trkpt>
      <trkpt lat="43.22464" lon="5.46613">
        <ele>372.8</ele>
        <time>2018-02-25T14:39:36Z</time>
      </trkpt>
      <trkpt lat="43.22461" lon="5.46612">
        <ele>374.4</ele>
        <time>2018-02-25T14:39:41Z</time>
      </trkpt>
      <trkpt lat="43.22459" lon="5.46612">
        <ele>377.4</ele>
        <time>2018-02-25T14:39:46Z</time>
      </trkpt>
      <trkpt lat="43.22457" lon="5.4661">
        <ele>377.8</ele>
        <time>2018-02-25T14:39:51Z</time>
      </trkpt>
      <trkpt lat="43.22456" lon="5.46608">
        <ele>377.2</ele>
        <time>2018-02-25T14:39:56Z</time>
      </trkpt>
      <trkpt lat="43.22455" lon="5.46606">
        <ele>380</ele>
        <time>2018-02-25T14:40:01Z</time>
      </trkpt>
      <trkpt lat="43.22453" lon="5.46604">
        <ele>380.2</ele>
        <time>2018-02-25T14:40:06Z</time>
      </trkpt>
      <trkpt lat="43.2245" lon="5.46601">
        <ele>381.4</ele>
        <time>2018-02-25T14:40:11Z</time>
      </trkpt>
      <trkpt lat="43.22447" lon="5.46596">
        <ele>382.4</ele>
        <time>2018-02-25T14:40:16Z</time>
      </trkpt>
      <trkpt lat="43.22444" lon="5.46593">
        <ele>379.6</ele>
        <time>2018-02-25T14:40:21Z</time>
      </trkpt>
      <trkpt lat="43.22441" lon="5.46591">
        <ele>382</ele>
        <time>2018-02-25T14:40:26Z</time>
      </trkpt>
      <trkpt lat="43.22438" lon="5.46589">
        <ele>380.4</ele>
        <time>2018-02-25T14:40:31Z</time>
      </trkpt>
      <trkpt lat="43.22435" lon="5.46587">
        <ele>383.4</ele>
        <time>2018-02-25T14:40:36Z</time>
      </trkpt>
      <trkpt lat="43.22433" lon="5.46586">
        <ele>384.2</ele>
        <time>2018-02-25T14:40:41Z</time>
      </trkpt>
      <trkpt lat="43.22431" lon="5.46584">
        <ele>384</ele>
        <time>2018-02-25T14:40:46Z</time>
      </trkpt>
      <trkpt lat="43.2243" lon="5.46582">
        <ele>387.4</ele>
        <time>2018-02-25T14:40:51Z</time>
      </trkpt>
      <trkpt lat="43.22428" lon="5.4658">
        <ele>387.4</ele>
        <time>2018-02-25T14:40:57Z</time>
      </trkpt>
      <trkpt lat="43.22427" lon="5.46578">
        <ele>387.4</ele>
        <time>2018-02-25T14:41:02Z</time>
      </trkpt>
      <trkpt lat="43.22425" lon="5.46577">
        <ele>388.4</ele>
        <time>2018-02-25T14:41:07Z</time>
      </trkpt>
      <trkpt lat="43.22425" lon="5.46573">
        <ele>389</ele>
        <time>2018-02-25T14:41:12Z</time>
      </trkpt>
      <trkpt lat="43.22422" lon="5.4657">
        <ele>390.6</ele>
        <time>2018-02-25T14:41:17Z</time>
      </trkpt>
      <trkpt lat="43.2242" lon="5.46567">
        <ele>392.2</ele>
        <time>2018-02-25T14:41:22Z</time>
      </trkpt>
      <trkpt lat="43.2242" lon="5.46562">
        <ele>394.6</ele>
        <time>2018-02-25T14:41:27Z</time>
      </trkpt>
      <trkpt lat="43.2242" lon="5.4656">
        <ele>392.4</ele>
        <time>2018-02-25T14:41:32Z</time>
      </trkpt>
      <trkpt lat="43.22418" lon="5.46556">
        <ele>394</ele>
        <time>2018-02-25T14:41:37Z</time>
      </trkpt>
      <trkpt lat="43.22417" lon="5.46554">
        <ele>393.6</ele>
        <time>2018-02-25T14:41:42Z</time>
      </trkpt>
      <trkpt lat="43.22417" lon="5.46553">
        <ele>392.8</ele>
        <time>2018-02-25T14:42:02Z</time>
      </trkpt>
      <trkpt lat="43.22416" lon="5.46552">
        <ele>392.6</ele>
        <time>2018-02-25T14:42:47Z</time>
      </trkpt>
      <trkpt lat="43.22414" lon="5.46549">
        <ele>394.4</ele>
        <time>2018-02-25T14:43:37Z</time>
      </trkpt>
      <trkpt lat="43.22412" lon="5.46543">
        <ele>391.8</ele>
        <time>2018-02-25T14:43:42Z</time>
      </trkpt>
      <trkpt lat="43.22409" lon="5.46539">
        <ele>393.2</ele>
        <time>2018-02-25T14:43:47Z</time>
      </trkpt>
      <trkpt lat="43.22407" lon="5.46535">
        <ele>392.2</ele>
        <time>2018-02-25T14:43:52Z</time>
      </trkpt>
      <trkpt lat="43.22404" lon="5.46532">
        <ele>394</ele>
        <time>2018-02-25T14:43:57Z</time>
      </trkpt>
      <trkpt lat="43.22401" lon="5.46529">
        <ele>395.2</ele>
        <time>2018-02-25T14:44:02Z</time>
      </trkpt>
      <trkpt lat="43.22399" lon="5.46526">
        <ele>395.4</ele>
        <time>2018-02-25T14:44:07Z</time>
      </trkpt>
      <trkpt lat="43.22396" lon="5.46521">
        <ele>396.2</ele>
        <time>2018-02-25T14:44:12Z</time>
      </trkpt>
      <trkpt lat="43.22394" lon="5.46517">
        <ele>397</ele>
        <time>2018-02-25T14:44:17Z</time>
      </trkpt>
      <trkpt lat="43.2239" lon="5.46514">
        <ele>397.2</ele>
        <time>2018-02-25T14:44:22Z</time>
      </trkpt>
      <trkpt lat="43.22386" lon="5.46511">
        <ele>398.8</ele>
        <time>2018-02-25T14:44:27Z</time>
      </trkpt>
      <trkpt lat="43.22383" lon="5.46509">
        <ele>397.4</ele>
        <time>2018-02-25T14:44:32Z</time>
      </trkpt>
      <trkpt lat="43.2238" lon="5.46506">
        <ele>399.4</ele>
        <time>2018-02-25T14:44:37Z</time>
      </trkpt>
      <trkpt lat="43.22377" lon="5.46503">
        <ele>401</ele>
        <time>2018-02-25T14:44:42Z</time>
      </trkpt>
      <trkpt lat="43.22374" lon="5.465">
        <ele>399.6</ele>
        <time>2018-02-25T14:44:47Z</time>
      </trkpt>
      <trkpt lat="43.22372" lon="5.46497">
        <ele>401.6</ele>
        <time>2018-02-25T14:44:52Z</time>
      </trkpt>
      <trkpt lat="43.22369" lon="5.46494">
        <ele>403.2</ele>
        <time>2018-02-25T14:44:57Z</time>
      </trkpt>
      <trkpt lat="43.22367" lon="5.46492">
        <ele>401.2</ele>
        <time>2018-02-25T14:45:02Z</time>
      </trkpt>
      <trkpt lat="43.22367" lon="5.46488">
        <ele>403.4</ele>
        <time>2018-02-25T14:45:07Z</time>
      </trkpt>
      <trkpt lat="43.22367" lon="5.46485">
        <ele>404.6</ele>
        <time>2018-02-25T14:45:12Z</time>
      </trkpt>
      <trkpt lat="43.22365" lon="5.46484">
        <ele>404.8</ele>
        <time>2018-02-25T14:45:17Z</time>
      </trkpt>
      <trkpt lat="43.22363" lon="5.46481">
        <ele>405.4</ele>
        <time>2018-02-25T14:45:22Z</time>
      </trkpt>
      <trkpt lat="43.2236" lon="5.46482">
        <ele>407</ele>
        <time>2018-02-25T14:45:27Z</time>
      </trkpt>
      <trkpt lat="43.22357" lon="5.46484">
        <ele>407.8</ele>
        <time>2018-02-25T14:45:32Z</time>
      </trkpt>
      <trkpt lat="43.22355" lon="5.46484">
        <ele>405.8</ele>
        <time>2018-02-25T14:45:37Z</time>
      </trkpt>
      <trkpt lat="43.22352" lon="5.46483">
        <ele>407.6</ele>
        <time>2018-02-25T14:45:42Z</time>
      </trkpt>
      <trkpt lat="43.2235" lon="5.46482">
        <ele>408.8</ele>
        <time>2018-02-25T14:45:47Z</time>
      </trkpt>
      <trkpt lat="43.22348" lon="5.46478">
        <ele>411</ele>
        <time>2018-02-25T14:45:52Z</time>
      </trkpt>
      <trkpt lat="43.22344" lon="5.46475">
        <ele>408.8</ele>
        <time>2018-02-25T14:45:57Z</time>
      </trkpt>
      <trkpt lat="43.22341" lon="5.4647">
        <ele>411</ele>
        <time>2018-02-25T14:46:02Z</time>
      </trkpt>
      <trkpt lat="43.22338" lon="5.46466">
        <ele>410</ele>
        <time>2018-02-25T14:46:07Z</time>
      </trkpt>
      <trkpt lat="43.22337" lon="5.4646">
        <ele>413</ele>
        <time>2018-02-25T14:46:12Z</time>
      </trkpt>
      <trkpt lat="43.22334" lon="5.46457">
        <ele>412.8</ele>
        <time>2018-02-25T14:46:17Z</time>
      </trkpt>
      <trkpt lat="43.2233" lon="5.46457">
        <ele>414.2</ele>
        <time>2018-02-25T14:46:22Z</time>
      </trkpt>
      <trkpt lat="43.22326" lon="5.46456">
        <ele>414.2</ele>
        <time>2018-02-25T14:46:27Z</time>
      </trkpt>
      <trkpt lat="43.22324" lon="5.46455">
        <ele>415.6</ele>
        <time>2018-02-25T14:46:32Z</time>
      </trkpt>
      <trkpt lat="43.22322" lon="5.46456">
        <ele>415.8</ele>
        <time>2018-02-25T14:46:37Z</time>
      </trkpt>
      <trkpt lat="43.2232" lon="5.46454">
        <ele>420.6</ele>
        <time>2018-02-25T14:46:42Z</time>
      </trkpt>
      <trkpt lat="43.22317" lon="5.4645">
        <ele>418</ele>
        <time>2018-02-25T14:46:47Z</time>
      </trkpt>
      <trkpt lat="43.22314" lon="5.46447">
        <ele>419.8</ele>
        <time>2018-02-25T14:46:52Z</time>
      </trkpt>
      <trkpt lat="43.22311" lon="5.46444">
        <ele>421.2</ele>
        <time>2018-02-25T14:46:57Z</time>
      </trkpt>
      <trkpt lat="43.22309" lon="5.46442">
        <ele>419.6</ele>
        <time>2018-02-25T14:47:02Z</time>
      </trkpt>
      <trkpt lat="43.22307" lon="5.4644">
        <ele>419</ele>
        <time>2018-02-25T14:47:07Z</time>
      </trkpt>
      <trkpt lat="43.22304" lon="5.46436">
        <ele>419.6</ele>
        <time>2018-02-25T14:47:12Z</time>
      </trkpt>
      <trkpt lat="43.22302" lon="5.46433">
        <ele>421</ele>
        <time>2018-02-25T14:47:17Z</time>
      </trkpt>
      <trkpt lat="43.22299" lon="5.46432">
        <ele>421.8</ele>
        <time>2018-02-25T14:47:22Z</time>
      </trkpt>
      <trkpt lat="43.22297" lon="5.4643">
        <ele>422.2</ele>
        <time>2018-02-25T14:47:27Z</time>
      </trkpt>
      <trkpt lat="43.22294" lon="5.46427">
        <ele>423.2</ele>
        <time>2018-02-25T14:47:32Z</time>
      </trkpt>
      <trkpt lat="43.22291" lon="5.46424">
        <ele>423</ele>
        <time>2018-02-25T14:47:37Z</time>
      </trkpt>
      <trkpt lat="43.22288" lon="5.46421">
        <ele>425.6</ele>
        <time>2018-02-25T14:47:42Z</time>
      </trkpt>
      <trkpt lat="43.22285" lon="5.4642">
        <ele>426.8</ele>
        <time>2018-02-25T14:47:47Z</time>
      </trkpt>
      <trkpt lat="43.22282" lon="5.46418">
        <ele>426.6</ele>
        <time>2018-02-25T14:47:52Z</time>
      </trkpt>
      <trkpt lat="43.22279" lon="5.46418">
        <ele>425</ele>
        <time>2018-02-25T14:47:57Z</time>
      </trkpt>
      <trkpt lat="43.22275" lon="5.46417">
        <ele>427</ele>
        <time>2018-02-25T14:48:02Z</time>
      </trkpt>
      <trkpt lat="43.22275" lon="5.46413">
        <ele>427.6</ele>
        <time>2018-02-25T14:48:07Z</time>
      </trkpt>
      <trkpt lat="43.22271" lon="5.46411">
        <ele>426.6</ele>
        <time>2018-02-25T14:48:17Z</time>
      </trkpt>
      <trkpt lat="43.22269" lon="5.46411">
        <ele>428.2</ele>
        <time>2018-02-25T14:48:22Z</time>
      </trkpt>
      <trkpt lat="43.22266" lon="5.46413">
        <ele>428</ele>
        <time>2018-02-25T14:48:27Z</time>
      </trkpt>
      <trkpt lat="43.22265" lon="5.46412">
        <ele>430</ele>
        <time>2018-02-25T14:48:32Z</time>
      </trkpt>
      <trkpt lat="43.22263" lon="5.4641">
        <ele>430.8</ele>
        <time>2018-02-25T14:48:37Z</time>
      </trkpt>
      <trkpt lat="43.22259" lon="5.46409">
        <ele>432.6</ele>
        <time>2018-02-25T14:48:42Z</time>
      </trkpt>
      <trkpt lat="43.22256" lon="5.46406">
        <ele>433.2</ele>
        <time>2018-02-25T14:48:47Z</time>
      </trkpt>
      <trkpt lat="43.22253" lon="5.46406">
        <ele>433.6</ele>
        <time>2018-02-25T14:48:52Z</time>
      </trkpt>
      <trkpt lat="43.2225" lon="5.46404">
        <ele>433</ele>
        <time>2018-02-25T14:48:57Z</time>
      </trkpt>
      <trkpt lat="43.22248" lon="5.464">
        <ele>438.2</ele>
        <time>2018-02-25T14:49:02Z</time>
      </trkpt>
      <trkpt lat="43.22246" lon="5.46396">
        <ele>436.2</ele>
        <time>2018-02-25T14:49:07Z</time>
      </trkpt>
      <trkpt lat="43.22243" lon="5.46396">
        <ele>438.6</ele>
        <time>2018-02-25T14:49:12Z</time>
      </trkpt>
      <trkpt lat="43.2224" lon="5.46395">
        <ele>440.8</ele>
        <time>2018-02-25T14:49:17Z</time>
      </trkpt>
      <trkpt lat="43.22237" lon="5.46396">
        <ele>439.4</ele>
        <time>2018-02-25T14:49:22Z</time>
      </trkpt>
      <trkpt lat="43.22234" lon="5.46395">
        <ele>438.6</ele>
        <time>2018-02-25T14:49:27Z</time>
      </trkpt>
      <trkpt lat="43.22232" lon="5.46393">
        <ele>441.8</ele>
        <time>2018-02-25T14:49:32Z</time>
      </trkpt>
      <trkpt lat="43.22229" lon="5.46391">
        <ele>443</ele>
        <time>2018-02-25T14:49:37Z</time>
      </trkpt>
      <trkpt lat="43.22227" lon="5.46392">
        <ele>442.4</ele>
        <time>2018-02-25T14:49:42Z</time>
      </trkpt>
      <trkpt lat="43.22224" lon="5.46394">
        <ele>445.6</ele>
        <time>2018-02-25T14:49:47Z</time>
      </trkpt>
      <trkpt lat="43.2222" lon="5.46396">
        <ele>445</ele>
        <time>2018-02-25T14:49:52Z</time>
      </trkpt>
      <trkpt lat="43.22218" lon="5.46397">
        <ele>444.8</ele>
        <time>2018-02-25T14:49:57Z</time>
      </trkpt>
      <trkpt lat="43.22215" lon="5.46397">
        <ele>449.6</ele>
        <time>2018-02-25T14:50:02Z</time>
      </trkpt>
      <trkpt lat="43.22213" lon="5.46397">
        <ele>449.4</ele>
        <time>2018-02-25T14:50:07Z</time>
      </trkpt>
      <trkpt lat="43.22212" lon="5.46399">
        <ele>450.8</ele>
        <time>2018-02-25T14:50:12Z</time>
      </trkpt>
      <trkpt lat="43.2221" lon="5.464">
        <ele>449.6</ele>
        <time>2018-02-25T14:50:17Z</time>
      </trkpt>
      <trkpt lat="43.22208" lon="5.46401">
        <ele>449.2</ele>
        <time>2018-02-25T14:50:22Z</time>
      </trkpt>
      <trkpt lat="43.22205" lon="5.464">
        <ele>451.2</ele>
        <time>2018-02-25T14:50:27Z</time>
      </trkpt>
      <trkpt lat="43.22203" lon="5.46397">
        <ele>452.2</ele>
        <time>2018-02-25T14:50:32Z</time>
      </trkpt>
      <trkpt lat="43.222" lon="5.46396">
        <ele>452.4</ele>
        <time>2018-02-25T14:50:37Z</time>
      </trkpt>
      <trkpt lat="43.22197" lon="5.46397">
        <ele>451.4</ele>
        <time>2018-02-25T14:50:42Z</time>
      </trkpt>
      <trkpt lat="43.22194" lon="5.46398">
        <ele>454.6</ele>
        <time>2018-02-25T14:50:47Z</time>
      </trkpt>
      <trkpt lat="43.22191" lon="5.46396">
        <ele>453.8</ele>
        <time>2018-02-25T14:50:52Z</time>
      </trkpt>
      <trkpt lat="43.22189" lon="5.46396">
        <ele>454.4</ele>
        <time>2018-02-25T14:50:57Z</time>
      </trkpt>
      <trkpt lat="43.22186" lon="5.46397">
        <ele>457.6</ele>
        <time>2018-02-25T14:51:02Z</time>
      </trkpt>
      <trkpt lat="43.22183" lon="5.46398">
        <ele>458</ele>
        <time>2018-02-25T14:51:07Z</time>
      </trkpt>
      <trkpt lat="43.22181" lon="5.46398">
        <ele>458.8</ele>
        <time>2018-02-25T14:51:12Z</time>
      </trkpt>
      <trkpt lat="43.22178" lon="5.46398">
        <ele>458.6</ele>
        <time>2018-02-25T14:51:17Z</time>
      </trkpt>
      <trkpt lat="43.22176" lon="5.46399">
        <ele>462.8</ele>
        <time>2018-02-25T14:51:22Z</time>
      </trkpt>
      <trkpt lat="43.22174" lon="5.46398">
        <ele>460</ele>
        <time>2018-02-25T14:51:27Z</time>
      </trkpt>
      <trkpt lat="43.22172" lon="5.46397">
        <ele>464.6</ele>
        <time>2018-02-25T14:51:32Z</time>
      </trkpt>
      <trkpt lat="43.2217" lon="5.46397">
        <ele>464.6</ele>
        <time>2018-02-25T14:51:37Z</time>
      </trkpt>
      <trkpt lat="43.22167" lon="5.46396">
        <ele>464.8</ele>
        <time>2018-02-25T14:51:42Z</time>
      </trkpt>
      <trkpt lat="43.22165" lon="5.46396">
        <ele>464.8</ele>
        <time>2018-02-25T14:51:47Z</time>
      </trkpt>
      <trkpt lat="43.22162" lon="5.46397">
        <ele>466</ele>
        <time>2018-02-25T14:51:52Z</time>
      </trkpt>
      <trkpt lat="43.2216" lon="5.46397">
        <ele>467.6</ele>
        <time>2018-02-25T14:51:57Z</time>
      </trkpt>
      <trkpt lat="43.22159" lon="5.46396">
        <ele>465.2</ele>
        <time>2018-02-25T14:52:02Z</time>
      </trkpt>
      <trkpt lat="43.22157" lon="5.46398">
        <ele>467.8</ele>
        <time>2018-02-25T14:52:07Z</time>
      </trkpt>
      <trkpt lat="43.22152" lon="5.464">
        <ele>466.8</ele>
        <time>2018-02-25T14:52:17Z</time>
      </trkpt>
      <trkpt lat="43.2215" lon="5.46397">
        <ele>467.8</ele>
        <time>2018-02-25T14:52:22Z</time>
      </trkpt>
      <trkpt lat="43.22148" lon="5.46394">
        <ele>467.4</ele>
        <time>2018-02-25T14:52:27Z</time>
      </trkpt>
      <trkpt lat="43.22146" lon="5.46392">
        <ele>470</ele>
        <time>2018-02-25T14:52:32Z</time>
      </trkpt>
      <trkpt lat="43.22143" lon="5.46394">
        <ele>471.2</ele>
        <time>2018-02-25T14:52:37Z</time>
      </trkpt>
      <trkpt lat="43.22141" lon="5.46396">
        <ele>472.4</ele>
        <time>2018-02-25T14:52:42Z</time>
      </trkpt>
      <trkpt lat="43.2214" lon="5.46398">
        <ele>473.4</ele>
        <time>2018-02-25T14:52:47Z</time>
      </trkpt>
      <trkpt lat="43.22138" lon="5.46397">
        <ele>474.8</ele>
        <time>2018-02-25T14:52:52Z</time>
      </trkpt>
      <trkpt lat="43.22134" lon="5.46395">
        <ele>475.6</ele>
        <time>2018-02-25T14:53:02Z</time>
      </trkpt>
      <trkpt lat="43.22133" lon="5.46395">
        <ele>475.8</ele>
        <time>2018-02-25T14:53:07Z</time>
      </trkpt>
      <trkpt lat="43.22131" lon="5.46394">
        <ele>474</ele>
        <time>2018-02-25T14:53:12Z</time>
      </trkpt>
      <trkpt lat="43.22129" lon="5.46396">
        <ele>477.4</ele>
        <time>2018-02-25T14:53:17Z</time>
      </trkpt>
      <trkpt lat="43.22127" lon="5.46397">
        <ele>475.6</ele>
        <time>2018-02-25T14:53:22Z</time>
      </trkpt>
      <trkpt lat="43.22126" lon="5.46396">
        <ele>473.6</ele>
        <time>2018-02-25T14:53:27Z</time>
      </trkpt>
      <trkpt lat="43.22124" lon="5.46395">
        <ele>475.6</ele>
        <time>2018-02-25T14:53:32Z</time>
      </trkpt>
      <trkpt lat="43.22122" lon="5.46396">
        <ele>476.8</ele>
        <time>2018-02-25T14:53:37Z</time>
      </trkpt>
      <trkpt lat="43.22121" lon="5.46395">
        <ele>480.4</ele>
        <time>2018-02-25T14:53:42Z</time>
      </trkpt>
      <trkpt lat="43.22118" lon="5.46394">
        <ele>479.2</ele>
        <time>2018-02-25T14:53:47Z</time>
      </trkpt>
      <trkpt lat="43.22116" lon="5.46394">
        <ele>480.6</ele>
        <time>2018-02-25T14:53:52Z</time>
      </trkpt>
      <trkpt lat="43.22114" lon="5.46394">
        <ele>483</ele>
        <time>2018-02-25T14:53:57Z</time>
      </trkpt>
      <trkpt lat="43.22111" lon="5.46394">
        <ele>484.4</ele>
        <time>2018-02-25T14:54:02Z</time>
      </trkpt>
      <trkpt lat="43.22109" lon="5.46393">
        <ele>481.6</ele>
        <time>2018-02-25T14:54:07Z</time>
      </trkpt>
      <trkpt lat="43.22107" lon="5.46393">
        <ele>484.6</ele>
        <time>2018-02-25T14:54:12Z</time>
      </trkpt>
      <trkpt lat="43.22105" lon="5.46393">
        <ele>484.8</ele>
        <time>2018-02-25T14:54:17Z</time>
      </trkpt>
      <trkpt lat="43.22103" lon="5.46393">
        <ele>484.4</ele>
        <time>2018-02-25T14:54:22Z</time>
      </trkpt>
      <trkpt lat="43.22101" lon="5.46393">
        <ele>484</ele>
        <time>2018-02-25T14:54:27Z</time>
      </trkpt>
      <trkpt lat="43.22099" lon="5.46391">
        <ele>483.8</ele>
        <time>2018-02-25T14:54:32Z</time>
      </trkpt>
      <trkpt lat="43.22098" lon="5.4639">
        <ele>488.2</ele>
        <time>2018-02-25T14:54:37Z</time>
      </trkpt>
      <trkpt lat="43.22096" lon="5.46389">
        <ele>487.6</ele>
        <time>2018-02-25T14:54:42Z</time>
      </trkpt>
      <trkpt lat="43.22094" lon="5.46388">
        <ele>490.8</ele>
        <time>2018-02-25T14:54:47Z</time>
      </trkpt>
      <trkpt lat="43.22092" lon="5.46389">
        <ele>490.4</ele>
        <time>2018-02-25T14:54:52Z</time>
      </trkpt>
      <trkpt lat="43.2209" lon="5.4639">
        <ele>487.6</ele>
        <time>2018-02-25T14:54:57Z</time>
      </trkpt>
      <trkpt lat="43.22089" lon="5.46388">
        <ele>487.8</ele>
        <time>2018-02-25T14:55:02Z</time>
      </trkpt>
      <trkpt lat="43.22087" lon="5.46385">
        <ele>490</ele>
        <time>2018-02-25T14:55:07Z</time>
      </trkpt>
      <trkpt lat="43.22085" lon="5.46384">
        <ele>492.4</ele>
        <time>2018-02-25T14:55:12Z</time>
      </trkpt>
      <trkpt lat="43.22082" lon="5.46383">
        <ele>495</ele>
        <time>2018-02-25T14:55:22Z</time>
      </trkpt>
      <trkpt lat="43.2208" lon="5.46382">
        <ele>495.6</ele>
        <time>2018-02-25T14:55:27Z</time>
      </trkpt>
      <trkpt lat="43.22076" lon="5.46383">
        <ele>498.4</ele>
        <time>2018-02-25T14:55:37Z</time>
      </trkpt>
      <trkpt lat="43.22074" lon="5.46385">
        <ele>499.8</ele>
        <time>2018-02-25T14:55:47Z</time>
      </trkpt>
      <trkpt lat="43.22072" lon="5.46386">
        <ele>499.8</ele>
        <time>2018-02-25T14:55:52Z</time>
      </trkpt>
      <trkpt lat="43.2207" lon="5.46385">
        <ele>499.8</ele>
        <time>2018-02-25T14:55:57Z</time>
      </trkpt>
      <trkpt lat="43.22068" lon="5.46385">
        <ele>501.2</ele>
        <time>2018-02-25T14:56:27Z</time>
      </trkpt>
      <trkpt lat="43.22067" lon="5.46385">
        <ele>503.4</ele>
        <time>2018-02-25T14:56:32Z</time>
      </trkpt>
      <trkpt lat="43.22065" lon="5.46385">
        <ele>502</ele>
        <time>2018-02-25T14:56:37Z</time>
      </trkpt>
      <trkpt lat="43.22063" lon="5.46385">
        <ele>503.8</ele>
        <time>2018-02-25T14:56:42Z</time>
      </trkpt>
      <trkpt lat="43.22061" lon="5.46386">
        <ele>507.4</ele>
        <time>2018-02-25T14:56:47Z</time>
      </trkpt>
      <trkpt lat="43.22059" lon="5.46384">
        <ele>508.6</ele>
        <time>2018-02-25T14:56:52Z</time>
      </trkpt>
      <trkpt lat="43.22057" lon="5.46383">
        <ele>507.6</ele>
        <time>2018-02-25T14:56:57Z</time>
      </trkpt>
      <trkpt lat="43.22056" lon="5.46381">
        <ele>503.2</ele>
        <time>2018-02-25T14:57:02Z</time>
      </trkpt>
      <trkpt lat="43.22054" lon="5.4638">
        <ele>505.6</ele>
        <time>2018-02-25T14:57:07Z</time>
      </trkpt>
      <trkpt lat="43.22052" lon="5.46379">
        <ele>507.4</ele>
        <time>2018-02-25T14:57:12Z</time>
      </trkpt>
      <trkpt lat="43.22051" lon="5.46378">
        <ele>506.8</ele>
        <time>2018-02-25T14:57:17Z</time>
      </trkpt>
      <trkpt lat="43.2205" lon="5.46375">
        <ele>507.2</ele>
        <time>2018-02-25T14:57:22Z</time>
      </trkpt>
      <trkpt lat="43.2205" lon="5.46373">
        <ele>504.4</ele>
        <time>2018-02-25T14:57:27Z</time>
      </trkpt>
      <trkpt lat="43.22049" lon="5.4637">
        <ele>508.4</ele>
        <time>2018-02-25T14:57:32Z</time>
      </trkpt>
      <trkpt lat="43.22047" lon="5.46369">
        <ele>508</ele>
        <time>2018-02-25T14:57:38Z</time>
      </trkpt>
      <trkpt lat="43.22046" lon="5.46368">
        <ele>507.4</ele>
        <time>2018-02-25T14:57:43Z</time>
      </trkpt>
      <trkpt lat="43.22044" lon="5.46369">
        <ele>509.4</ele>
        <time>2018-02-25T14:57:48Z</time>
      </trkpt>
      <trkpt lat="43.22043" lon="5.46369">
        <ele>511.8</ele>
        <time>2018-02-25T14:57:53Z</time>
      </trkpt>
      <trkpt lat="43.22041" lon="5.46368">
        <ele>511.8</ele>
        <time>2018-02-25T14:57:58Z</time>
      </trkpt>
      <trkpt lat="43.2204" lon="5.46367">
        <ele>512.4</ele>
        <time>2018-02-25T14:58:03Z</time>
      </trkpt>
      <trkpt lat="43.22038" lon="5.46365">
        <ele>512.6</ele>
        <time>2018-02-25T14:58:08Z</time>
      </trkpt>
      <trkpt lat="43.22037" lon="5.46364">
        <ele>513.4</ele>
        <time>2018-02-25T14:58:13Z</time>
      </trkpt>
      <trkpt lat="43.22036" lon="5.46363">
        <ele>516</ele>
        <time>2018-02-25T14:58:18Z</time>
      </trkpt>
      <trkpt lat="43.22035" lon="5.46362">
        <ele>518.6</ele>
        <time>2018-02-25T14:58:23Z</time>
      </trkpt>
      <trkpt lat="43.22034" lon="5.4636">
        <ele>517.4</ele>
        <time>2018-02-25T14:58:28Z</time>
      </trkpt>
      <trkpt lat="43.22033" lon="5.46357">
        <ele>516.6</ele>
        <time>2018-02-25T14:58:33Z</time>
      </trkpt>
      <trkpt lat="43.22032" lon="5.46355">
        <ele>515.4</ele>
        <time>2018-02-25T14:58:38Z</time>
      </trkpt>
      <trkpt lat="43.2203" lon="5.46355">
        <ele>517.6</ele>
        <time>2018-02-25T14:58:43Z</time>
      </trkpt>
      <trkpt lat="43.22029" lon="5.46354">
        <ele>519</ele>
        <time>2018-02-25T14:58:48Z</time>
      </trkpt>
      <trkpt lat="43.22027" lon="5.46355">
        <ele>523.6</ele>
        <time>2018-02-25T14:58:53Z</time>
      </trkpt>
      <trkpt lat="43.22025" lon="5.46355">
        <ele>522.2</ele>
        <time>2018-02-25T14:58:58Z</time>
      </trkpt>
      <trkpt lat="43.22023" lon="5.46356">
        <ele>521.6</ele>
        <time>2018-02-25T14:59:03Z</time>
      </trkpt>
      <trkpt lat="43.22022" lon="5.46357">
        <ele>521</ele>
        <time>2018-02-25T14:59:08Z</time>
      </trkpt>
      <trkpt lat="43.22021" lon="5.46358">
        <ele>522.6</ele>
        <time>2018-02-25T14:59:13Z</time>
      </trkpt>
      <trkpt lat="43.22021" lon="5.46358">
        <ele>523</ele>
        <time>2018-02-25T14:59:18Z</time>
      </trkpt>
      <trkpt lat="43.22021" lon="5.4636">
        <ele>525.2</ele>
        <time>2018-02-25T14:59:23Z</time>
      </trkpt>
      <trkpt lat="43.2202" lon="5.46366">
        <ele>525.6</ele>
        <time>2018-02-25T14:59:28Z</time>
      </trkpt>
      <trkpt lat="43.22019" lon="5.46369">
        <ele>524.6</ele>
        <time>2018-02-25T14:59:33Z</time>
      </trkpt>
      <trkpt lat="43.2202" lon="5.46373">
        <ele>529.2</ele>
        <time>2018-02-25T14:59:38Z</time>
      </trkpt>
      <trkpt lat="43.2202" lon="5.46379">
        <ele>527.8</ele>
        <time>2018-02-25T14:59:43Z</time>
      </trkpt>
      <trkpt lat="43.2202" lon="5.46382">
        <ele>529.2</ele>
        <time>2018-02-25T14:59:48Z</time>
      </trkpt>
      <trkpt lat="43.22021" lon="5.46388">
        <ele>527</ele>
        <time>2018-02-25T14:59:53Z</time>
      </trkpt>
      <trkpt lat="43.22021" lon="5.46392">
        <ele>530.8</ele>
        <time>2018-02-25T14:59:58Z</time>
      </trkpt>
      <trkpt lat="43.22022" lon="5.46397">
        <ele>527</ele>
        <time>2018-02-25T15:00:03Z</time>
      </trkpt>
      <trkpt lat="43.22023" lon="5.46402">
        <ele>530</ele>
        <time>2018-02-25T15:00:08Z</time>
      </trkpt>
      <trkpt lat="43.22023" lon="5.46406">
        <ele>528</ele>
        <time>2018-02-25T15:00:13Z</time>
      </trkpt>
      <trkpt lat="43.22024" lon="5.4641">
        <ele>528.6</ele>
        <time>2018-02-25T15:00:18Z</time>
      </trkpt>
      <trkpt lat="43.22027" lon="5.46416">
        <ele>529.2</ele>
        <time>2018-02-25T15:00:23Z</time>
      </trkpt>
      <trkpt lat="43.22029" lon="5.4642">
        <ele>529.2</ele>
        <time>2018-02-25T15:00:28Z</time>
      </trkpt>
      <trkpt lat="43.22029" lon="5.46422">
        <ele>522</ele>
        <time>2018-02-25T15:00:33Z</time>
      </trkpt>
      <trkpt lat="43.22029" lon="5.46422">
        <ele>526</ele>
        <time>2018-02-25T15:01:08Z</time>
      </trkpt>
      <trkpt lat="43.2203" lon="5.46423">
        <ele>526.8</ele>
        <time>2018-02-25T15:01:13Z</time>
      </trkpt>
      <trkpt lat="43.22033" lon="5.4643">
        <ele>525.4</ele>
        <time>2018-02-25T15:01:18Z</time>
      </trkpt>
      <trkpt lat="43.22037" lon="5.46435">
        <ele>522</ele>
        <time>2018-02-25T15:01:23Z</time>
      </trkpt>
      <trkpt lat="43.22041" lon="5.46441">
        <ele>525.2</ele>
        <time>2018-02-25T15:01:28Z</time>
      </trkpt>
      <trkpt lat="43.22045" lon="5.46445">
        <ele>525.2</ele>
        <time>2018-02-25T15:01:33Z</time>
      </trkpt>
      <trkpt lat="43.22045" lon="5.46448">
        <ele>521</ele>
        <time>2018-02-25T15:01:38Z</time>
      </trkpt>
      <trkpt lat="43.22045" lon="5.46451">
        <ele>524</ele>
        <time>2018-02-25T15:01:48Z</time>
      </trkpt>
      <trkpt lat="43.22043" lon="5.46457">
        <ele>527.8</ele>
        <time>2018-02-25T15:01:53Z</time>
      </trkpt>
      <trkpt lat="43.2204" lon="5.46459">
        <ele>524.6</ele>
        <time>2018-02-25T15:01:58Z</time>
      </trkpt>
      <trkpt lat="43.22036" lon="5.46463">
        <ele>525.2</ele>
        <time>2018-02-25T15:02:03Z</time>
      </trkpt>
      <trkpt lat="43.22032" lon="5.46466">
        <ele>524.8</ele>
        <time>2018-02-25T15:02:08Z</time>
      </trkpt>
      <trkpt lat="43.22028" lon="5.46467">
        <ele>527.8</ele>
        <time>2018-02-25T15:02:13Z</time>
      </trkpt>
      <trkpt lat="43.22024" lon="5.4647">
        <ele>527.8</ele>
        <time>2018-02-25T15:02:18Z</time>
      </trkpt>
      <trkpt lat="43.22018" lon="5.46472">
        <ele>525.2</ele>
        <time>2018-02-25T15:02:23Z</time>
      </trkpt>
      <trkpt lat="43.22013" lon="5.46474">
        <ele>525.2</ele>
        <time>2018-02-25T15:02:28Z</time>
      </trkpt>
      <trkpt lat="43.22008" lon="5.46476">
        <ele>526</ele>
        <time>2018-02-25T15:02:33Z</time>
      </trkpt>
      <trkpt lat="43.22003" lon="5.46479">
        <ele>526.2</ele>
        <time>2018-02-25T15:02:38Z</time>
      </trkpt>
      <trkpt lat="43.21998" lon="5.4648">
        <ele>524.2</ele>
        <time>2018-02-25T15:02:43Z</time>
      </trkpt>
      <trkpt lat="43.21994" lon="5.46482">
        <ele>527.2</ele>
        <time>2018-02-25T15:02:48Z</time>
      </trkpt>
      <trkpt lat="43.2199" lon="5.46485">
        <ele>522.4</ele>
        <time>2018-02-25T15:02:53Z</time>
      </trkpt>
      <trkpt lat="43.21987" lon="5.46486">
        <ele>524</ele>
        <time>2018-02-25T15:02:58Z</time>
      </trkpt>
      <trkpt lat="43.21983" lon="5.46489">
        <ele>521.6</ele>
        <time>2018-02-25T15:03:03Z</time>
      </trkpt>
      <trkpt lat="43.21978" lon="5.4649">
        <ele>523</ele>
        <time>2018-02-25T15:03:08Z</time>
      </trkpt>
      <trkpt lat="43.21975" lon="5.4649">
        <ele>522</ele>
        <time>2018-02-25T15:03:13Z</time>
      </trkpt>
      <trkpt lat="43.21975" lon="5.4649">
        <ele>522.2</ele>
        <time>2018-02-25T15:03:18Z</time>
      </trkpt>
      <trkpt lat="43.21973" lon="5.4649">
        <ele>524</ele>
        <time>2018-02-25T15:03:23Z</time>
      </trkpt>
      <trkpt lat="43.2197" lon="5.46491">
        <ele>523.6</ele>
        <time>2018-02-25T15:03:28Z</time>
      </trkpt>
      <trkpt lat="43.21965" lon="5.46489">
        <ele>520</ele>
        <time>2018-02-25T15:03:33Z</time>
      </trkpt>
      <trkpt lat="43.2196" lon="5.46487">
        <ele>522.2</ele>
        <time>2018-02-25T15:03:38Z</time>
      </trkpt>
      <trkpt lat="43.21956" lon="5.46485">
        <ele>520.2</ele>
        <time>2018-02-25T15:03:43Z</time>
      </trkpt>
      <trkpt lat="43.21951" lon="5.46485">
        <ele>520.8</ele>
        <time>2018-02-25T15:03:48Z</time>
      </trkpt>
      <trkpt lat="43.21947" lon="5.46485">
        <ele>518.8</ele>
        <time>2018-02-25T15:03:53Z</time>
      </trkpt>
      <trkpt lat="43.21942" lon="5.46484">
        <ele>521.8</ele>
        <time>2018-02-25T15:03:58Z</time>
      </trkpt>
      <trkpt lat="43.21938" lon="5.46483">
        <ele>520</ele>
        <time>2018-02-25T15:04:03Z</time>
      </trkpt>
      <trkpt lat="43.21934" lon="5.46482">
        <ele>519.8</ele>
        <time>2018-02-25T15:04:08Z</time>
      </trkpt>
      <trkpt lat="43.2193" lon="5.46482">
        <ele>517</ele>
        <time>2018-02-25T15:04:13Z</time>
      </trkpt>
      <trkpt lat="43.21926" lon="5.46482">
        <ele>520.2</ele>
        <time>2018-02-25T15:04:18Z</time>
      </trkpt>
      <trkpt lat="43.21922" lon="5.46482">
        <ele>517.6</ele>
        <time>2018-02-25T15:04:23Z</time>
      </trkpt>
      <trkpt lat="43.21917" lon="5.46482">
        <ele>520.2</ele>
        <time>2018-02-25T15:04:28Z</time>
      </trkpt>
      <trkpt lat="43.21915" lon="5.46483">
        <ele>520.2</ele>
        <time>2018-02-25T15:04:33Z</time>
      </trkpt>
      <trkpt lat="43.2191" lon="5.46482">
        <ele>521.8</ele>
        <time>2018-02-25T15:04:38Z</time>
      </trkpt>
      <trkpt lat="43.21905" lon="5.4648">
        <ele>520.2</ele>
        <time>2018-02-25T15:04:43Z</time>
      </trkpt>
      <trkpt lat="43.219" lon="5.46478">
        <ele>519.6</ele>
        <time>2018-02-25T15:04:48Z</time>
      </trkpt>
      <trkpt lat="43.21896" lon="5.46477">
        <ele>519.4</ele>
        <time>2018-02-25T15:04:53Z</time>
      </trkpt>
      <trkpt lat="43.21891" lon="5.46475">
        <ele>514.6</ele>
        <time>2018-02-25T15:04:58Z</time>
      </trkpt>
      <trkpt lat="43.21885" lon="5.46473">
        <ele>518.4</ele>
        <time>2018-02-25T15:05:03Z</time>
      </trkpt>
      <trkpt lat="43.2188" lon="5.46471">
        <ele>515.4</ele>
        <time>2018-02-25T15:05:08Z</time>
      </trkpt>
      <trkpt lat="43.21873" lon="5.46471">
        <ele>512.2</ele>
        <time>2018-02-25T15:05:13Z</time>
      </trkpt>
      <trkpt lat="43.21867" lon="5.4647">
        <ele>513</ele>
        <time>2018-02-25T15:05:18Z</time>
      </trkpt>
      <trkpt lat="43.21862" lon="5.46469">
        <ele>513</ele>
        <time>2018-02-25T15:05:23Z</time>
      </trkpt>
      <trkpt lat="43.21857" lon="5.46469">
        <ele>510.2</ele>
        <time>2018-02-25T15:05:28Z</time>
      </trkpt>
      <trkpt lat="43.2185" lon="5.46468">
        <ele>512.2</ele>
        <time>2018-02-25T15:05:33Z</time>
      </trkpt>
      <trkpt lat="43.21845" lon="5.46467">
        <ele>512.4</ele>
        <time>2018-02-25T15:05:38Z</time>
      </trkpt>
      <trkpt lat="43.21839" lon="5.46469">
        <ele>513</ele>
        <time>2018-02-25T15:05:43Z</time>
      </trkpt>
      <trkpt lat="43.21834" lon="5.46469">
        <ele>510.8</ele>
        <time>2018-02-25T15:05:49Z</time>
      </trkpt>
      <trkpt lat="43.2183" lon="5.46468">
        <ele>511.2</ele>
        <time>2018-02-25T15:05:54Z</time>
      </trkpt>
      <trkpt lat="43.21824" lon="5.46468">
        <ele>510.6</ele>
        <time>2018-02-25T15:05:59Z</time>
      </trkpt>
      <trkpt lat="43.21819" lon="5.46467">
        <ele>510</ele>
        <time>2018-02-25T15:06:04Z</time>
      </trkpt>
      <trkpt lat="43.21817" lon="5.46471">
        <ele>510</ele>
        <time>2018-02-25T15:06:09Z</time>
      </trkpt>
      <trkpt lat="43.21812" lon="5.46474">
        <ele>507.8</ele>
        <time>2018-02-25T15:06:14Z</time>
      </trkpt>
      <trkpt lat="43.21809" lon="5.46479">
        <ele>505.4</ele>
        <time>2018-02-25T15:06:19Z</time>
      </trkpt>
      <trkpt lat="43.21804" lon="5.46484">
        <ele>505.2</ele>
        <time>2018-02-25T15:06:24Z</time>
      </trkpt>
      <trkpt lat="43.21799" lon="5.46489">
        <ele>504.2</ele>
        <time>2018-02-25T15:06:29Z</time>
      </trkpt>
      <trkpt lat="43.21794" lon="5.46493">
        <ele>506.4</ele>
        <time>2018-02-25T15:06:34Z</time>
      </trkpt>
      <trkpt lat="43.21789" lon="5.46494">
        <ele>505.8</ele>
        <time>2018-02-25T15:06:39Z</time>
      </trkpt>
      <trkpt lat="43.21784" lon="5.46495">
        <ele>503.6</ele>
        <time>2018-02-25T15:06:44Z</time>
      </trkpt>
      <trkpt lat="43.21781" lon="5.46496">
        <ele>506</ele>
        <time>2018-02-25T15:06:49Z</time>
      </trkpt>
      <trkpt lat="43.2178" lon="5.46496">
        <ele>507</ele>
        <time>2018-02-25T15:06:54Z</time>
      </trkpt>
      <trkpt lat="43.21779" lon="5.46497">
        <ele>504.4</ele>
        <time>2018-02-25T15:06:59Z</time>
      </trkpt>
      <trkpt lat="43.21777" lon="5.465">
        <ele>505.4</ele>
        <time>2018-02-25T15:07:04Z</time>
      </trkpt>
      <trkpt lat="43.21777" lon="5.465">
        <ele>504.6</ele>
        <time>2018-02-25T15:07:14Z</time>
      </trkpt>
      <trkpt lat="43.21776" lon="5.46501">
        <ele>505.6</ele>
        <time>2018-02-25T15:07:19Z</time>
      </trkpt>
      <trkpt lat="43.21773" lon="5.46502">
        <ele>504.2</ele>
        <time>2018-02-25T15:07:24Z</time>
      </trkpt>
      <trkpt lat="43.2177" lon="5.46503">
        <ele>504</ele>
        <time>2018-02-25T15:07:29Z</time>
      </trkpt>
      <trkpt lat="43.21765" lon="5.46505">
        <ele>501.6</ele>
        <time>2018-02-25T15:07:34Z</time>
      </trkpt>
      <trkpt lat="43.21761" lon="5.46508">
        <ele>500.2</ele>
        <time>2018-02-25T15:07:39Z</time>
      </trkpt>
      <trkpt lat="43.21757" lon="5.46508">
        <ele>498.2</ele>
        <time>2018-02-25T15:07:44Z</time>
      </trkpt>
      <trkpt lat="43.21757" lon="5.46508">
        <ele>498.4</ele>
        <time>2018-02-25T15:08:09Z</time>
      </trkpt>
      <trkpt lat="43.21755" lon="5.46509">
        <ele>497.4</ele>
        <time>2018-02-25T15:08:14Z</time>
      </trkpt>
      <trkpt lat="43.21749" lon="5.4651">
        <ele>495.8</ele>
        <time>2018-02-25T15:08:19Z</time>
      </trkpt>
      <trkpt lat="43.21743" lon="5.46512">
        <ele>496.2</ele>
        <time>2018-02-25T15:08:24Z</time>
      </trkpt>
      <trkpt lat="43.21736" lon="5.46515">
        <ele>497</ele>
        <time>2018-02-25T15:08:29Z</time>
      </trkpt>
      <trkpt lat="43.21732" lon="5.46517">
        <ele>496.4</ele>
        <time>2018-02-25T15:08:34Z</time>
      </trkpt>
      <trkpt lat="43.21727" lon="5.4652">
        <ele>499</ele>
        <time>2018-02-25T15:08:39Z</time>
      </trkpt>
      <trkpt lat="43.21722" lon="5.46521">
        <ele>497</ele>
        <time>2018-02-25T15:08:44Z</time>
      </trkpt>
      <trkpt lat="43.21718" lon="5.46523">
        <ele>496.8</ele>
        <time>2018-02-25T15:08:49Z</time>
      </trkpt>
      <trkpt lat="43.21714" lon="5.46526">
        <ele>495.6</ele>
        <time>2018-02-25T15:08:54Z</time>
      </trkpt>
      <trkpt lat="43.2171" lon="5.46528">
        <ele>494.2</ele>
        <time>2018-02-25T15:08:59Z</time>
      </trkpt>
      <trkpt lat="43.21706" lon="5.46527">
        <ele>494.2</ele>
        <time>2018-02-25T15:09:04Z</time>
      </trkpt>
      <trkpt lat="43.21703" lon="5.46529">
        <ele>493.2</ele>
        <time>2018-02-25T15:09:09Z</time>
      </trkpt>
      <trkpt lat="43.21701" lon="5.4653">
        <ele>491.2</ele>
        <time>2018-02-25T15:09:14Z</time>
      </trkpt>
      <trkpt lat="43.21699" lon="5.4653">
        <ele>490.6</ele>
        <time>2018-02-25T15:09:19Z</time>
      </trkpt>
      <trkpt lat="43.21699" lon="5.4653">
        <ele>491.2</ele>
        <time>2018-02-25T15:09:24Z</time>
      </trkpt>
      <trkpt lat="43.21698" lon="5.4653">
        <ele>490.8</ele>
        <time>2018-02-25T15:09:29Z</time>
      </trkpt>
      <trkpt lat="43.21697" lon="5.4653">
        <ele>492.2</ele>
        <time>2018-02-25T15:09:34Z</time>
      </trkpt>
      <trkpt lat="43.21697" lon="5.4653">
        <ele>492</ele>
        <time>2018-02-25T15:09:49Z</time>
      </trkpt>
      <trkpt lat="43.21695" lon="5.46532">
        <ele>493</ele>
        <time>2018-02-25T15:09:59Z</time>
      </trkpt>
      <trkpt lat="43.21692" lon="5.46533">
        <ele>490.4</ele>
        <time>2018-02-25T15:10:04Z</time>
      </trkpt>
      <trkpt lat="43.21691" lon="5.46534">
        <ele>488.8</ele>
        <time>2018-02-25T15:10:09Z</time>
      </trkpt>
      <trkpt lat="43.2169" lon="5.46534">
        <ele>488.4</ele>
        <time>2018-02-25T15:11:04Z</time>
      </trkpt>
      <trkpt lat="43.21689" lon="5.46535">
        <ele>485.2</ele>
        <time>2018-02-25T15:11:09Z</time>
      </trkpt>
      <trkpt lat="43.21688" lon="5.46534">
        <ele>488.4</ele>
        <time>2018-02-25T15:11:14Z</time>
      </trkpt>
      <trkpt lat="43.21686" lon="5.46535">
        <ele>488</ele>
        <time>2018-02-25T15:11:19Z</time>
      </trkpt>
      <trkpt lat="43.21682" lon="5.46539">
        <ele>485.2</ele>
        <time>2018-02-25T15:11:29Z</time>
      </trkpt>
      <trkpt lat="43.21679" lon="5.46542">
        <ele>486.2</ele>
        <time>2018-02-25T15:11:34Z</time>
      </trkpt>
      <trkpt lat="43.21678" lon="5.46546">
        <ele>482.8</ele>
        <time>2018-02-25T15:11:39Z</time>
      </trkpt>
      <trkpt lat="43.21673" lon="5.46548">
        <ele>484.2</ele>
        <time>2018-02-25T15:11:44Z</time>
      </trkpt>
      <trkpt lat="43.21669" lon="5.4655">
        <ele>483</ele>
        <time>2018-02-25T15:11:49Z</time>
      </trkpt>
      <trkpt lat="43.21666" lon="5.4655">
        <ele>482.6</ele>
        <time>2018-02-25T15:11:54Z</time>
      </trkpt>
      <trkpt lat="43.21663" lon="5.46552">
        <ele>482</ele>
        <time>2018-02-25T15:11:59Z</time>
      </trkpt>
      <trkpt lat="43.2166" lon="5.46552">
        <ele>479.4</ele>
        <time>2018-02-25T15:12:04Z</time>
      </trkpt>
      <trkpt lat="43.21657" lon="5.46558">
        <ele>477.4</ele>
        <time>2018-02-25T15:12:09Z</time>
      </trkpt>
      <trkpt lat="43.21654" lon="5.46562">
        <ele>479.2</ele>
        <time>2018-02-25T15:12:14Z</time>
      </trkpt>
      <trkpt lat="43.2165" lon="5.46562">
        <ele>477.2</ele>
        <time>2018-02-25T15:12:19Z</time>
      </trkpt>
      <trkpt lat="43.21646" lon="5.46564">
        <ele>476.2</ele>
        <time>2018-02-25T15:12:24Z</time>
      </trkpt>
      <trkpt lat="43.21643" lon="5.46568">
        <ele>475.4</ele>
        <time>2018-02-25T15:12:29Z</time>
      </trkpt>
      <trkpt lat="43.2164" lon="5.46572">
        <ele>476.8</ele>
        <time>2018-02-25T15:12:34Z</time>
      </trkpt>
      <trkpt lat="43.21636" lon="5.46576">
        <ele>477.2</ele>
        <time>2018-02-25T15:12:39Z</time>
      </trkpt>
      <trkpt lat="43.21632" lon="5.46577">
        <ele>473.6</ele>
        <time>2018-02-25T15:12:44Z</time>
      </trkpt>
      <trkpt lat="43.21628" lon="5.46576">
        <ele>473.8</ele>
        <time>2018-02-25T15:12:49Z</time>
      </trkpt>
      <trkpt lat="43.21623" lon="5.46577">
        <ele>473.4</ele>
        <time>2018-02-25T15:12:54Z</time>
      </trkpt>
      <trkpt lat="43.21618" lon="5.46579">
        <ele>474.4</ele>
        <time>2018-02-25T15:12:59Z</time>
      </trkpt>
      <trkpt lat="43.21615" lon="5.4658">
        <ele>470.4</ele>
        <time>2018-02-25T15:13:04Z</time>
      </trkpt>
      <trkpt lat="43.21612" lon="5.46582">
        <ele>467.2</ele>
        <time>2018-02-25T15:13:09Z</time>
      </trkpt>
      <trkpt lat="43.21608" lon="5.46586">
        <ele>469.6</ele>
        <time>2018-02-25T15:13:14Z</time>
      </trkpt>
      <trkpt lat="43.21603" lon="5.46591">
        <ele>469.4</ele>
        <time>2018-02-25T15:13:19Z</time>
      </trkpt>
      <trkpt lat="43.21599" lon="5.46594">
        <ele>468.2</ele>
        <time>2018-02-25T15:13:24Z</time>
      </trkpt>
      <trkpt lat="43.21595" lon="5.46593">
        <ele>467.2</ele>
        <time>2018-02-25T15:13:29Z</time>
      </trkpt>
      <trkpt lat="43.21593" lon="5.46592">
        <ele>473.4</ele>
        <time>2018-02-25T15:13:34Z</time>
      </trkpt>
      <trkpt lat="43.2159" lon="5.46591">
        <ele>467.8</ele>
        <time>2018-02-25T15:13:39Z</time>
      </trkpt>
      <trkpt lat="43.21588" lon="5.4659">
        <ele>469.6</ele>
        <time>2018-02-25T15:13:49Z</time>
      </trkpt>
      <trkpt lat="43.21587" lon="5.46589">
        <ele>467.6</ele>
        <time>2018-02-25T15:14:19Z</time>
      </trkpt>
      <trkpt lat="43.21583" lon="5.46589">
        <ele>462.8</ele>
        <time>2018-02-25T15:14:24Z</time>
      </trkpt>
      <trkpt lat="43.21579" lon="5.46587">
        <ele>463.8</ele>
        <time>2018-02-25T15:14:29Z</time>
      </trkpt>
      <trkpt lat="43.21576" lon="5.46588">
        <ele>459.8</ele>
        <time>2018-02-25T15:14:34Z</time>
      </trkpt>
      <trkpt lat="43.21573" lon="5.46589">
        <ele>461.6</ele>
        <time>2018-02-25T15:14:39Z</time>
      </trkpt>
      <trkpt lat="43.21572" lon="5.46588">
        <ele>463.8</ele>
        <time>2018-02-25T15:14:44Z</time>
      </trkpt>
      <trkpt lat="43.2157" lon="5.46587">
        <ele>464.4</ele>
        <time>2018-02-25T15:14:49Z</time>
      </trkpt>
      <trkpt lat="43.2157" lon="5.46587">
        <ele>462.2</ele>
        <time>2018-02-25T15:14:59Z</time>
      </trkpt>
      <trkpt lat="43.2157" lon="5.46585">
        <ele>460.4</ele>
        <time>2018-02-25T15:15:04Z</time>
      </trkpt>
      <trkpt lat="43.2157" lon="5.46584">
        <ele>459.8</ele>
        <time>2018-02-25T15:15:09Z</time>
      </trkpt>
      <trkpt lat="43.21568" lon="5.46583">
        <ele>457.4</ele>
        <time>2018-02-25T15:15:14Z</time>
      </trkpt>
      <trkpt lat="43.21564" lon="5.46581">
        <ele>454.8</ele>
        <time>2018-02-25T15:15:19Z</time>
      </trkpt>
      <trkpt lat="43.21561" lon="5.4658">
        <ele>455.8</ele>
        <time>2018-02-25T15:15:24Z</time>
      </trkpt>
      <trkpt lat="43.21558" lon="5.46578">
        <ele>455.6</ele>
        <time>2018-02-25T15:15:29Z</time>
      </trkpt>
      <trkpt lat="43.21556" lon="5.46578">
        <ele>456.2</ele>
        <time>2018-02-25T15:15:34Z</time>
      </trkpt>
      <trkpt lat="43.21552" lon="5.46576">
        <ele>457.2</ele>
        <time>2018-02-25T15:15:39Z</time>
      </trkpt>
      <trkpt lat="43.21549" lon="5.46575">
        <ele>455</ele>
        <time>2018-02-25T15:15:44Z</time>
      </trkpt>
      <trkpt lat="43.21545" lon="5.46575">
        <ele>453.6</ele>
        <time>2018-02-25T15:15:49Z</time>
      </trkpt>
      <trkpt lat="43.21544" lon="5.46574">
        <ele>451.4</ele>
        <time>2018-02-25T15:15:54Z</time>
      </trkpt>
      <trkpt lat="43.21539" lon="5.46575">
        <ele>452</ele>
        <time>2018-02-25T15:15:59Z</time>
      </trkpt>
      <trkpt lat="43.21537" lon="5.46579">
        <ele>449.8</ele>
        <time>2018-02-25T15:16:04Z</time>
      </trkpt>
      <trkpt lat="43.21533" lon="5.46577">
        <ele>450.4</ele>
        <time>2018-02-25T15:16:14Z</time>
      </trkpt>
      <trkpt lat="43.21532" lon="5.46577">
        <ele>449.6</ele>
        <time>2018-02-25T15:16:24Z</time>
      </trkpt>
      <trkpt lat="43.21532" lon="5.46578">
        <ele>447.6</ele>
        <time>2018-02-25T15:16:39Z</time>
      </trkpt>
      <trkpt lat="43.2153" lon="5.46579">
        <ele>446</ele>
        <time>2018-02-25T15:16:44Z</time>
      </trkpt>
      <trkpt lat="43.21527" lon="5.46582">
        <ele>444.8</ele>
        <time>2018-02-25T15:16:49Z</time>
      </trkpt>
      <trkpt lat="43.21527" lon="5.46583">
        <ele>446.8</ele>
        <time>2018-02-25T15:17:04Z</time>
      </trkpt>
      <trkpt lat="43.21524" lon="5.46583">
        <ele>443.2</ele>
        <time>2018-02-25T15:17:09Z</time>
      </trkpt>
      <trkpt lat="43.21523" lon="5.46582">
        <ele>443.8</ele>
        <time>2018-02-25T15:17:14Z</time>
      </trkpt>
      <trkpt lat="43.21519" lon="5.46583">
        <ele>447.2</ele>
        <time>2018-02-25T15:17:19Z</time>
      </trkpt>
      <trkpt lat="43.21515" lon="5.46584">
        <ele>444.2</ele>
        <time>2018-02-25T15:17:24Z</time>
      </trkpt>
      <trkpt lat="43.21513" lon="5.46581">
        <ele>442.2</ele>
        <time>2018-02-25T15:17:29Z</time>
      </trkpt>
      <trkpt lat="43.2151" lon="5.4658">
        <ele>443</ele>
        <time>2018-02-25T15:17:34Z</time>
      </trkpt>
      <trkpt lat="43.2151" lon="5.46581">
        <ele>441.4</ele>
        <time>2018-02-25T15:17:39Z</time>
      </trkpt>
      <trkpt lat="43.21508" lon="5.46584">
        <ele>440</ele>
        <time>2018-02-25T15:17:44Z</time>
      </trkpt>
      <trkpt lat="43.21505" lon="5.46587">
        <ele>440.6</ele>
        <time>2018-02-25T15:17:49Z</time>
      </trkpt>
      <trkpt lat="43.21502" lon="5.46589">
        <ele>442</ele>
        <time>2018-02-25T15:17:54Z</time>
      </trkpt>
      <trkpt lat="43.21502" lon="5.46589">
        <ele>441.4</ele>
        <time>2018-02-25T15:17:59Z</time>
      </trkpt>
      <trkpt lat="43.21501" lon="5.4659">
        <ele>441.4</ele>
        <time>2018-02-25T15:18:04Z</time>
      </trkpt>
      <trkpt lat="43.215" lon="5.4659">
        <ele>440.8</ele>
        <time>2018-02-25T15:18:14Z</time>
      </trkpt>
      <trkpt lat="43.21498" lon="5.46594">
        <ele>440.2</ele>
        <time>2018-02-25T15:18:19Z</time>
      </trkpt>
      <trkpt lat="43.21495" lon="5.46597">
        <ele>438.4</ele>
        <time>2018-02-25T15:18:24Z</time>
      </trkpt>
      <trkpt lat="43.21495" lon="5.46597">
        <ele>438.8</ele>
        <time>2018-02-25T15:18:44Z</time>
      </trkpt>
      <trkpt lat="43.21493" lon="5.46598">
        <ele>436</ele>
        <time>2018-02-25T15:18:49Z</time>
      </trkpt>
      <trkpt lat="43.21489" lon="5.46601">
        <ele>433.4</ele>
        <time>2018-02-25T15:18:54Z</time>
      </trkpt>
      <trkpt lat="43.21484" lon="5.46603">
        <ele>436.6</ele>
        <time>2018-02-25T15:18:59Z</time>
      </trkpt>
      <trkpt lat="43.2148" lon="5.46605">
        <ele>436.6</ele>
        <time>2018-02-25T15:19:04Z</time>
      </trkpt>
      <trkpt lat="43.21479" lon="5.46605">
        <ele>436.4</ele>
        <time>2018-02-25T15:19:09Z</time>
      </trkpt>
      <trkpt lat="43.21478" lon="5.46605">
        <ele>436.2</ele>
        <time>2018-02-25T15:19:14Z</time>
      </trkpt>
      <trkpt lat="43.21477" lon="5.46604">
        <ele>437.4</ele>
        <time>2018-02-25T15:19:19Z</time>
      </trkpt>
      <trkpt lat="43.21474" lon="5.46602">
        <ele>438.8</ele>
        <time>2018-02-25T15:19:24Z</time>
      </trkpt>
      <trkpt lat="43.21471" lon="5.46598">
        <ele>439.8</ele>
        <time>2018-02-25T15:19:29Z</time>
      </trkpt>
      <trkpt lat="43.21468" lon="5.46595">
        <ele>439.4</ele>
        <time>2018-02-25T15:19:34Z</time>
      </trkpt>
      <trkpt lat="43.21465" lon="5.46595">
        <ele>439.8</ele>
        <time>2018-02-25T15:19:39Z</time>
      </trkpt>
      <trkpt lat="43.21462" lon="5.46596">
        <ele>437.4</ele>
        <time>2018-02-25T15:19:44Z</time>
      </trkpt>
      <trkpt lat="43.2146" lon="5.466">
        <ele>436.6</ele>
        <time>2018-02-25T15:19:49Z</time>
      </trkpt>
      <trkpt lat="43.21459" lon="5.466">
        <ele>438</ele>
        <time>2018-02-25T15:19:54Z</time>
      </trkpt>
      <trkpt lat="43.21458" lon="5.46602">
        <ele>437.2</ele>
        <time>2018-02-25T15:19:59Z</time>
      </trkpt>
      <trkpt lat="43.21457" lon="5.46604">
        <ele>436.8</ele>
        <time>2018-02-25T15:20:04Z</time>
      </trkpt>
      <trkpt lat="43.21457" lon="5.46603">
        <ele>436.8</ele>
        <time>2018-02-25T15:20:09Z</time>
      </trkpt>
      <trkpt lat="43.21452" lon="5.46603">
        <ele>435.4</ele>
        <time>2018-02-25T15:20:14Z</time>
      </trkpt>
      <trkpt lat="43.21447" lon="5.46604">
        <ele>435.4</ele>
        <time>2018-02-25T15:20:19Z</time>
      </trkpt>
      <trkpt lat="43.21443" lon="5.46606">
        <ele>436.8</ele>
        <time>2018-02-25T15:20:24Z</time>
      </trkpt>
      <trkpt lat="43.2144" lon="5.46607">
        <ele>432.6</ele>
        <time>2018-02-25T15:20:29Z</time>
      </trkpt>
      <trkpt lat="43.21436" lon="5.46607">
        <ele>433.8</ele>
        <time>2018-02-25T15:20:34Z</time>
      </trkpt>
      <trkpt lat="43.21431" lon="5.46608">
        <ele>431.8</ele>
        <time>2018-02-25T15:20:39Z</time>
      </trkpt>
      <trkpt lat="43.21427" lon="5.46608">
        <ele>431.8</ele>
        <time>2018-02-25T15:20:44Z</time>
      </trkpt>
      <trkpt lat="43.21423" lon="5.46608">
        <ele>432.8</ele>
        <time>2018-02-25T15:20:49Z</time>
      </trkpt>
      <trkpt lat="43.21421" lon="5.46608">
        <ele>430.8</ele>
        <time>2018-02-25T15:20:54Z</time>
      </trkpt>
      <trkpt lat="43.21417" lon="5.46609">
        <ele>429.8</ele>
        <time>2018-02-25T15:20:59Z</time>
      </trkpt>
      <trkpt lat="43.21414" lon="5.46609">
        <ele>430.8</ele>
        <time>2018-02-25T15:21:04Z</time>
      </trkpt>
      <trkpt lat="43.21412" lon="5.46608">
        <ele>430.2</ele>
        <time>2018-02-25T15:21:14Z</time>
      </trkpt>
      <trkpt lat="43.21409" lon="5.46608">
        <ele>433.6</ele>
        <time>2018-02-25T15:21:19Z</time>
      </trkpt>
      <trkpt lat="43.21404" lon="5.46608">
        <ele>432.6</ele>
        <time>2018-02-25T15:21:24Z</time>
      </trkpt>
      <trkpt lat="43.21399" lon="5.46609">
        <ele>432.8</ele>
        <time>2018-02-25T15:21:29Z</time>
      </trkpt>
      <trkpt lat="43.21393" lon="5.46612">
        <ele>430</ele>
        <time>2018-02-25T15:21:34Z</time>
      </trkpt>
      <trkpt lat="43.21387" lon="5.46614">
        <ele>434.6</ele>
        <time>2018-02-25T15:21:39Z</time>
      </trkpt>
      <trkpt lat="43.21381" lon="5.46617">
        <ele>432.2</ele>
        <time>2018-02-25T15:21:44Z</time>
      </trkpt>
      <trkpt lat="43.21376" lon="5.46619">
        <ele>429.8</ele>
        <time>2018-02-25T15:21:49Z</time>
      </trkpt>
      <trkpt lat="43.21372" lon="5.46621">
        <ele>431.6</ele>
        <time>2018-02-25T15:21:54Z</time>
      </trkpt>
      <trkpt lat="43.21371" lon="5.46621">
        <ele>432.6</ele>
        <time>2018-02-25T15:21:59Z</time>
      </trkpt>
      <trkpt lat="43.21368" lon="5.46619">
        <ele>432.4</ele>
        <time>2018-02-25T15:22:04Z</time>
      </trkpt>
      <trkpt lat="43.21367" lon="5.46619">
        <ele>431.4</ele>
        <time>2018-02-25T15:22:39Z</time>
      </trkpt>
      <trkpt lat="43.21361" lon="5.46618">
        <ele>430</ele>
        <time>2018-02-25T15:22:44Z</time>
      </trkpt>
      <trkpt lat="43.21355" lon="5.46617">
        <ele>430.4</ele>
        <time>2018-02-25T15:22:49Z</time>
      </trkpt>
      <trkpt lat="43.21352" lon="5.46612">
        <ele>430.8</ele>
        <time>2018-02-25T15:22:54Z</time>
      </trkpt>
      <trkpt lat="43.21348" lon="5.4661">
        <ele>430.8</ele>
        <time>2018-02-25T15:22:59Z</time>
      </trkpt>
      <trkpt lat="43.21344" lon="5.46606">
        <ele>429.8</ele>
        <time>2018-02-25T15:23:04Z</time>
      </trkpt>
      <trkpt lat="43.2134" lon="5.46603">
        <ele>430.2</ele>
        <time>2018-02-25T15:23:09Z</time>
      </trkpt>
      <trkpt lat="43.21339" lon="5.46603">
        <ele>429.8</ele>
        <time>2018-02-25T15:23:34Z</time>
      </trkpt>
      <trkpt lat="43.21339" lon="5.46602">
        <ele>430.6</ele>
        <time>2018-02-25T15:23:49Z</time>
      </trkpt>
      <trkpt lat="43.21338" lon="5.46603">
        <ele>432.6</ele>
        <time>2018-02-25T15:23:54Z</time>
      </trkpt>
      <trkpt lat="43.21337" lon="5.46603">
        <ele>431.6</ele>
        <time>2018-02-25T15:23:59Z</time>
      </trkpt>
      <trkpt lat="43.21334" lon="5.46603">
        <ele>428.8</ele>
        <time>2018-02-25T15:24:04Z</time>
      </trkpt>
      <trkpt lat="43.21329" lon="5.46604">
        <ele>430.2</ele>
        <time>2018-02-25T15:24:09Z</time>
      </trkpt>
      <trkpt lat="43.21328" lon="5.46603">
        <ele>429.6</ele>
        <time>2018-02-25T15:24:14Z</time>
      </trkpt>
      <trkpt lat="43.21328" lon="5.46603">
        <ele>429</ele>
        <time>2018-02-25T15:24:19Z</time>
      </trkpt>
      <trkpt lat="43.21326" lon="5.46607">
        <ele>431.2</ele>
        <time>2018-02-25T15:24:24Z</time>
      </trkpt>
      <trkpt lat="43.21321" lon="5.46609">
        <ele>429.4</ele>
        <time>2018-02-25T15:24:29Z</time>
      </trkpt>
      <trkpt lat="43.21317" lon="5.46612">
        <ele>427.8</ele>
        <time>2018-02-25T15:24:34Z</time>
      </trkpt>
      <trkpt lat="43.21315" lon="5.46612">
        <ele>427</ele>
        <time>2018-02-25T15:24:39Z</time>
      </trkpt>
      <trkpt lat="43.21311" lon="5.4661">
        <ele>424.8</ele>
        <time>2018-02-25T15:24:44Z</time>
      </trkpt>
      <trkpt lat="43.21307" lon="5.46608">
        <ele>425.8</ele>
        <time>2018-02-25T15:24:49Z</time>
      </trkpt>
      <trkpt lat="43.21303" lon="5.46604">
        <ele>425.8</ele>
        <time>2018-02-25T15:24:54Z</time>
      </trkpt>
      <trkpt lat="43.21302" lon="5.46602">
        <ele>425.2</ele>
        <time>2018-02-25T15:24:59Z</time>
      </trkpt>
      <trkpt lat="43.21302" lon="5.466">
        <ele>427</ele>
        <time>2018-02-25T15:25:09Z</time>
      </trkpt>
      <trkpt lat="43.21304" lon="5.46596">
        <ele>427.2</ele>
        <time>2018-02-25T15:25:14Z</time>
      </trkpt>
      <trkpt lat="43.21304" lon="5.46591">
        <ele>425.6</ele>
        <time>2018-02-25T15:25:19Z</time>
      </trkpt>
      <trkpt lat="43.21306" lon="5.46587">
        <ele>423</ele>
        <time>2018-02-25T15:25:24Z</time>
      </trkpt>
      <trkpt lat="43.21307" lon="5.46583">
        <ele>422</ele>
        <time>2018-02-25T15:25:29Z</time>
      </trkpt>
      <trkpt lat="43.21307" lon="5.46582">
        <ele>423.4</ele>
        <time>2018-02-25T15:26:14Z</time>
      </trkpt>
      <trkpt lat="43.21307" lon="5.46582">
        <ele>423.4</ele>
        <time>2018-02-25T15:26:19Z</time>
      </trkpt>
      <trkpt lat="43.21309" lon="5.46582">
        <ele>421.8</ele>
        <time>2018-02-25T15:26:24Z</time>
      </trkpt>
      <trkpt lat="43.21311" lon="5.46581">
        <ele>421.6</ele>
        <time>2018-02-25T15:26:29Z</time>
      </trkpt>
      <trkpt lat="43.21315" lon="5.46581">
        <ele>421</ele>
        <time>2018-02-25T15:26:34Z</time>
      </trkpt>
      <trkpt lat="43.21317" lon="5.46579">
        <ele>422</ele>
        <time>2018-02-25T15:26:39Z</time>
      </trkpt>
      <trkpt lat="43.2132" lon="5.46577">
        <ele>418.8</ele>
        <time>2018-02-25T15:26:44Z</time>
      </trkpt>
      <trkpt lat="43.21326" lon="5.46577">
        <ele>417.6</ele>
        <time>2018-02-25T15:26:49Z</time>
      </trkpt>
      <trkpt lat="43.2133" lon="5.46574">
        <ele>418.6</ele>
        <time>2018-02-25T15:26:54Z</time>
      </trkpt>
      <trkpt lat="43.21334" lon="5.46569">
        <ele>418.2</ele>
        <time>2018-02-25T15:26:59Z</time>
      </trkpt>
      <trkpt lat="43.21337" lon="5.46565">
        <ele>419.4</ele>
        <time>2018-02-25T15:27:04Z</time>
      </trkpt>
      <trkpt lat="43.2134" lon="5.46559">
        <ele>418.4</ele>
        <time>2018-02-25T15:27:09Z</time>
      </trkpt>
      <trkpt lat="43.21342" lon="5.46554">
        <ele>416.6</ele>
        <time>2018-02-25T15:27:14Z</time>
      </trkpt>
      <trkpt lat="43.21344" lon="5.46548">
        <ele>416.8</ele>
        <time>2018-02-25T15:27:19Z</time>
      </trkpt>
      <trkpt lat="43.21346" lon="5.46541">
        <ele>415.4</ele>
        <time>2018-02-25T15:27:24Z</time>
      </trkpt>
      <trkpt lat="43.21347" lon="5.46535">
        <ele>418</ele>
        <time>2018-02-25T15:27:29Z</time>
      </trkpt>
      <trkpt lat="43.2135" lon="5.46529">
        <ele>413.8</ele>
        <time>2018-02-25T15:27:34Z</time>
      </trkpt>
      <trkpt lat="43.2135" lon="5.46528">
        <ele>415.8</ele>
        <time>2018-02-25T15:27:49Z</time>
      </trkpt>
      <trkpt lat="43.21354" lon="5.46523">
        <ele>413.2</ele>
        <time>2018-02-25T15:27:54Z</time>
      </trkpt>
      <trkpt lat="43.21359" lon="5.46522">
        <ele>416.6</ele>
        <time>2018-02-25T15:27:59Z</time>
      </trkpt>
      <trkpt lat="43.21362" lon="5.46522">
        <ele>414.6</ele>
        <time>2018-02-25T15:28:04Z</time>
      </trkpt>
      <trkpt lat="43.21366" lon="5.46525">
        <ele>414.4</ele>
        <time>2018-02-25T15:28:09Z</time>
      </trkpt>
      <trkpt lat="43.21368" lon="5.46527">
        <ele>412.4</ele>
        <time>2018-02-25T15:28:14Z</time>
      </trkpt>
      <trkpt lat="43.2137" lon="5.46526">
        <ele>410.6</ele>
        <time>2018-02-25T15:28:19Z</time>
      </trkpt>
      <trkpt lat="43.21371" lon="5.46525">
        <ele>408.2</ele>
        <time>2018-02-25T15:28:24Z</time>
      </trkpt>
      <trkpt lat="43.21373" lon="5.46525">
        <ele>408.4</ele>
        <time>2018-02-25T15:28:29Z</time>
      </trkpt>
      <trkpt lat="43.21373" lon="5.46523">
        <ele>408.4</ele>
        <time>2018-02-25T15:28:34Z</time>
      </trkpt>
      <trkpt lat="43.21373" lon="5.46522">
        <ele>406.4</ele>
        <time>2018-02-25T15:28:39Z</time>
      </trkpt>
      <trkpt lat="43.21373" lon="5.46519">
        <ele>405.4</ele>
        <time>2018-02-25T15:28:44Z</time>
      </trkpt>
      <trkpt lat="43.21376" lon="5.46518">
        <ele>404</ele>
        <time>2018-02-25T15:28:49Z</time>
      </trkpt>
      <trkpt lat="43.21378" lon="5.46516">
        <ele>407</ele>
        <time>2018-02-25T15:28:54Z</time>
      </trkpt>
      <trkpt lat="43.2138" lon="5.46514">
        <ele>402.4</ele>
        <time>2018-02-25T15:28:59Z</time>
      </trkpt>
      <trkpt lat="43.21381" lon="5.46514">
        <ele>403.8</ele>
        <time>2018-02-25T15:29:04Z</time>
      </trkpt>
      <trkpt lat="43.21384" lon="5.46513">
        <ele>404.6</ele>
        <time>2018-02-25T15:29:09Z</time>
      </trkpt>
      <trkpt lat="43.21388" lon="5.46514">
        <ele>399.6</ele>
        <time>2018-02-25T15:29:14Z</time>
      </trkpt>
      <trkpt lat="43.21393" lon="5.46515">
        <ele>401</ele>
        <time>2018-02-25T15:29:19Z</time>
      </trkpt>
      <trkpt lat="43.21396" lon="5.46513">
        <ele>396.8</ele>
        <time>2018-02-25T15:29:24Z</time>
      </trkpt>
      <trkpt lat="43.214" lon="5.46512">
        <ele>395.2</ele>
        <time>2018-02-25T15:29:30Z</time>
      </trkpt>
      <trkpt lat="43.21405" lon="5.46512">
        <ele>394.6</ele>
        <time>2018-02-25T15:29:35Z</time>
      </trkpt>
      <trkpt lat="43.2141" lon="5.46513">
        <ele>391.8</ele>
        <time>2018-02-25T15:29:40Z</time>
      </trkpt>
      <trkpt lat="43.21415" lon="5.46513">
        <ele>391.6</ele>
        <time>2018-02-25T15:29:45Z</time>
      </trkpt>
      <trkpt lat="43.21418" lon="5.46512">
        <ele>393.8</ele>
        <time>2018-02-25T15:29:50Z</time>
      </trkpt>
      <trkpt lat="43.2142" lon="5.4651">
        <ele>391.2</ele>
        <time>2018-02-25T15:29:55Z</time>
      </trkpt>
      <trkpt lat="43.21421" lon="5.46508">
        <ele>391.6</ele>
        <time>2018-02-25T15:30:00Z</time>
      </trkpt>
      <trkpt lat="43.21422" lon="5.46506">
        <ele>388.2</ele>
        <time>2018-02-25T15:30:05Z</time>
      </trkpt>
      <trkpt lat="43.21423" lon="5.46503">
        <ele>389.4</ele>
        <time>2018-02-25T15:30:15Z</time>
      </trkpt>
      <trkpt lat="43.21424" lon="5.46502">
        <ele>387.2</ele>
        <time>2018-02-25T15:30:20Z</time>
      </trkpt>
      <trkpt lat="43.21426" lon="5.46502">
        <ele>385.4</ele>
        <time>2018-02-25T15:30:25Z</time>
      </trkpt>
      <trkpt lat="43.21428" lon="5.465">
        <ele>384.6</ele>
        <time>2018-02-25T15:30:30Z</time>
      </trkpt>
      <trkpt lat="43.21427" lon="5.46497">
        <ele>383.8</ele>
        <time>2018-02-25T15:30:50Z</time>
      </trkpt>
      <trkpt lat="43.21428" lon="5.46496">
        <ele>383.6</ele>
        <time>2018-02-25T15:30:55Z</time>
      </trkpt>
      <trkpt lat="43.21428" lon="5.46493">
        <ele>382.8</ele>
        <time>2018-02-25T15:31:00Z</time>
      </trkpt>
      <trkpt lat="43.21429" lon="5.46491">
        <ele>380.4</ele>
        <time>2018-02-25T15:31:05Z</time>
      </trkpt>
      <trkpt lat="43.21431" lon="5.46488">
        <ele>384.8</ele>
        <time>2018-02-25T15:31:40Z</time>
      </trkpt>
      <trkpt lat="43.21435" lon="5.46485">
        <ele>380.2</ele>
        <time>2018-02-25T15:31:55Z</time>
      </trkpt>
      <trkpt lat="43.21439" lon="5.46482">
        <ele>376.8</ele>
        <time>2018-02-25T15:32:00Z</time>
      </trkpt>
      <trkpt lat="43.21444" lon="5.46478">
        <ele>380.6</ele>
        <time>2018-02-25T15:32:05Z</time>
      </trkpt>
      <trkpt lat="43.21449" lon="5.46475">
        <ele>382.8</ele>
        <time>2018-02-25T15:32:10Z</time>
      </trkpt>
      <trkpt lat="43.21453" lon="5.46471">
        <ele>378.4</ele>
        <time>2018-02-25T15:32:15Z</time>
      </trkpt>
      <trkpt lat="43.21456" lon="5.46465">
        <ele>378.6</ele>
        <time>2018-02-25T15:32:20Z</time>
      </trkpt>
      <trkpt lat="43.21461" lon="5.46463">
        <ele>379</ele>
        <time>2018-02-25T15:32:25Z</time>
      </trkpt>
      <trkpt lat="43.21463" lon="5.46459">
        <ele>378.4</ele>
        <time>2018-02-25T15:32:30Z</time>
      </trkpt>
      <trkpt lat="43.21463" lon="5.46455">
        <ele>378.4</ele>
        <time>2018-02-25T15:32:35Z</time>
      </trkpt>
      <trkpt lat="43.21463" lon="5.4645">
        <ele>380.2</ele>
        <time>2018-02-25T15:32:40Z</time>
      </trkpt>
      <trkpt lat="43.21463" lon="5.46446">
        <ele>381.6</ele>
        <time>2018-02-25T15:32:45Z</time>
      </trkpt>
      <trkpt lat="43.21461" lon="5.46443">
        <ele>381.8</ele>
        <time>2018-02-25T15:32:50Z</time>
      </trkpt>
      <trkpt lat="43.21457" lon="5.46439">
        <ele>380.4</ele>
        <time>2018-02-25T15:32:55Z</time>
      </trkpt>
      <trkpt lat="43.21453" lon="5.46436">
        <ele>379.4</ele>
        <time>2018-02-25T15:33:00Z</time>
      </trkpt>
      <trkpt lat="43.21449" lon="5.46435">
        <ele>377.6</ele>
        <time>2018-02-25T15:33:05Z</time>
      </trkpt>
      <trkpt lat="43.21445" lon="5.46431">
        <ele>375.8</ele>
        <time>2018-02-25T15:33:10Z</time>
      </trkpt>
      <trkpt lat="43.21442" lon="5.46424">
        <ele>374.6</ele>
        <time>2018-02-25T15:33:15Z</time>
      </trkpt>
      <trkpt lat="43.2144" lon="5.46418">
        <ele>374.2</ele>
        <time>2018-02-25T15:33:20Z</time>
      </trkpt>
      <trkpt lat="43.21441" lon="5.4641">
        <ele>375.6</ele>
        <time>2018-02-25T15:33:25Z</time>
      </trkpt>
      <trkpt lat="43.21441" lon="5.46403">
        <ele>373.6</ele>
        <time>2018-02-25T15:33:30Z</time>
      </trkpt>
      <trkpt lat="43.21444" lon="5.46395">
        <ele>372.8</ele>
        <time>2018-02-25T15:33:35Z</time>
      </trkpt>
      <trkpt lat="43.21448" lon="5.46388">
        <ele>374.2</ele>
        <time>2018-02-25T15:33:40Z</time>
      </trkpt>
      <trkpt lat="43.21449" lon="5.46384">
        <ele>374.8</ele>
        <time>2018-02-25T15:33:45Z</time>
      </trkpt>
      <trkpt lat="43.21449" lon="5.46377">
        <ele>375</ele>
        <time>2018-02-25T15:33:50Z</time>
      </trkpt>
      <trkpt lat="43.2145" lon="5.46369">
        <ele>374.4</ele>
        <time>2018-02-25T15:33:55Z</time>
      </trkpt>
      <trkpt lat="43.21454" lon="5.46362">
        <ele>372.2</ele>
        <time>2018-02-25T15:34:00Z</time>
      </trkpt>
      <trkpt lat="43.21457" lon="5.46357">
        <ele>371.4</ele>
        <time>2018-02-25T15:34:05Z</time>
      </trkpt>
      <trkpt lat="43.21462" lon="5.46351">
        <ele>371.2</ele>
        <time>2018-02-25T15:34:10Z</time>
      </trkpt>
      <trkpt lat="43.21467" lon="5.46344">
        <ele>372.2</ele>
        <time>2018-02-25T15:34:15Z</time>
      </trkpt>
      <trkpt lat="43.2147" lon="5.46339">
        <ele>371</ele>
        <time>2018-02-25T15:34:20Z</time>
      </trkpt>
      <trkpt lat="43.21466" lon="5.46335">
        <ele>369.8</ele>
        <time>2018-02-25T15:34:25Z</time>
      </trkpt>
      <trkpt lat="43.21463" lon="5.46334">
        <ele>370</ele>
        <time>2018-02-25T15:34:30Z</time>
      </trkpt>
      <trkpt lat="43.21462" lon="5.46334">
        <ele>370.4</ele>
        <time>2018-02-25T15:34:35Z</time>
      </trkpt>
      <trkpt lat="43.21459" lon="5.46334">
        <ele>370</ele>
        <time>2018-02-25T15:34:40Z</time>
      </trkpt>
      <trkpt lat="43.21455" lon="5.46331">
        <ele>371.2</ele>
        <time>2018-02-25T15:34:45Z</time>
      </trkpt>
      <trkpt lat="43.21451" lon="5.46326">
        <ele>370.4</ele>
        <time>2018-02-25T15:34:50Z</time>
      </trkpt>
      <trkpt lat="43.21448" lon="5.4632">
        <ele>368.2</ele>
        <time>2018-02-25T15:34:55Z</time>
      </trkpt>
      <trkpt lat="43.21445" lon="5.46314">
        <ele>368.4</ele>
        <time>2018-02-25T15:35:00Z</time>
      </trkpt>
      <trkpt lat="43.21442" lon="5.46308">
        <ele>366.8</ele>
        <time>2018-02-25T15:35:05Z</time>
      </trkpt>
      <trkpt lat="43.2144" lon="5.46303">
        <ele>364.6</ele>
        <time>2018-02-25T15:35:10Z</time>
      </trkpt>
      <trkpt lat="43.21439" lon="5.46295">
        <ele>364.8</ele>
        <time>2018-02-25T15:35:15Z</time>
      </trkpt>
      <trkpt lat="43.21439" lon="5.46287">
        <ele>361.6</ele>
        <time>2018-02-25T15:35:20Z</time>
      </trkpt>
      <trkpt lat="43.21438" lon="5.46281">
        <ele>362.2</ele>
        <time>2018-02-25T15:35:25Z</time>
      </trkpt>
      <trkpt lat="43.21437" lon="5.46273">
        <ele>360</ele>
        <time>2018-02-25T15:35:30Z</time>
      </trkpt>
      <trkpt lat="43.21437" lon="5.46265">
        <ele>357.4</ele>
        <time>2018-02-25T15:35:35Z</time>
      </trkpt>
      <trkpt lat="43.21437" lon="5.46256">
        <ele>356.6</ele>
        <time>2018-02-25T15:35:40Z</time>
      </trkpt>
      <trkpt lat="43.21438" lon="5.46249">
        <ele>361</ele>
        <time>2018-02-25T15:35:45Z</time>
      </trkpt>
      <trkpt lat="43.21439" lon="5.46247">
        <ele>357</ele>
        <time>2018-02-25T15:35:50Z</time>
      </trkpt>
      <trkpt lat="43.21439" lon="5.46246">
        <ele>356</ele>
        <time>2018-02-25T15:36:15Z</time>
      </trkpt>
      <trkpt lat="43.21439" lon="5.46246">
        <ele>355.8</ele>
        <time>2018-02-25T15:36:20Z</time>
      </trkpt>
      <trkpt lat="43.21438" lon="5.46245">
        <ele>355.4</ele>
        <time>2018-02-25T15:36:25Z</time>
      </trkpt>
      <trkpt lat="43.21439" lon="5.4624">
        <ele>353.8</ele>
        <time>2018-02-25T15:36:55Z</time>
      </trkpt>
      <trkpt lat="43.21439" lon="5.46238">
        <ele>354</ele>
        <time>2018-02-25T15:37:00Z</time>
      </trkpt>
      <trkpt lat="43.21439" lon="5.46238">
        <ele>353.8</ele>
        <time>2018-02-25T15:37:15Z</time>
      </trkpt>
      <trkpt lat="43.21439" lon="5.46233">
        <ele>352</ele>
        <time>2018-02-25T15:37:20Z</time>
      </trkpt>
      <trkpt lat="43.2144" lon="5.46228">
        <ele>355.6</ele>
        <time>2018-02-25T15:37:25Z</time>
      </trkpt>
      <trkpt lat="43.2144" lon="5.46228">
        <ele>354</ele>
        <time>2018-02-25T15:37:40Z</time>
      </trkpt>
      <trkpt lat="43.21441" lon="5.46222">
        <ele>354.8</ele>
        <time>2018-02-25T15:37:45Z</time>
      </trkpt>
      <trkpt lat="43.21442" lon="5.46215">
        <ele>355.8</ele>
        <time>2018-02-25T15:37:50Z</time>
      </trkpt>
      <trkpt lat="43.21443" lon="5.46208">
        <ele>353.4</ele>
        <time>2018-02-25T15:37:55Z</time>
      </trkpt>
      <trkpt lat="43.21443" lon="5.46201">
        <ele>355.8</ele>
        <time>2018-02-25T15:38:00Z</time>
      </trkpt>
      <trkpt lat="43.21446" lon="5.46196">
        <ele>353.2</ele>
        <time>2018-02-25T15:38:05Z</time>
      </trkpt>
      <trkpt lat="43.21451" lon="5.46192">
        <ele>355.6</ele>
        <time>2018-02-25T15:38:10Z</time>
      </trkpt>
      <trkpt lat="43.21454" lon="5.46189">
        <ele>354.8</ele>
        <time>2018-02-25T15:38:15Z</time>
      </trkpt>
      <trkpt lat="43.21455" lon="5.4619">
        <ele>355.8</ele>
        <time>2018-02-25T15:38:20Z</time>
      </trkpt>
      <trkpt lat="43.21461" lon="5.46191">
        <ele>354.6</ele>
        <time>2018-02-25T15:38:25Z</time>
      </trkpt>
      <trkpt lat="43.21466" lon="5.46187">
        <ele>351.8</ele>
        <time>2018-02-25T15:38:30Z</time>
      </trkpt>
      <trkpt lat="43.2147" lon="5.46183">
        <ele>354.8</ele>
        <time>2018-02-25T15:38:35Z</time>
      </trkpt>
      <trkpt lat="43.21475" lon="5.46182">
        <ele>352.8</ele>
        <time>2018-02-25T15:38:40Z</time>
      </trkpt>
      <trkpt lat="43.21481" lon="5.46182">
        <ele>355.2</ele>
        <time>2018-02-25T15:38:45Z</time>
      </trkpt>
      <trkpt lat="43.21486" lon="5.46181">
        <ele>354.4</ele>
        <time>2018-02-25T15:38:50Z</time>
      </trkpt>
      <trkpt lat="43.21489" lon="5.46176">
        <ele>352</ele>
        <time>2018-02-25T15:38:55Z</time>
      </trkpt>
      <trkpt lat="43.21494" lon="5.46175">
        <ele>356.6</ele>
        <time>2018-02-25T15:39:00Z</time>
      </trkpt>
      <trkpt lat="43.21499" lon="5.46173">
        <ele>356.6</ele>
        <time>2018-02-25T15:39:05Z</time>
      </trkpt>
      <trkpt lat="43.21502" lon="5.46169">
        <ele>355.4</ele>
        <time>2018-02-25T15:39:10Z</time>
      </trkpt>
      <trkpt lat="43.21507" lon="5.4617">
        <ele>354.8</ele>
        <time>2018-02-25T15:39:30Z</time>
      </trkpt>
      <trkpt lat="43.21511" lon="5.46169">
        <ele>355.2</ele>
        <time>2018-02-25T15:39:35Z</time>
      </trkpt>
      <trkpt lat="43.21517" lon="5.46168">
        <ele>352.2</ele>
        <time>2018-02-25T15:39:40Z</time>
      </trkpt>
      <trkpt lat="43.21519" lon="5.46161">
        <ele>350.8</ele>
        <time>2018-02-25T15:39:45Z</time>
      </trkpt>
      <trkpt lat="43.21518" lon="5.46155">
        <ele>354</ele>
        <time>2018-02-25T15:39:50Z</time>
      </trkpt>
      <trkpt lat="43.2152" lon="5.46148">
        <ele>353.8</ele>
        <time>2018-02-25T15:39:55Z</time>
      </trkpt>
      <trkpt lat="43.21524" lon="5.46141">
        <ele>353</ele>
        <time>2018-02-25T15:40:00Z</time>
      </trkpt>
      <trkpt lat="43.21525" lon="5.46133">
        <ele>353.8</ele>
        <time>2018-02-25T15:40:05Z</time>
      </trkpt>
      <trkpt lat="43.21525" lon="5.46124">
        <ele>350.6</ele>
        <time>2018-02-25T15:40:10Z</time>
      </trkpt>
      <trkpt lat="43.21527" lon="5.46115">
        <ele>355.6</ele>
        <time>2018-02-25T15:40:15Z</time>
      </trkpt>
      <trkpt lat="43.21527" lon="5.46109">
        <ele>355.8</ele>
        <time>2018-02-25T15:40:20Z</time>
      </trkpt>
      <trkpt lat="43.21525" lon="5.461">
        <ele>358</ele>
        <time>2018-02-25T15:40:25Z</time>
      </trkpt>
      <trkpt lat="43.21524" lon="5.46091">
        <ele>357</ele>
        <time>2018-02-25T15:40:30Z</time>
      </trkpt>
      <trkpt lat="43.21526" lon="5.46084">
        <ele>358.8</ele>
        <time>2018-02-25T15:40:35Z</time>
      </trkpt>
      <trkpt lat="43.21528" lon="5.4608">
        <ele>361</ele>
        <time>2018-02-25T15:40:40Z</time>
      </trkpt>
      <trkpt lat="43.2153" lon="5.46075">
        <ele>364.2</ele>
        <time>2018-02-25T15:40:45Z</time>
      </trkpt>
      <trkpt lat="43.21533" lon="5.46069">
        <ele>363.4</ele>
        <time>2018-02-25T15:40:50Z</time>
      </trkpt>
      <trkpt lat="43.21534" lon="5.46061">
        <ele>359.8</ele>
        <time>2018-02-25T15:40:55Z</time>
      </trkpt>
      <trkpt lat="43.21536" lon="5.46055">
        <ele>362.2</ele>
        <time>2018-02-25T15:41:00Z</time>
      </trkpt>
      <trkpt lat="43.21536" lon="5.46049">
        <ele>363.2</ele>
        <time>2018-02-25T15:41:05Z</time>
      </trkpt>
      <trkpt lat="43.21538" lon="5.46046">
        <ele>361.2</ele>
        <time>2018-02-25T15:41:10Z</time>
      </trkpt>
      <trkpt lat="43.21538" lon="5.46046">
        <ele>361.2</ele>
        <time>2018-02-25T15:41:15Z</time>
      </trkpt>
      <trkpt lat="43.21543" lon="5.46047">
        <ele>358.4</ele>
        <time>2018-02-25T15:41:20Z</time>
      </trkpt>
      <trkpt lat="43.21549" lon="5.46048">
        <ele>358.2</ele>
        <time>2018-02-25T15:41:25Z</time>
      </trkpt>
      <trkpt lat="43.21555" lon="5.46051">
        <ele>358.8</ele>
        <time>2018-02-25T15:41:30Z</time>
      </trkpt>
      <trkpt lat="43.21562" lon="5.46052">
        <ele>358.2</ele>
        <time>2018-02-25T15:41:35Z</time>
      </trkpt>
      <trkpt lat="43.21567" lon="5.46057">
        <ele>359.4</ele>
        <time>2018-02-25T15:41:40Z</time>
      </trkpt>
      <trkpt lat="43.21572" lon="5.46059">
        <ele>362</ele>
        <time>2018-02-25T15:41:45Z</time>
      </trkpt>
      <trkpt lat="43.21572" lon="5.4606">
        <ele>362.6</ele>
        <time>2018-02-25T15:41:50Z</time>
      </trkpt>
      <trkpt lat="43.21576" lon="5.46061">
        <ele>360.6</ele>
        <time>2018-02-25T15:41:55Z</time>
      </trkpt>
      <trkpt lat="43.21579" lon="5.46063">
        <ele>363.2</ele>
        <time>2018-02-25T15:42:00Z</time>
      </trkpt>
      <trkpt lat="43.21584" lon="5.46063">
        <ele>365.6</ele>
        <time>2018-02-25T15:42:05Z</time>
      </trkpt>
      <trkpt lat="43.21589" lon="5.46065">
        <ele>359.6</ele>
        <time>2018-02-25T15:42:10Z</time>
      </trkpt>
      <trkpt lat="43.21593" lon="5.46065">
        <ele>362.8</ele>
        <time>2018-02-25T15:42:15Z</time>
      </trkpt>
      <trkpt lat="43.216" lon="5.46064">
        <ele>357</ele>
        <time>2018-02-25T15:42:20Z</time>
      </trkpt>
      <trkpt lat="43.21606" lon="5.46061">
        <ele>360.6</ele>
        <time>2018-02-25T15:42:25Z</time>
      </trkpt>
      <trkpt lat="43.2161" lon="5.46059">
        <ele>357.6</ele>
        <time>2018-02-25T15:42:30Z</time>
      </trkpt>
      <trkpt lat="43.21615" lon="5.46056">
        <ele>360</ele>
        <time>2018-02-25T15:42:35Z</time>
      </trkpt>
      <trkpt lat="43.21621" lon="5.46053">
        <ele>360.8</ele>
        <time>2018-02-25T15:42:40Z</time>
      </trkpt>
      <trkpt lat="43.21626" lon="5.46052">
        <ele>359.4</ele>
        <time>2018-02-25T15:42:45Z</time>
      </trkpt>
      <trkpt lat="43.21632" lon="5.46054">
        <ele>360.8</ele>
        <time>2018-02-25T15:42:50Z</time>
      </trkpt>
      <trkpt lat="43.21636" lon="5.46056">
        <ele>357.8</ele>
        <time>2018-02-25T15:42:55Z</time>
      </trkpt>
      <trkpt lat="43.21642" lon="5.46058">
        <ele>356.6</ele>
        <time>2018-02-25T15:43:00Z</time>
      </trkpt>
      <trkpt lat="43.21647" lon="5.46059">
        <ele>360.2</ele>
        <time>2018-02-25T15:43:05Z</time>
      </trkpt>
      <trkpt lat="43.21652" lon="5.46062">
        <ele>359.2</ele>
        <time>2018-02-25T15:43:10Z</time>
      </trkpt>
      <trkpt lat="43.21658" lon="5.46065">
        <ele>355.6</ele>
        <time>2018-02-25T15:43:15Z</time>
      </trkpt>
      <trkpt lat="43.21663" lon="5.46066">
        <ele>357.6</ele>
        <time>2018-02-25T15:43:20Z</time>
      </trkpt>
      <trkpt lat="43.21666" lon="5.46062">
        <ele>360</ele>
        <time>2018-02-25T15:43:25Z</time>
      </trkpt>
      <trkpt lat="43.2167" lon="5.46056">
        <ele>358.6</ele>
        <time>2018-02-25T15:43:30Z</time>
      </trkpt>
      <trkpt lat="43.21677" lon="5.46052">
        <ele>361.6</ele>
        <time>2018-02-25T15:43:35Z</time>
      </trkpt>
      <trkpt lat="43.21681" lon="5.4605">
        <ele>361</ele>
        <time>2018-02-25T15:43:40Z</time>
      </trkpt>
      <trkpt lat="43.21685" lon="5.46049">
        <ele>360</ele>
        <time>2018-02-25T15:43:45Z</time>
      </trkpt>
      <trkpt lat="43.2169" lon="5.46047">
        <ele>362</ele>
        <time>2018-02-25T15:43:50Z</time>
      </trkpt>
      <trkpt lat="43.21694" lon="5.46044">
        <ele>364.4</ele>
        <time>2018-02-25T15:43:55Z</time>
      </trkpt>
      <trkpt lat="43.21697" lon="5.46038">
        <ele>366.2</ele>
        <time>2018-02-25T15:44:00Z</time>
      </trkpt>
      <trkpt lat="43.21698" lon="5.46033">
        <ele>367</ele>
        <time>2018-02-25T15:44:05Z</time>
      </trkpt>
      <trkpt lat="43.21695" lon="5.46025">
        <ele>364.6</ele>
        <time>2018-02-25T15:44:10Z</time>
      </trkpt>
      <trkpt lat="43.21692" lon="5.46017">
        <ele>366.4</ele>
        <time>2018-02-25T15:44:15Z</time>
      </trkpt>
      <trkpt lat="43.21688" lon="5.4601">
        <ele>370</ele>
        <time>2018-02-25T15:44:20Z</time>
      </trkpt>
      <trkpt lat="43.21687" lon="5.46004">
        <ele>370.6</ele>
        <time>2018-02-25T15:44:25Z</time>
      </trkpt>
      <trkpt lat="43.21683" lon="5.46">
        <ele>367.6</ele>
        <time>2018-02-25T15:44:30Z</time>
      </trkpt>
      <trkpt lat="43.21679" lon="5.45996">
        <ele>372</ele>
        <time>2018-02-25T15:44:35Z</time>
      </trkpt>
      <trkpt lat="43.21672" lon="5.45988">
        <ele>372.4</ele>
        <time>2018-02-25T15:44:40Z</time>
      </trkpt>
      <trkpt lat="43.21677" lon="5.45975">
        <ele>379.4</ele>
        <time>2018-02-25T15:44:55Z</time>
      </trkpt>
      <trkpt lat="43.21683" lon="5.45969">
        <ele>381.2</ele>
        <time>2018-02-25T15:45:00Z</time>
      </trkpt>
      <trkpt lat="43.21683" lon="5.4596">
        <ele>379</ele>
        <time>2018-02-25T15:45:05Z</time>
      </trkpt>
      <trkpt lat="43.21685" lon="5.45952">
        <ele>378.8</ele>
        <time>2018-02-25T15:45:10Z</time>
      </trkpt>
      <trkpt lat="43.21686" lon="5.45945">
        <ele>378.8</ele>
        <time>2018-02-25T15:45:15Z</time>
      </trkpt>
      <trkpt lat="43.21687" lon="5.45938">
        <ele>379</ele>
        <time>2018-02-25T15:45:20Z</time>
      </trkpt>
      <trkpt lat="43.21691" lon="5.45932">
        <ele>376</ele>
        <time>2018-02-25T15:45:25Z</time>
      </trkpt>
      <trkpt lat="43.21694" lon="5.45925">
        <ele>376.2</ele>
        <time>2018-02-25T15:45:30Z</time>
      </trkpt>
      <trkpt lat="43.21696" lon="5.45918">
        <ele>377.4</ele>
        <time>2018-02-25T15:45:35Z</time>
      </trkpt>
      <trkpt lat="43.21697" lon="5.45911">
        <ele>375.6</ele>
        <time>2018-02-25T15:45:40Z</time>
      </trkpt>
      <trkpt lat="43.21698" lon="5.45904">
        <ele>373</ele>
        <time>2018-02-25T15:45:45Z</time>
      </trkpt>
      <trkpt lat="43.21699" lon="5.459">
        <ele>371.4</ele>
        <time>2018-02-25T15:45:50Z</time>
      </trkpt>
      <trkpt lat="43.21704" lon="5.45897">
        <ele>374.8</ele>
        <time>2018-02-25T15:45:55Z</time>
      </trkpt>
      <trkpt lat="43.2171" lon="5.45897">
        <ele>370.4</ele>
        <time>2018-02-25T15:46:00Z</time>
      </trkpt>
      <trkpt lat="43.21716" lon="5.45895">
        <ele>368.6</ele>
        <time>2018-02-25T15:46:05Z</time>
      </trkpt>
      <trkpt lat="43.21722" lon="5.45894">
        <ele>371.6</ele>
        <time>2018-02-25T15:46:10Z</time>
      </trkpt>
      <trkpt lat="43.21727" lon="5.45893">
        <ele>372.4</ele>
        <time>2018-02-25T15:46:15Z</time>
      </trkpt>
      <trkpt lat="43.21731" lon="5.45893">
        <ele>370.4</ele>
        <time>2018-02-25T15:46:20Z</time>
      </trkpt>
      <trkpt lat="43.21737" lon="5.45893">
        <ele>368.6</ele>
        <time>2018-02-25T15:46:25Z</time>
      </trkpt>
      <trkpt lat="43.21742" lon="5.45892">
        <ele>371.6</ele>
        <time>2018-02-25T15:46:30Z</time>
      </trkpt>
      <trkpt lat="43.21746" lon="5.45891">
        <ele>372.2</ele>
        <time>2018-02-25T15:46:35Z</time>
      </trkpt>
      <trkpt lat="43.2175" lon="5.45887">
        <ele>371</ele>
        <time>2018-02-25T15:46:40Z</time>
      </trkpt>
      <trkpt lat="43.21755" lon="5.45885">
        <ele>369.8</ele>
        <time>2018-02-25T15:46:45Z</time>
      </trkpt>
      <trkpt lat="43.21759" lon="5.45882">
        <ele>372.2</ele>
        <time>2018-02-25T15:46:50Z</time>
      </trkpt>
      <trkpt lat="43.21764" lon="5.45881">
        <ele>373.4</ele>
        <time>2018-02-25T15:46:55Z</time>
      </trkpt>
      <trkpt lat="43.21769" lon="5.45881">
        <ele>374.2</ele>
        <time>2018-02-25T15:47:00Z</time>
      </trkpt>
      <trkpt lat="43.21774" lon="5.4588">
        <ele>373.8</ele>
        <time>2018-02-25T15:47:05Z</time>
      </trkpt>
      <trkpt lat="43.21779" lon="5.45879">
        <ele>373</ele>
        <time>2018-02-25T15:47:10Z</time>
      </trkpt>
      <trkpt lat="43.21782" lon="5.45878">
        <ele>374.4</ele>
        <time>2018-02-25T15:47:15Z</time>
      </trkpt>
      <trkpt lat="43.21787" lon="5.45877">
        <ele>373.2</ele>
        <time>2018-02-25T15:47:20Z</time>
      </trkpt>
      <trkpt lat="43.21791" lon="5.45876">
        <ele>371.8</ele>
        <time>2018-02-25T15:47:25Z</time>
      </trkpt>
      <trkpt lat="43.21796" lon="5.45872">
        <ele>370.2</ele>
        <time>2018-02-25T15:47:30Z</time>
      </trkpt>
      <trkpt lat="43.218" lon="5.45867">
        <ele>373.2</ele>
        <time>2018-02-25T15:47:35Z</time>
      </trkpt>
      <trkpt lat="43.21799" lon="5.45864">
        <ele>373.2</ele>
        <time>2018-02-25T15:47:40Z</time>
      </trkpt>
      <trkpt lat="43.21798" lon="5.45863">
        <ele>372.6</ele>
        <time>2018-02-25T15:47:50Z</time>
      </trkpt>
      <trkpt lat="43.21796" lon="5.4586">
        <ele>372.8</ele>
        <time>2018-02-25T15:47:55Z</time>
      </trkpt>
      <trkpt lat="43.21795" lon="5.45857">
        <ele>371.8</ele>
        <time>2018-02-25T15:48:00Z</time>
      </trkpt>
      <trkpt lat="43.21794" lon="5.45853">
        <ele>375.8</ele>
        <time>2018-02-25T15:48:05Z</time>
      </trkpt>
      <trkpt lat="43.2179" lon="5.45848">
        <ele>378</ele>
        <time>2018-02-25T15:48:10Z</time>
      </trkpt>
      <trkpt lat="43.21786" lon="5.45843">
        <ele>379.4</ele>
        <time>2018-02-25T15:48:15Z</time>
      </trkpt>
      <trkpt lat="43.21786" lon="5.45837">
        <ele>385</ele>
        <time>2018-02-25T15:48:20Z</time>
      </trkpt>
      <trkpt lat="43.21786" lon="5.45832">
        <ele>382.4</ele>
        <time>2018-02-25T15:48:25Z</time>
      </trkpt>
      <trkpt lat="43.21786" lon="5.45828">
        <ele>390</ele>
        <time>2018-02-25T15:48:30Z</time>
      </trkpt>
      <trkpt lat="43.21788" lon="5.45824">
        <ele>390.2</ele>
        <time>2018-02-25T15:48:35Z</time>
      </trkpt>
      <trkpt lat="43.2179" lon="5.45821">
        <ele>392.2</ele>
        <time>2018-02-25T15:48:50Z</time>
      </trkpt>
      <trkpt lat="43.2179" lon="5.45822">
        <ele>391</ele>
        <time>2018-02-25T15:49:00Z</time>
      </trkpt>
      <trkpt lat="43.21789" lon="5.45822">
        <ele>389.2</ele>
        <time>2018-02-25T15:49:05Z</time>
      </trkpt>
      <trkpt lat="43.21791" lon="5.45817">
        <ele>387.4</ele>
        <time>2018-02-25T15:49:10Z</time>
      </trkpt>
      <trkpt lat="43.21797" lon="5.45811">
        <ele>390</ele>
        <time>2018-02-25T15:49:15Z</time>
      </trkpt>
      <trkpt lat="43.21806" lon="5.45811">
        <ele>388.6</ele>
        <time>2018-02-25T15:49:20Z</time>
      </trkpt>
      <trkpt lat="43.21813" lon="5.45811">
        <ele>390.4</ele>
        <time>2018-02-25T15:49:25Z</time>
      </trkpt>
      <trkpt lat="43.21814" lon="5.45811">
        <ele>392</ele>
        <time>2018-02-25T15:49:30Z</time>
      </trkpt>
      <trkpt lat="43.21815" lon="5.4581">
        <ele>389.4</ele>
        <time>2018-02-25T15:49:35Z</time>
      </trkpt>
      <trkpt lat="43.21816" lon="5.4581">
        <ele>389.2</ele>
        <time>2018-02-25T15:49:40Z</time>
      </trkpt>
      <trkpt lat="43.21816" lon="5.45808">
        <ele>386.6</ele>
        <time>2018-02-25T15:49:55Z</time>
      </trkpt>
      <trkpt lat="43.21817" lon="5.45808">
        <ele>386.2</ele>
        <time>2018-02-25T15:50:00Z</time>
      </trkpt>
      <trkpt lat="43.21817" lon="5.45806">
        <ele>388.6</ele>
        <time>2018-02-25T15:50:05Z</time>
      </trkpt>
      <trkpt lat="43.21815" lon="5.45805">
        <ele>389.4</ele>
        <time>2018-02-25T15:50:15Z</time>
      </trkpt>
      <trkpt lat="43.21814" lon="5.45804">
        <ele>387.8</ele>
        <time>2018-02-25T15:50:20Z</time>
      </trkpt>
      <trkpt lat="43.21814" lon="5.45803">
        <ele>385</ele>
        <time>2018-02-25T15:50:35Z</time>
      </trkpt>
      <trkpt lat="43.21814" lon="5.45801">
        <ele>384.6</ele>
        <time>2018-02-25T15:50:40Z</time>
      </trkpt>
      <trkpt lat="43.21813" lon="5.45799">
        <ele>382.8</ele>
        <time>2018-02-25T15:50:45Z</time>
      </trkpt>
      <trkpt lat="43.21813" lon="5.45798">
        <ele>383</ele>
        <time>2018-02-25T15:50:50Z</time>
      </trkpt>
      <trkpt lat="43.21813" lon="5.45797">
        <ele>383.2</ele>
        <time>2018-02-25T15:50:55Z</time>
      </trkpt>
      <trkpt lat="43.21812" lon="5.45796">
        <ele>383.2</ele>
        <time>2018-02-25T15:51:00Z</time>
      </trkpt>
      <trkpt lat="43.21809" lon="5.45793">
        <ele>379.6</ele>
        <time>2018-02-25T15:51:05Z</time>
      </trkpt>
      <trkpt lat="43.21808" lon="5.45791">
        <ele>381.4</ele>
        <time>2018-02-25T15:51:10Z</time>
      </trkpt>
      <trkpt lat="43.21808" lon="5.4579">
        <ele>381.2</ele>
        <time>2018-02-25T15:51:35Z</time>
      </trkpt>
      <trkpt lat="43.21804" lon="5.45788">
        <ele>378.8</ele>
        <time>2018-02-25T15:51:45Z</time>
      </trkpt>
      <trkpt lat="43.21802" lon="5.45788">
        <ele>378.4</ele>
        <time>2018-02-25T15:51:50Z</time>
      </trkpt>
      <trkpt lat="43.21802" lon="5.45787">
        <ele>380.2</ele>
        <time>2018-02-25T15:52:00Z</time>
      </trkpt>
      <trkpt lat="43.21799" lon="5.45786">
        <ele>381.4</ele>
        <time>2018-02-25T15:52:10Z</time>
      </trkpt>
      <trkpt lat="43.21797" lon="5.45784">
        <ele>381.8</ele>
        <time>2018-02-25T15:52:25Z</time>
      </trkpt>
      <trkpt lat="43.21797" lon="5.45784">
        <ele>383.2</ele>
        <time>2018-02-25T15:52:35Z</time>
      </trkpt>
      <trkpt lat="43.21795" lon="5.4578">
        <ele>375.6</ele>
        <time>2018-02-25T15:53:05Z</time>
      </trkpt>
      <trkpt lat="43.21793" lon="5.45779">
        <ele>373.2</ele>
        <time>2018-02-25T15:53:10Z</time>
      </trkpt>
      <trkpt lat="43.21791" lon="5.45779">
        <ele>373.4</ele>
        <time>2018-02-25T15:53:25Z</time>
      </trkpt>
      <trkpt lat="43.21786" lon="5.45778">
        <ele>368.2</ele>
        <time>2018-02-25T15:53:50Z</time>
      </trkpt>
      <trkpt lat="43.21784" lon="5.45778">
        <ele>362.6</ele>
        <time>2018-02-25T15:54:40Z</time>
      </trkpt>
      <trkpt lat="43.21784" lon="5.45777">
        <ele>368.2</ele>
        <time>2018-02-25T15:54:45Z</time>
      </trkpt>
      <trkpt lat="43.21783" lon="5.45776">
        <ele>369.6</ele>
        <time>2018-02-25T15:54:50Z</time>
      </trkpt>
      <trkpt lat="43.2178" lon="5.45776">
        <ele>369.6</ele>
        <time>2018-02-25T15:54:55Z</time>
      </trkpt>
      <trkpt lat="43.21779" lon="5.45775">
        <ele>370.6</ele>
        <time>2018-02-25T15:55:00Z</time>
      </trkpt>
      <trkpt lat="43.21777" lon="5.45774">
        <ele>371.2</ele>
        <time>2018-02-25T15:55:05Z</time>
      </trkpt>
      <trkpt lat="43.21776" lon="5.45773">
        <ele>371.4</ele>
        <time>2018-02-25T15:55:10Z</time>
      </trkpt>
      <trkpt lat="43.21772" lon="5.4577">
        <ele>371.4</ele>
        <time>2018-02-25T15:55:20Z</time>
      </trkpt>
      <trkpt lat="43.2177" lon="5.45771">
        <ele>372</ele>
        <time>2018-02-25T15:55:25Z</time>
      </trkpt>
      <trkpt lat="43.2177" lon="5.4577">
        <ele>371.6</ele>
        <time>2018-02-25T15:55:35Z</time>
      </trkpt>
      <trkpt lat="43.21767" lon="5.45767">
        <ele>376.8</ele>
        <time>2018-02-25T15:55:40Z</time>
      </trkpt>
      <trkpt lat="43.21763" lon="5.45765">
        <ele>376.8</ele>
        <time>2018-02-25T15:55:45Z</time>
      </trkpt>
      <trkpt lat="43.21761" lon="5.45761">
        <ele>379.4</ele>
        <time>2018-02-25T15:55:50Z</time>
      </trkpt>
      <trkpt lat="43.21758" lon="5.4576">
        <ele>379.4</ele>
        <time>2018-02-25T15:55:55Z</time>
      </trkpt>
      <trkpt lat="43.21757" lon="5.4576">
        <ele>380.6</ele>
        <time>2018-02-25T15:56:00Z</time>
      </trkpt>
      <trkpt lat="43.21756" lon="5.45762">
        <ele>383.6</ele>
        <time>2018-02-25T15:56:05Z</time>
      </trkpt>
      <trkpt lat="43.21755" lon="5.45762">
        <ele>383.6</ele>
        <time>2018-02-25T15:56:10Z</time>
      </trkpt>
      <trkpt lat="43.21754" lon="5.45762">
        <ele>384.6</ele>
        <time>2018-02-25T15:56:15Z</time>
      </trkpt>
      <trkpt lat="43.21753" lon="5.45763">
        <ele>384.2</ele>
        <time>2018-02-25T15:56:20Z</time>
      </trkpt>
      <trkpt lat="43.21751" lon="5.45765">
        <ele>384.6</ele>
        <time>2018-02-25T15:56:25Z</time>
      </trkpt>
      <trkpt lat="43.2175" lon="5.45765">
        <ele>385.2</ele>
        <time>2018-02-25T15:56:30Z</time>
      </trkpt>
      <trkpt lat="43.21749" lon="5.45767">
        <ele>383.8</ele>
        <time>2018-02-25T15:56:35Z</time>
      </trkpt>
      <trkpt lat="43.21747" lon="5.4577">
        <ele>381.8</ele>
        <time>2018-02-25T15:57:15Z</time>
      </trkpt>
      <trkpt lat="43.21747" lon="5.45771">
        <ele>378.6</ele>
        <time>2018-02-25T15:57:20Z</time>
      </trkpt>
      <trkpt lat="43.21746" lon="5.45772">
        <ele>374.8</ele>
        <time>2018-02-25T15:57:35Z</time>
      </trkpt>
      <trkpt lat="43.21744" lon="5.45774">
        <ele>372.2</ele>
        <time>2018-02-25T15:57:40Z</time>
      </trkpt>
      <trkpt lat="43.21742" lon="5.45773">
        <ele>374.4</ele>
        <time>2018-02-25T15:57:45Z</time>
      </trkpt>
      <trkpt lat="43.2174" lon="5.45774">
        <ele>373.6</ele>
        <time>2018-02-25T15:57:50Z</time>
      </trkpt>
      <trkpt lat="43.21738" lon="5.45775">
        <ele>370.8</ele>
        <time>2018-02-25T15:57:55Z</time>
      </trkpt>
      <trkpt lat="43.21737" lon="5.45773">
        <ele>368.4</ele>
        <time>2018-02-25T15:58:00Z</time>
      </trkpt>
      <trkpt lat="43.21736" lon="5.45774">
        <ele>365.6</ele>
        <time>2018-02-25T15:58:05Z</time>
      </trkpt>
      <trkpt lat="43.21732" lon="5.45775">
        <ele>344.2</ele>
        <time>2018-02-25T15:59:30Z</time>
      </trkpt>
      <trkpt lat="43.21732" lon="5.45775">
        <ele>341.6</ele>
        <time>2018-02-25T15:59:35Z</time>
      </trkpt>
      <trkpt lat="43.2173" lon="5.45776">
        <ele>343.6</ele>
        <time>2018-02-25T15:59:40Z</time>
      </trkpt>
      <trkpt lat="43.21728" lon="5.45777">
        <ele>342.8</ele>
        <time>2018-02-25T15:59:45Z</time>
      </trkpt>
      <trkpt lat="43.21725" lon="5.45778">
        <ele>341.6</ele>
        <time>2018-02-25T15:59:50Z</time>
      </trkpt>
      <trkpt lat="43.21722" lon="5.45779">
        <ele>340.6</ele>
        <time>2018-02-25T16:00:00Z</time>
      </trkpt>
      <trkpt lat="43.2172" lon="5.45777">
        <ele>341.4</ele>
        <time>2018-02-25T16:00:05Z</time>
      </trkpt>
      <trkpt lat="43.21719" lon="5.45777">
        <ele>343.2</ele>
        <time>2018-02-25T16:00:10Z</time>
      </trkpt>
      <trkpt lat="43.21717" lon="5.45778">
        <ele>341.8</ele>
        <time>2018-02-25T16:00:15Z</time>
      </trkpt>
      <trkpt lat="43.21712" lon="5.45776">
        <ele>344.8</ele>
        <time>2018-02-25T16:00:30Z</time>
      </trkpt>
      <trkpt lat="43.21708" lon="5.45773">
        <ele>342.6</ele>
        <time>2018-02-25T16:00:35Z</time>
      </trkpt>
      <trkpt lat="43.21704" lon="5.4577">
        <ele>346.6</ele>
        <time>2018-02-25T16:00:40Z</time>
      </trkpt>
      <trkpt lat="43.21703" lon="5.45766">
        <ele>348</ele>
        <time>2018-02-25T16:00:45Z</time>
      </trkpt>
      <trkpt lat="43.21701" lon="5.45764">
        <ele>351.6</ele>
        <time>2018-02-25T16:00:55Z</time>
      </trkpt>
      <trkpt lat="43.21698" lon="5.4576">
        <ele>352.8</ele>
        <time>2018-02-25T16:01:00Z</time>
      </trkpt>
      <trkpt lat="43.21698" lon="5.45756">
        <ele>352</ele>
        <time>2018-02-25T16:01:05Z</time>
      </trkpt>
      <trkpt lat="43.21697" lon="5.45755">
        <ele>352</ele>
        <time>2018-02-25T16:01:10Z</time>
      </trkpt>
      <trkpt lat="43.21695" lon="5.4575">
        <ele>351.4</ele>
        <time>2018-02-25T16:01:15Z</time>
      </trkpt>
      <trkpt lat="43.21692" lon="5.45745">
        <ele>351.2</ele>
        <time>2018-02-25T16:01:20Z</time>
      </trkpt>
      <trkpt lat="43.21689" lon="5.45738">
        <ele>352.8</ele>
        <time>2018-02-25T16:01:25Z</time>
      </trkpt>
      <trkpt lat="43.21688" lon="5.45731">
        <ele>355.6</ele>
        <time>2018-02-25T16:01:30Z</time>
      </trkpt>
      <trkpt lat="43.21686" lon="5.45728">
        <ele>352.8</ele>
        <time>2018-02-25T16:01:35Z</time>
      </trkpt>
      <trkpt lat="43.21683" lon="5.45728">
        <ele>358.2</ele>
        <time>2018-02-25T16:01:40Z</time>
      </trkpt>
      <trkpt lat="43.2168" lon="5.45727">
        <ele>360</ele>
        <time>2018-02-25T16:01:45Z</time>
      </trkpt>
      <trkpt lat="43.21679" lon="5.45724">
        <ele>353</ele>
        <time>2018-02-25T16:01:50Z</time>
      </trkpt>
      <trkpt lat="43.21675" lon="5.4572">
        <ele>355.8</ele>
        <time>2018-02-25T16:01:55Z</time>
      </trkpt>
      <trkpt lat="43.2167" lon="5.45715">
        <ele>353.2</ele>
        <time>2018-02-25T16:02:00Z</time>
      </trkpt>
      <trkpt lat="43.21668" lon="5.45711">
        <ele>353.6</ele>
        <time>2018-02-25T16:02:05Z</time>
      </trkpt>
      <trkpt lat="43.21669" lon="5.45708">
        <ele>349.8</ele>
        <time>2018-02-25T16:02:10Z</time>
      </trkpt>
      <trkpt lat="43.21668" lon="5.45704">
        <ele>345.8</ele>
        <time>2018-02-25T16:02:15Z</time>
      </trkpt>
      <trkpt lat="43.21666" lon="5.45699">
        <ele>344.2</ele>
        <time>2018-02-25T16:02:20Z</time>
      </trkpt>
      <trkpt lat="43.21664" lon="5.45697">
        <ele>342</ele>
        <time>2018-02-25T16:02:25Z</time>
      </trkpt>
      <trkpt lat="43.21663" lon="5.45692">
        <ele>336.8</ele>
        <time>2018-02-25T16:02:30Z</time>
      </trkpt>
      <trkpt lat="43.21659" lon="5.45684">
        <ele>334</ele>
        <time>2018-02-25T16:02:36Z</time>
      </trkpt>
      <trkpt lat="43.21655" lon="5.45677">
        <ele>330.8</ele>
        <time>2018-02-25T16:02:41Z</time>
      </trkpt>
      <trkpt lat="43.21651" lon="5.4567">
        <ele>325.4</ele>
        <time>2018-02-25T16:02:46Z</time>
      </trkpt>
      <trkpt lat="43.21648" lon="5.45664">
        <ele>328.4</ele>
        <time>2018-02-25T16:02:51Z</time>
      </trkpt>
      <trkpt lat="43.21644" lon="5.45658">
        <ele>325.8</ele>
        <time>2018-02-25T16:02:56Z</time>
      </trkpt>
      <trkpt lat="43.21642" lon="5.45652">
        <ele>323.4</ele>
        <time>2018-02-25T16:03:01Z</time>
      </trkpt>
      <trkpt lat="43.21642" lon="5.45648">
        <ele>322.2</ele>
        <time>2018-02-25T16:03:06Z</time>
      </trkpt>
      <trkpt lat="43.21643" lon="5.45641">
        <ele>316.6</ele>
        <time>2018-02-25T16:03:11Z</time>
      </trkpt>
      <trkpt lat="43.21642" lon="5.45632">
        <ele>313.4</ele>
        <time>2018-02-25T16:03:17Z</time>
      </trkpt>
      <trkpt lat="43.21641" lon="5.45625">
        <ele>313.8</ele>
        <time>2018-02-25T16:03:22Z</time>
      </trkpt>
      <trkpt lat="43.21641" lon="5.45619">
        <ele>307.2</ele>
        <time>2018-02-25T16:03:27Z</time>
      </trkpt>
      <trkpt lat="43.21639" lon="5.45613">
        <ele>306.6</ele>
        <time>2018-02-25T16:03:32Z</time>
      </trkpt>
      <trkpt lat="43.21637" lon="5.45605">
        <ele>302.8</ele>
        <time>2018-02-25T16:03:37Z</time>
      </trkpt>
      <trkpt lat="43.21636" lon="5.45598">
        <ele>302.2</ele>
        <time>2018-02-25T16:03:42Z</time>
      </trkpt>
      <trkpt lat="43.21634" lon="5.4559">
        <ele>301.4</ele>
        <time>2018-02-25T16:03:47Z</time>
      </trkpt>
      <trkpt lat="43.21632" lon="5.45583">
        <ele>298.8</ele>
        <time>2018-02-25T16:03:52Z</time>
      </trkpt>
      <trkpt lat="43.21631" lon="5.45576">
        <ele>300.6</ele>
        <time>2018-02-25T16:03:57Z</time>
      </trkpt>
      <trkpt lat="43.21628" lon="5.4557">
        <ele>299.4</ele>
        <time>2018-02-25T16:04:02Z</time>
      </trkpt>
      <trkpt lat="43.2163" lon="5.45566">
        <ele>298.4</ele>
        <time>2018-02-25T16:04:12Z</time>
      </trkpt>
      <trkpt lat="43.21631" lon="5.45566">
        <ele>297.6</ele>
        <time>2018-02-25T16:04:17Z</time>
      </trkpt>
      <trkpt lat="43.21632" lon="5.45566">
        <ele>296.8</ele>
        <time>2018-02-25T16:04:22Z</time>
      </trkpt>
      <trkpt lat="43.21631" lon="5.45563">
        <ele>297</ele>
        <time>2018-02-25T16:04:27Z</time>
      </trkpt>
      <trkpt lat="43.21628" lon="5.45555">
        <ele>295.2</ele>
        <time>2018-02-25T16:04:32Z</time>
      </trkpt>
      <trkpt lat="43.21624" lon="5.45548">
        <ele>294.2</ele>
        <time>2018-02-25T16:04:37Z</time>
      </trkpt>
      <trkpt lat="43.21621" lon="5.45539">
        <ele>295</ele>
        <time>2018-02-25T16:04:42Z</time>
      </trkpt>
      <trkpt lat="43.21618" lon="5.4553">
        <ele>290.8</ele>
        <time>2018-02-25T16:04:47Z</time>
      </trkpt>
      <trkpt lat="43.21617" lon="5.45521">
        <ele>293.4</ele>
        <time>2018-02-25T16:04:52Z</time>
      </trkpt>
      <trkpt lat="43.21616" lon="5.45513">
        <ele>291.2</ele>
        <time>2018-02-25T16:04:57Z</time>
      </trkpt>
      <trkpt lat="43.21614" lon="5.45505">
        <ele>290</ele>
        <time>2018-02-25T16:05:02Z</time>
      </trkpt>
      <trkpt lat="43.21612" lon="5.45496">
        <ele>288.2</ele>
        <time>2018-02-25T16:05:07Z</time>
      </trkpt>
      <trkpt lat="43.21611" lon="5.45489">
        <ele>290.4</ele>
        <time>2018-02-25T16:05:12Z</time>
      </trkpt>
      <trkpt lat="43.2161" lon="5.45486">
        <ele>286.4</ele>
        <time>2018-02-25T16:05:17Z</time>
      </trkpt>
      <trkpt lat="43.21608" lon="5.45484">
        <ele>285</ele>
        <time>2018-02-25T16:05:22Z</time>
      </trkpt>
      <trkpt lat="43.21607" lon="5.4548">
        <ele>284.4</ele>
        <time>2018-02-25T16:05:27Z</time>
      </trkpt>
      <trkpt lat="43.21605" lon="5.45477">
        <ele>284.2</ele>
        <time>2018-02-25T16:05:32Z</time>
      </trkpt>
      <trkpt lat="43.21605" lon="5.45476">
        <ele>280</ele>
        <time>2018-02-25T16:06:02Z</time>
      </trkpt>
      <trkpt lat="43.21604" lon="5.45475">
        <ele>282.2</ele>
        <time>2018-02-25T16:06:07Z</time>
      </trkpt>
      <trkpt lat="43.21603" lon="5.45475">
        <ele>281.4</ele>
        <time>2018-02-25T16:06:12Z</time>
      </trkpt>
      <trkpt lat="43.21599" lon="5.45472">
        <ele>281</ele>
        <time>2018-02-25T16:06:17Z</time>
      </trkpt>
      <trkpt lat="43.21596" lon="5.45468">
        <ele>279.2</ele>
        <time>2018-02-25T16:06:22Z</time>
      </trkpt>
      <trkpt lat="43.21591" lon="5.45462">
        <ele>279.2</ele>
        <time>2018-02-25T16:06:27Z</time>
      </trkpt>
      <trkpt lat="43.21588" lon="5.45457">
        <ele>278.4</ele>
        <time>2018-02-25T16:06:32Z</time>
      </trkpt>
      <trkpt lat="43.21584" lon="5.45452">
        <ele>276.6</ele>
        <time>2018-02-25T16:06:37Z</time>
      </trkpt>
      <trkpt lat="43.2158" lon="5.4545">
        <ele>276</ele>
        <time>2018-02-25T16:06:42Z</time>
      </trkpt>
      <trkpt lat="43.21576" lon="5.45448">
        <ele>275</ele>
        <time>2018-02-25T16:06:47Z</time>
      </trkpt>
      <trkpt lat="43.21574" lon="5.45443">
        <ele>275.4</ele>
        <time>2018-02-25T16:06:52Z</time>
      </trkpt>
      <trkpt lat="43.21572" lon="5.45436">
        <ele>274</ele>
        <time>2018-02-25T16:06:57Z</time>
      </trkpt>
      <trkpt lat="43.21573" lon="5.45429">
        <ele>273.8</ele>
        <time>2018-02-25T16:07:02Z</time>
      </trkpt>
      <trkpt lat="43.21573" lon="5.45423">
        <ele>274.4</ele>
        <time>2018-02-25T16:07:07Z</time>
      </trkpt>
      <trkpt lat="43.21575" lon="5.45419">
        <ele>272.8</ele>
        <time>2018-02-25T16:07:12Z</time>
      </trkpt>
      <trkpt lat="43.21576" lon="5.45412">
        <ele>273.8</ele>
        <time>2018-02-25T16:07:17Z</time>
      </trkpt>
      <trkpt lat="43.21577" lon="5.45408">
        <ele>272.4</ele>
        <time>2018-02-25T16:07:22Z</time>
      </trkpt>
      <trkpt lat="43.21577" lon="5.45407">
        <ele>270.2</ele>
        <time>2018-02-25T16:07:42Z</time>
      </trkpt>
      <trkpt lat="43.21578" lon="5.45402">
        <ele>270.2</ele>
        <time>2018-02-25T16:07:47Z</time>
      </trkpt>
      <trkpt lat="43.21578" lon="5.45396">
        <ele>271</ele>
        <time>2018-02-25T16:07:52Z</time>
      </trkpt>
      <trkpt lat="43.21579" lon="5.45389">
        <ele>269.4</ele>
        <time>2018-02-25T16:07:57Z</time>
      </trkpt>
      <trkpt lat="43.21579" lon="5.45381">
        <ele>270.2</ele>
        <time>2018-02-25T16:08:02Z</time>
      </trkpt>
      <trkpt lat="43.21579" lon="5.45373">
        <ele>270</ele>
        <time>2018-02-25T16:08:07Z</time>
      </trkpt>
      <trkpt lat="43.21578" lon="5.45364">
        <ele>271</ele>
        <time>2018-02-25T16:08:12Z</time>
      </trkpt>
      <trkpt lat="43.21578" lon="5.45356">
        <ele>271.6</ele>
        <time>2018-02-25T16:08:17Z</time>
      </trkpt>
      <trkpt lat="43.21579" lon="5.4535">
        <ele>272.8</ele>
        <time>2018-02-25T16:08:22Z</time>
      </trkpt>
      <trkpt lat="43.21581" lon="5.45346">
        <ele>271.8</ele>
        <time>2018-02-25T16:08:27Z</time>
      </trkpt>
      <trkpt lat="43.21582" lon="5.45343">
        <ele>269</ele>
        <time>2018-02-25T16:08:32Z</time>
      </trkpt>
      <trkpt lat="43.21583" lon="5.4534">
        <ele>269.4</ele>
        <time>2018-02-25T16:08:37Z</time>
      </trkpt>
      <trkpt lat="43.21584" lon="5.45338">
        <ele>268.4</ele>
        <time>2018-02-25T16:08:42Z</time>
      </trkpt>
      <trkpt lat="43.21586" lon="5.45335">
        <ele>267.2</ele>
        <time>2018-02-25T16:08:47Z</time>
      </trkpt>
      <trkpt lat="43.21586" lon="5.45332">
        <ele>268</ele>
        <time>2018-02-25T16:08:52Z</time>
      </trkpt>
      <trkpt lat="43.21589" lon="5.45327">
        <ele>265.6</ele>
        <time>2018-02-25T16:08:57Z</time>
      </trkpt>
      <trkpt lat="43.21592" lon="5.45322">
        <ele>262.6</ele>
        <time>2018-02-25T16:09:02Z</time>
      </trkpt>
      <trkpt lat="43.21596" lon="5.45318">
        <ele>262.8</ele>
        <time>2018-02-25T16:09:07Z</time>
      </trkpt>
      <trkpt lat="43.21599" lon="5.45315">
        <ele>262.4</ele>
        <time>2018-02-25T16:09:12Z</time>
      </trkpt>
      <trkpt lat="43.216" lon="5.45311">
        <ele>262.6</ele>
        <time>2018-02-25T16:09:17Z</time>
      </trkpt>
      <trkpt lat="43.21602" lon="5.45308">
        <ele>261.6</ele>
        <time>2018-02-25T16:09:22Z</time>
      </trkpt>
      <trkpt lat="43.216" lon="5.45303">
        <ele>260</ele>
        <time>2018-02-25T16:09:27Z</time>
      </trkpt>
      <trkpt lat="43.216" lon="5.45301">
        <ele>258.2</ele>
        <time>2018-02-25T16:09:32Z</time>
      </trkpt>
      <trkpt lat="43.216" lon="5.45301">
        <ele>258.4</ele>
        <time>2018-02-25T16:09:37Z</time>
      </trkpt>
      <trkpt lat="43.21599" lon="5.45302">
        <ele>257.8</ele>
        <time>2018-02-25T16:09:42Z</time>
      </trkpt>
      <trkpt lat="43.21597" lon="5.45303">
        <ele>259.8</ele>
        <time>2018-02-25T16:09:47Z</time>
      </trkpt>
      <trkpt lat="43.21593" lon="5.45303">
        <ele>259.4</ele>
        <time>2018-02-25T16:09:52Z</time>
      </trkpt>
      <trkpt lat="43.21589" lon="5.45303">
        <ele>256.4</ele>
        <time>2018-02-25T16:09:57Z</time>
      </trkpt>
      <trkpt lat="43.21587" lon="5.45305">
        <ele>256.6</ele>
        <time>2018-02-25T16:10:02Z</time>
      </trkpt>
      <trkpt lat="43.21584" lon="5.45304">
        <ele>254</ele>
        <time>2018-02-25T16:10:07Z</time>
      </trkpt>
      <trkpt lat="43.2158" lon="5.45305">
        <ele>253.6</ele>
        <time>2018-02-25T16:10:12Z</time>
      </trkpt>
      <trkpt lat="43.21576" lon="5.45306">
        <ele>251</ele>
        <time>2018-02-25T16:10:17Z</time>
      </trkpt>
      <trkpt lat="43.21573" lon="5.45309">
        <ele>249.2</ele>
        <time>2018-02-25T16:10:22Z</time>
      </trkpt>
      <trkpt lat="43.2157" lon="5.45309">
        <ele>250.8</ele>
        <time>2018-02-25T16:10:27Z</time>
      </trkpt>
      <trkpt lat="43.21567" lon="5.45311">
        <ele>250</ele>
        <time>2018-02-25T16:10:32Z</time>
      </trkpt>
      <trkpt lat="43.21564" lon="5.45313">
        <ele>248.4</ele>
        <time>2018-02-25T16:10:37Z</time>
      </trkpt>
      <trkpt lat="43.21561" lon="5.45315">
        <ele>243.6</ele>
        <time>2018-02-25T16:10:42Z</time>
      </trkpt>
      <trkpt lat="43.21558" lon="5.45316">
        <ele>246</ele>
        <time>2018-02-25T16:10:47Z</time>
      </trkpt>
      <trkpt lat="43.21557" lon="5.45314">
        <ele>245.4</ele>
        <time>2018-02-25T16:10:52Z</time>
      </trkpt>
      <trkpt lat="43.21555" lon="5.45312">
        <ele>244.2</ele>
        <time>2018-02-25T16:10:57Z</time>
      </trkpt>
      <trkpt lat="43.21553" lon="5.45308">
        <ele>244.8</ele>
        <time>2018-02-25T16:11:02Z</time>
      </trkpt>
      <trkpt lat="43.21549" lon="5.45302">
        <ele>241.8</ele>
        <time>2018-02-25T16:11:07Z</time>
      </trkpt>
      <trkpt lat="43.21547" lon="5.45296">
        <ele>242.4</ele>
        <time>2018-02-25T16:11:12Z</time>
      </trkpt>
      <trkpt lat="43.21548" lon="5.4529">
        <ele>241.6</ele>
        <time>2018-02-25T16:11:17Z</time>
      </trkpt>
      <trkpt lat="43.21549" lon="5.45283">
        <ele>239.4</ele>
        <time>2018-02-25T16:11:22Z</time>
      </trkpt>
      <trkpt lat="43.21553" lon="5.45278">
        <ele>240</ele>
        <time>2018-02-25T16:11:27Z</time>
      </trkpt>
      <trkpt lat="43.21558" lon="5.45276">
        <ele>239.2</ele>
        <time>2018-02-25T16:11:32Z</time>
      </trkpt>
      <trkpt lat="43.21561" lon="5.45271">
        <ele>235.4</ele>
        <time>2018-02-25T16:11:37Z</time>
      </trkpt>
      <trkpt lat="43.21565" lon="5.45268">
        <ele>233.8</ele>
        <time>2018-02-25T16:11:42Z</time>
      </trkpt>
      <trkpt lat="43.21567" lon="5.45263">
        <ele>233</ele>
        <time>2018-02-25T16:11:47Z</time>
      </trkpt>
      <trkpt lat="43.21568" lon="5.45259">
        <ele>233</ele>
        <time>2018-02-25T16:11:52Z</time>
      </trkpt>
      <trkpt lat="43.2157" lon="5.45254">
        <ele>231</ele>
        <time>2018-02-25T16:11:57Z</time>
      </trkpt>
      <trkpt lat="43.21573" lon="5.4525">
        <ele>233</ele>
        <time>2018-02-25T16:12:02Z</time>
      </trkpt>
      <trkpt lat="43.21575" lon="5.45246">
        <ele>231</ele>
        <time>2018-02-25T16:12:07Z</time>
      </trkpt>
      <trkpt lat="43.21577" lon="5.45242">
        <ele>230.2</ele>
        <time>2018-02-25T16:12:12Z</time>
      </trkpt>
      <trkpt lat="43.21579" lon="5.45237">
        <ele>228.2</ele>
        <time>2018-02-25T16:12:17Z</time>
      </trkpt>
      <trkpt lat="43.21581" lon="5.45233">
        <ele>223.4</ele>
        <time>2018-02-25T16:12:22Z</time>
      </trkpt>
      <trkpt lat="43.21582" lon="5.45227">
        <ele>225.2</ele>
        <time>2018-02-25T16:12:28Z</time>
      </trkpt>
      <trkpt lat="43.21586" lon="5.45221">
        <ele>224.6</ele>
        <time>2018-02-25T16:12:33Z</time>
      </trkpt>
      <trkpt lat="43.21589" lon="5.45215">
        <ele>222.6</ele>
        <time>2018-02-25T16:12:38Z</time>
      </trkpt>
      <trkpt lat="43.21592" lon="5.45209">
        <ele>222.6</ele>
        <time>2018-02-25T16:12:43Z</time>
      </trkpt>
      <trkpt lat="43.21595" lon="5.45205">
        <ele>221</ele>
        <time>2018-02-25T16:12:48Z</time>
      </trkpt>
      <trkpt lat="43.21597" lon="5.452">
        <ele>220</ele>
        <time>2018-02-25T16:12:53Z</time>
      </trkpt>
      <trkpt lat="43.21601" lon="5.45198">
        <ele>219.4</ele>
        <time>2018-02-25T16:12:58Z</time>
      </trkpt>
      <trkpt lat="43.21606" lon="5.45202">
        <ele>217.4</ele>
        <time>2018-02-25T16:13:03Z</time>
      </trkpt>
      <trkpt lat="43.21611" lon="5.45207">
        <ele>218</ele>
        <time>2018-02-25T16:13:08Z</time>
      </trkpt>
      <trkpt lat="43.21615" lon="5.45211">
        <ele>219.2</ele>
        <time>2018-02-25T16:13:13Z</time>
      </trkpt>
      <trkpt lat="43.21621" lon="5.45214">
        <ele>217</ele>
        <time>2018-02-25T16:13:18Z</time>
      </trkpt>
      <trkpt lat="43.21626" lon="5.45217">
        <ele>217.8</ele>
        <time>2018-02-25T16:13:23Z</time>
      </trkpt>
      <trkpt lat="43.21631" lon="5.4522">
        <ele>219.4</ele>
        <time>2018-02-25T16:13:28Z</time>
      </trkpt>
      <trkpt lat="43.21636" lon="5.45223">
        <ele>217.2</ele>
        <time>2018-02-25T16:13:33Z</time>
      </trkpt>
      <trkpt lat="43.21641" lon="5.45227">
        <ele>216.8</ele>
        <time>2018-02-25T16:13:38Z</time>
      </trkpt>
      <trkpt lat="43.21646" lon="5.45232">
        <ele>219</ele>
        <time>2018-02-25T16:13:43Z</time>
      </trkpt>
      <trkpt lat="43.21651" lon="5.45236">
        <ele>218.4</ele>
        <time>2018-02-25T16:13:48Z</time>
      </trkpt>
      <trkpt lat="43.21656" lon="5.4524">
        <ele>217</ele>
        <time>2018-02-25T16:13:53Z</time>
      </trkpt>
      <trkpt lat="43.21661" lon="5.45245">
        <ele>217.8</ele>
        <time>2018-02-25T16:13:58Z</time>
      </trkpt>
      <trkpt lat="43.21666" lon="5.4525">
        <ele>216</ele>
        <time>2018-02-25T16:14:03Z</time>
      </trkpt>
      <trkpt lat="43.2167" lon="5.45256">
        <ele>218.4</ele>
        <time>2018-02-25T16:14:08Z</time>
      </trkpt>
      <trkpt lat="43.21676" lon="5.4526">
        <ele>216.2</ele>
        <time>2018-02-25T16:14:13Z</time>
      </trkpt>
      <trkpt lat="43.21682" lon="5.45264">
        <ele>215.8</ele>
        <time>2018-02-25T16:14:18Z</time>
      </trkpt>
      <trkpt lat="43.21687" lon="5.4527">
        <ele>213</ele>
        <time>2018-02-25T16:14:23Z</time>
      </trkpt>
      <trkpt lat="43.21692" lon="5.45274">
        <ele>213.4</ele>
        <time>2018-02-25T16:14:28Z</time>
      </trkpt>
      <trkpt lat="43.21698" lon="5.45277">
        <ele>215.6</ele>
        <time>2018-02-25T16:14:33Z</time>
      </trkpt>
      <trkpt lat="43.21703" lon="5.4528">
        <ele>213.2</ele>
        <time>2018-02-25T16:14:38Z</time>
      </trkpt>
      <trkpt lat="43.21708" lon="5.45283">
        <ele>212.4</ele>
        <time>2018-02-25T16:14:43Z</time>
      </trkpt>
      <trkpt lat="43.21714" lon="5.45285">
        <ele>210.8</ele>
        <time>2018-02-25T16:14:48Z</time>
      </trkpt>
      <trkpt lat="43.2172" lon="5.45286">
        <ele>211.6</ele>
        <time>2018-02-25T16:14:53Z</time>
      </trkpt>
      <trkpt lat="43.21726" lon="5.45286">
        <ele>211.8</ele>
        <time>2018-02-25T16:14:58Z</time>
      </trkpt>
      <trkpt lat="43.21732" lon="5.45283">
        <ele>208.6</ele>
        <time>2018-02-25T16:15:03Z</time>
      </trkpt>
      <trkpt lat="43.21735" lon="5.45277">
        <ele>209.2</ele>
        <time>2018-02-25T16:15:08Z</time>
      </trkpt>
      <trkpt lat="43.21736" lon="5.4527">
        <ele>209.4</ele>
        <time>2018-02-25T16:15:13Z</time>
      </trkpt>
      <trkpt lat="43.21735" lon="5.45263">
        <ele>204.6</ele>
        <time>2018-02-25T16:15:18Z</time>
      </trkpt>
      <trkpt lat="43.21733" lon="5.45255">
        <ele>207.8</ele>
        <time>2018-02-25T16:15:23Z</time>
      </trkpt>
      <trkpt lat="43.21731" lon="5.45248">
        <ele>206.4</ele>
        <time>2018-02-25T16:15:28Z</time>
      </trkpt>
      <trkpt lat="43.2173" lon="5.45239">
        <ele>206</ele>
        <time>2018-02-25T16:15:33Z</time>
      </trkpt>
      <trkpt lat="43.21728" lon="5.45232">
        <ele>209.4</ele>
        <time>2018-02-25T16:15:38Z</time>
      </trkpt>
      <trkpt lat="43.21726" lon="5.45224">
        <ele>205.6</ele>
        <time>2018-02-25T16:15:43Z</time>
      </trkpt>
      <trkpt lat="43.21725" lon="5.45217">
        <ele>210</ele>
        <time>2018-02-25T16:15:48Z</time>
      </trkpt>
      <trkpt lat="43.21723" lon="5.45209">
        <ele>208</ele>
        <time>2018-02-25T16:15:53Z</time>
      </trkpt>
      <trkpt lat="43.21722" lon="5.45201">
        <ele>206.4</ele>
        <time>2018-02-25T16:15:58Z</time>
      </trkpt>
      <trkpt lat="43.21721" lon="5.45193">
        <ele>205.6</ele>
        <time>2018-02-25T16:16:03Z</time>
      </trkpt>
      <trkpt lat="43.21721" lon="5.45187">
        <ele>206.4</ele>
        <time>2018-02-25T16:16:08Z</time>
      </trkpt>
      <trkpt lat="43.2172" lon="5.45179">
        <ele>208</ele>
        <time>2018-02-25T16:16:13Z</time>
      </trkpt>
      <trkpt lat="43.2172" lon="5.45171">
        <ele>207.4</ele>
        <time>2018-02-25T16:16:18Z</time>
      </trkpt>
      <trkpt lat="43.21719" lon="5.45163">
        <ele>206.2</ele>
        <time>2018-02-25T16:16:23Z</time>
      </trkpt>
      <trkpt lat="43.21718" lon="5.45155">
        <ele>203.8</ele>
        <time>2018-02-25T16:16:28Z</time>
      </trkpt>
      <trkpt lat="43.21718" lon="5.45146">
        <ele>209.4</ele>
        <time>2018-02-25T16:16:33Z</time>
      </trkpt>
      <trkpt lat="43.21718" lon="5.45138">
        <ele>209</ele>
        <time>2018-02-25T16:16:38Z</time>
      </trkpt>
      <trkpt lat="43.21718" lon="5.45129">
        <ele>206.8</ele>
        <time>2018-02-25T16:16:43Z</time>
      </trkpt>
      <trkpt lat="43.21717" lon="5.45121">
        <ele>206.8</ele>
        <time>2018-02-25T16:16:48Z</time>
      </trkpt>
      <trkpt lat="43.21717" lon="5.45113">
        <ele>208</ele>
        <time>2018-02-25T16:16:53Z</time>
      </trkpt>
      <trkpt lat="43.21716" lon="5.45105">
        <ele>210.6</ele>
        <time>2018-02-25T16:16:58Z</time>
      </trkpt>
      <trkpt lat="43.21714" lon="5.45097">
        <ele>209.4</ele>
        <time>2018-02-25T16:17:03Z</time>
      </trkpt>
      <trkpt lat="43.21711" lon="5.4509">
        <ele>212.2</ele>
        <time>2018-02-25T16:17:08Z</time>
      </trkpt>
      <trkpt lat="43.21708" lon="5.45082">
        <ele>210</ele>
        <time>2018-02-25T16:17:13Z</time>
      </trkpt>
      <trkpt lat="43.21703" lon="5.45075">
        <ele>209.8</ele>
        <time>2018-02-25T16:17:18Z</time>
      </trkpt>
      <trkpt lat="43.217" lon="5.45066">
        <ele>210.2</ele>
        <time>2018-02-25T16:17:23Z</time>
      </trkpt>
      <trkpt lat="43.21697" lon="5.45058">
        <ele>211.4</ele>
        <time>2018-02-25T16:17:28Z</time>
      </trkpt>
      <trkpt lat="43.21693" lon="5.4505">
        <ele>209.6</ele>
        <time>2018-02-25T16:17:33Z</time>
      </trkpt>
      <trkpt lat="43.21689" lon="5.45044">
        <ele>214.8</ele>
        <time>2018-02-25T16:17:38Z</time>
      </trkpt>
      <trkpt lat="43.21684" lon="5.45041">
        <ele>211.2</ele>
        <time>2018-02-25T16:17:43Z</time>
      </trkpt>
      <trkpt lat="43.2168" lon="5.45038">
        <ele>210.8</ele>
        <time>2018-02-25T16:17:48Z</time>
      </trkpt>
      <trkpt lat="43.21675" lon="5.45033">
        <ele>209.6</ele>
        <time>2018-02-25T16:17:53Z</time>
      </trkpt>
      <trkpt lat="43.21672" lon="5.45024">
        <ele>210.4</ele>
        <time>2018-02-25T16:17:58Z</time>
      </trkpt>
      <trkpt lat="43.21674" lon="5.45016">
        <ele>210</ele>
        <time>2018-02-25T16:18:03Z</time>
      </trkpt>
      <trkpt lat="43.21676" lon="5.45008">
        <ele>210.6</ele>
        <time>2018-02-25T16:18:08Z</time>
      </trkpt>
      <trkpt lat="43.21678" lon="5.45">
        <ele>211.8</ele>
        <time>2018-02-25T16:18:13Z</time>
      </trkpt>
      <trkpt lat="43.2168" lon="5.44993">
        <ele>209.8</ele>
        <time>2018-02-25T16:18:18Z</time>
      </trkpt>
      <trkpt lat="43.21682" lon="5.44986">
        <ele>214.8</ele>
        <time>2018-02-25T16:18:23Z</time>
      </trkpt>
      <trkpt lat="43.21684" lon="5.44978">
        <ele>210.2</ele>
        <time>2018-02-25T16:18:28Z</time>
      </trkpt>
      <trkpt lat="43.21687" lon="5.44971">
        <ele>209.6</ele>
        <time>2018-02-25T16:18:33Z</time>
      </trkpt>
      <trkpt lat="43.21689" lon="5.44964">
        <ele>212.4</ele>
        <time>2018-02-25T16:18:38Z</time>
      </trkpt>
      <trkpt lat="43.21692" lon="5.44957">
        <ele>209.8</ele>
        <time>2018-02-25T16:18:43Z</time>
      </trkpt>
      <trkpt lat="43.21698" lon="5.44952">
        <ele>209</ele>
        <time>2018-02-25T16:18:48Z</time>
      </trkpt>
      <trkpt lat="43.21702" lon="5.44946">
        <ele>209.6</ele>
        <time>2018-02-25T16:18:53Z</time>
      </trkpt>
      <trkpt lat="43.21707" lon="5.44942">
        <ele>210.8</ele>
        <time>2018-02-25T16:18:58Z</time>
      </trkpt>
      <trkpt lat="43.21713" lon="5.44938">
        <ele>208.2</ele>
        <time>2018-02-25T16:19:03Z</time>
      </trkpt>
      <trkpt lat="43.2172" lon="5.44935">
        <ele>207.4</ele>
        <time>2018-02-25T16:19:08Z</time>
      </trkpt>
      <trkpt lat="43.21726" lon="5.44932">
        <ele>204</ele>
        <time>2018-02-25T16:19:13Z</time>
      </trkpt>
      <trkpt lat="43.21731" lon="5.44928">
        <ele>206.6</ele>
        <time>2018-02-25T16:19:18Z</time>
      </trkpt>
      <trkpt lat="43.21736" lon="5.44923">
        <ele>207</ele>
        <time>2018-02-25T16:19:23Z</time>
      </trkpt>
      <trkpt lat="43.2174" lon="5.44918">
        <ele>205.8</ele>
        <time>2018-02-25T16:19:28Z</time>
      </trkpt>
      <trkpt lat="43.21744" lon="5.44913">
        <ele>208.4</ele>
        <time>2018-02-25T16:19:33Z</time>
      </trkpt>
      <trkpt lat="43.2175" lon="5.44909">
        <ele>209</ele>
        <time>2018-02-25T16:19:38Z</time>
      </trkpt>
      <trkpt lat="43.21757" lon="5.44909">
        <ele>209.2</ele>
        <time>2018-02-25T16:19:43Z</time>
      </trkpt>
      <trkpt lat="43.21763" lon="5.44909">
        <ele>205.4</ele>
        <time>2018-02-25T16:19:48Z</time>
      </trkpt>
      <trkpt lat="43.21769" lon="5.44909">
        <ele>205.8</ele>
        <time>2018-02-25T16:19:53Z</time>
      </trkpt>
      <trkpt lat="43.21776" lon="5.44909">
        <ele>207</ele>
        <time>2018-02-25T16:19:58Z</time>
      </trkpt>
      <trkpt lat="43.21782" lon="5.4491">
        <ele>205.8</ele>
        <time>2018-02-25T16:20:03Z</time>
      </trkpt>
      <trkpt lat="43.21788" lon="5.44911">
        <ele>208</ele>
        <time>2018-02-25T16:20:08Z</time>
      </trkpt>
      <trkpt lat="43.21795" lon="5.44911">
        <ele>209.4</ele>
        <time>2018-02-25T16:20:13Z</time>
      </trkpt>
      <trkpt lat="43.21801" lon="5.44911">
        <ele>209</ele>
        <time>2018-02-25T16:20:18Z</time>
      </trkpt>
      <trkpt lat="43.21806" lon="5.44907">
        <ele>210.4</ele>
        <time>2018-02-25T16:20:23Z</time>
      </trkpt>
      <trkpt lat="43.21807" lon="5.44901">
        <ele>209.4</ele>
        <time>2018-02-25T16:20:28Z</time>
      </trkpt>
      <trkpt lat="43.21807" lon="5.44892">
        <ele>209.2</ele>
        <time>2018-02-25T16:20:33Z</time>
      </trkpt>
      <trkpt lat="43.21807" lon="5.44883">
        <ele>207.6</ele>
        <time>2018-02-25T16:20:38Z</time>
      </trkpt>
      <trkpt lat="43.21807" lon="5.44874">
        <ele>205</ele>
        <time>2018-02-25T16:20:43Z</time>
      </trkpt>
      <trkpt lat="43.21809" lon="5.44866">
        <ele>209.8</ele>
        <time>2018-02-25T16:20:48Z</time>
      </trkpt>
      <trkpt lat="43.21814" lon="5.4486">
        <ele>211.6</ele>
        <time>2018-02-25T16:20:53Z</time>
      </trkpt>
      <trkpt lat="43.21819" lon="5.44856">
        <ele>209.6</ele>
        <time>2018-02-25T16:20:58Z</time>
      </trkpt>
      <trkpt lat="43.21825" lon="5.44853">
        <ele>211.2</ele>
        <time>2018-02-25T16:21:03Z</time>
      </trkpt>
      <trkpt lat="43.21831" lon="5.44853">
        <ele>214.6</ele>
        <time>2018-02-25T16:21:08Z</time>
      </trkpt>
      <trkpt lat="43.21837" lon="5.44853">
        <ele>213</ele>
        <time>2018-02-25T16:21:13Z</time>
      </trkpt>
      <trkpt lat="43.21843" lon="5.44854">
        <ele>211.2</ele>
        <time>2018-02-25T16:21:18Z</time>
      </trkpt>
      <trkpt lat="43.21849" lon="5.44854">
        <ele>213.6</ele>
        <time>2018-02-25T16:21:23Z</time>
      </trkpt>
      <trkpt lat="43.21855" lon="5.44853">
        <ele>213.4</ele>
        <time>2018-02-25T16:21:28Z</time>
      </trkpt>
      <trkpt lat="43.21862" lon="5.44854">
        <ele>211</ele>
        <time>2018-02-25T16:21:33Z</time>
      </trkpt>
      <trkpt lat="43.21868" lon="5.44852">
        <ele>211.6</ele>
        <time>2018-02-25T16:21:38Z</time>
      </trkpt>
      <trkpt lat="43.21872" lon="5.44848">
        <ele>210.8</ele>
        <time>2018-02-25T16:21:43Z</time>
      </trkpt>
      <trkpt lat="43.21873" lon="5.44849">
        <ele>212.4</ele>
        <time>2018-02-25T16:21:48Z</time>
      </trkpt>
      <trkpt lat="43.21873" lon="5.44849">
        <ele>211.8</ele>
        <time>2018-02-25T16:22:03Z</time>
      </trkpt>
      <trkpt lat="43.21874" lon="5.44846">
        <ele>210.6</ele>
        <time>2018-02-25T16:22:08Z</time>
      </trkpt>
      <trkpt lat="43.21876" lon="5.44837">
        <ele>209.2</ele>
        <time>2018-02-25T16:22:13Z</time>
      </trkpt>
      <trkpt lat="43.21878" lon="5.44828">
        <ele>214.4</ele>
        <time>2018-02-25T16:22:18Z</time>
      </trkpt>
      <trkpt lat="43.2188" lon="5.4482">
        <ele>210.4</ele>
        <time>2018-02-25T16:22:23Z</time>
      </trkpt>
      <trkpt lat="43.21877" lon="5.44811">
        <ele>210.6</ele>
        <time>2018-02-25T16:22:28Z</time>
      </trkpt>
      <trkpt lat="43.21876" lon="5.44802">
        <ele>212.4</ele>
        <time>2018-02-25T16:22:33Z</time>
      </trkpt>
      <trkpt lat="43.21875" lon="5.44793">
        <ele>212.8</ele>
        <time>2018-02-25T16:22:38Z</time>
      </trkpt>
      <trkpt lat="43.21875" lon="5.44784">
        <ele>216</ele>
        <time>2018-02-25T16:22:43Z</time>
      </trkpt>
      <trkpt lat="43.21877" lon="5.44776">
        <ele>214.8</ele>
        <time>2018-02-25T16:22:48Z</time>
      </trkpt>
      <trkpt lat="43.21881" lon="5.44768">
        <ele>216.6</ele>
        <time>2018-02-25T16:22:53Z</time>
      </trkpt>
      <trkpt lat="43.21884" lon="5.4476">
        <ele>215.8</ele>
        <time>2018-02-25T16:22:58Z</time>
      </trkpt>
      <trkpt lat="43.21887" lon="5.44752">
        <ele>216.6</ele>
        <time>2018-02-25T16:23:03Z</time>
      </trkpt>
      <trkpt lat="43.21887" lon="5.44743">
        <ele>215.6</ele>
        <time>2018-02-25T16:23:08Z</time>
      </trkpt>
      <trkpt lat="43.21887" lon="5.44734">
        <ele>219.2</ele>
        <time>2018-02-25T16:23:13Z</time>
      </trkpt>
      <trkpt lat="43.21885" lon="5.44727">
        <ele>219.6</ele>
        <time>2018-02-25T16:23:18Z</time>
      </trkpt>
      <trkpt lat="43.21882" lon="5.4472">
        <ele>219</ele>
        <time>2018-02-25T16:23:23Z</time>
      </trkpt>
      <trkpt lat="43.2188" lon="5.44712">
        <ele>220</ele>
        <time>2018-02-25T16:23:28Z</time>
      </trkpt>
      <trkpt lat="43.2188" lon="5.44703">
        <ele>218</ele>
        <time>2018-02-25T16:23:33Z</time>
      </trkpt>
      <trkpt lat="43.21879" lon="5.44695">
        <ele>219</ele>
        <time>2018-02-25T16:23:38Z</time>
      </trkpt>
      <trkpt lat="43.21879" lon="5.44687">
        <ele>217.2</ele>
        <time>2018-02-25T16:23:43Z</time>
      </trkpt>
      <trkpt lat="43.2188" lon="5.44679">
        <ele>219.8</ele>
        <time>2018-02-25T16:23:48Z</time>
      </trkpt>
      <trkpt lat="43.21882" lon="5.44671">
        <ele>219.4</ele>
        <time>2018-02-25T16:23:53Z</time>
      </trkpt>
      <trkpt lat="43.21883" lon="5.44662">
        <ele>218.8</ele>
        <time>2018-02-25T16:23:59Z</time>
      </trkpt>
      <trkpt lat="43.21885" lon="5.44653">
        <ele>215.8</ele>
        <time>2018-02-25T16:24:05Z</time>
      </trkpt>
      <trkpt lat="43.21885" lon="5.44646">
        <ele>217</ele>
        <time>2018-02-25T16:24:10Z</time>
      </trkpt>
      <trkpt lat="43.21886" lon="5.44638">
        <ele>215.4</ele>
        <time>2018-02-25T16:24:15Z</time>
      </trkpt>
      <trkpt lat="43.21888" lon="5.4463">
        <ele>216.2</ele>
        <time>2018-02-25T16:24:20Z</time>
      </trkpt>
      <trkpt lat="43.21891" lon="5.44622">
        <ele>215</ele>
        <time>2018-02-25T16:24:25Z</time>
      </trkpt>
      <trkpt lat="43.21894" lon="5.44616">
        <ele>216</ele>
        <time>2018-02-25T16:24:30Z</time>
      </trkpt>
      <trkpt lat="43.21898" lon="5.44611">
        <ele>214.4</ele>
        <time>2018-02-25T16:24:35Z</time>
      </trkpt>
      <trkpt lat="43.21902" lon="5.44605">
        <ele>214.4</ele>
        <time>2018-02-25T16:24:40Z</time>
      </trkpt>
      <trkpt lat="43.21906" lon="5.44598">
        <ele>208.4</ele>
        <time>2018-02-25T16:24:45Z</time>
      </trkpt>
      <trkpt lat="43.21909" lon="5.44592">
        <ele>210.6</ele>
        <time>2018-02-25T16:24:50Z</time>
      </trkpt>
      <trkpt lat="43.21912" lon="5.44585">
        <ele>209.4</ele>
        <time>2018-02-25T16:24:55Z</time>
      </trkpt>
      <trkpt lat="43.21916" lon="5.44578">
        <ele>208.2</ele>
        <time>2018-02-25T16:25:00Z</time>
      </trkpt>
      <trkpt lat="43.2192" lon="5.44572">
        <ele>211.8</ele>
        <time>2018-02-25T16:25:05Z</time>
      </trkpt>
      <trkpt lat="43.21923" lon="5.44565">
        <ele>208.6</ele>
        <time>2018-02-25T16:25:10Z</time>
      </trkpt>
      <trkpt lat="43.21927" lon="5.44559">
        <ele>207.8</ele>
        <time>2018-02-25T16:25:15Z</time>
      </trkpt>
      <trkpt lat="43.21929" lon="5.44552">
        <ele>205.2</ele>
        <time>2018-02-25T16:25:20Z</time>
      </trkpt>
      <trkpt lat="43.21929" lon="5.44545">
        <ele>211.4</ele>
        <time>2018-02-25T16:25:25Z</time>
      </trkpt>
      <trkpt lat="43.21927" lon="5.44538">
        <ele>207.6</ele>
        <time>2018-02-25T16:25:30Z</time>
      </trkpt>
      <trkpt lat="43.21925" lon="5.4453">
        <ele>208.4</ele>
        <time>2018-02-25T16:25:35Z</time>
      </trkpt>
      <trkpt lat="43.21923" lon="5.44522">
        <ele>208.8</ele>
        <time>2018-02-25T16:25:40Z</time>
      </trkpt>
      <trkpt lat="43.21921" lon="5.44515">
        <ele>208.6</ele>
        <time>2018-02-25T16:25:45Z</time>
      </trkpt>
      <trkpt lat="43.2192" lon="5.44509">
        <ele>209.4</ele>
        <time>2018-02-25T16:25:50Z</time>
      </trkpt>
      <trkpt lat="43.21919" lon="5.44501">
        <ele>206.8</ele>
        <time>2018-02-25T16:25:55Z</time>
      </trkpt>
      <trkpt lat="43.2192" lon="5.44492">
        <ele>206.8</ele>
        <time>2018-02-25T16:26:00Z</time>
      </trkpt>
      <trkpt lat="43.21921" lon="5.44483">
        <ele>209</ele>
        <time>2018-02-25T16:26:05Z</time>
      </trkpt>
      <trkpt lat="43.21922" lon="5.44475">
        <ele>208.8</ele>
        <time>2018-02-25T16:26:10Z</time>
      </trkpt>
      <trkpt lat="43.21923" lon="5.44466">
        <ele>207.6</ele>
        <time>2018-02-25T16:26:15Z</time>
      </trkpt>
      <trkpt lat="43.21924" lon="5.44459">
        <ele>205.4</ele>
        <time>2018-02-25T16:26:20Z</time>
      </trkpt>
      <trkpt lat="43.21926" lon="5.44451">
        <ele>205</ele>
        <time>2018-02-25T16:26:25Z</time>
      </trkpt>
      <trkpt lat="43.21927" lon="5.44443">
        <ele>206.4</ele>
        <time>2018-02-25T16:26:30Z</time>
      </trkpt>
      <trkpt lat="43.2193" lon="5.44434">
        <ele>202.4</ele>
        <time>2018-02-25T16:26:35Z</time>
      </trkpt>
      <trkpt lat="43.21932" lon="5.44426">
        <ele>199</ele>
        <time>2018-02-25T16:26:40Z</time>
      </trkpt>
      <trkpt lat="43.21937" lon="5.44419">
        <ele>202</ele>
        <time>2018-02-25T16:26:45Z</time>
      </trkpt>
      <trkpt lat="43.21941" lon="5.44413">
        <ele>203</ele>
        <time>2018-02-25T16:26:50Z</time>
      </trkpt>
      <trkpt lat="43.21945" lon="5.44408">
        <ele>198.2</ele>
        <time>2018-02-25T16:26:55Z</time>
      </trkpt>
      <trkpt lat="43.2195" lon="5.44402">
        <ele>197.6</ele>
        <time>2018-02-25T16:27:00Z</time>
      </trkpt>
      <trkpt lat="43.21954" lon="5.44395">
        <ele>197</ele>
        <time>2018-02-25T16:27:05Z</time>
      </trkpt>
      <trkpt lat="43.21959" lon="5.4439">
        <ele>196.6</ele>
        <time>2018-02-25T16:27:10Z</time>
      </trkpt>
      <trkpt lat="43.21963" lon="5.44384">
        <ele>194.2</ele>
        <time>2018-02-25T16:27:15Z</time>
      </trkpt>
      <trkpt lat="43.21966" lon="5.44377">
        <ele>195.2</ele>
        <time>2018-02-25T16:27:20Z</time>
      </trkpt>
      <trkpt lat="43.2197" lon="5.44372">
        <ele>194.8</ele>
        <time>2018-02-25T16:27:25Z</time>
      </trkpt>
      <trkpt lat="43.21973" lon="5.44366">
        <ele>195.2</ele>
        <time>2018-02-25T16:27:30Z</time>
      </trkpt>
      <trkpt lat="43.21975" lon="5.44361">
        <ele>193.4</ele>
        <time>2018-02-25T16:27:35Z</time>
      </trkpt>
      <trkpt lat="43.21976" lon="5.44361">
        <ele>193.8</ele>
        <time>2018-02-25T16:27:55Z</time>
      </trkpt>
      <trkpt lat="43.21978" lon="5.44358">
        <ele>192.6</ele>
        <time>2018-02-25T16:28:00Z</time>
      </trkpt>
      <trkpt lat="43.21981" lon="5.44351">
        <ele>192</ele>
        <time>2018-02-25T16:28:05Z</time>
      </trkpt>
      <trkpt lat="43.21984" lon="5.44344">
        <ele>194.4</ele>
        <time>2018-02-25T16:28:10Z</time>
      </trkpt>
      <trkpt lat="43.21986" lon="5.44337">
        <ele>192.2</ele>
        <time>2018-02-25T16:28:15Z</time>
      </trkpt>
      <trkpt lat="43.2199" lon="5.4433">
        <ele>190.6</ele>
        <time>2018-02-25T16:28:20Z</time>
      </trkpt>
      <trkpt lat="43.21993" lon="5.44323">
        <ele>193</ele>
        <time>2018-02-25T16:28:25Z</time>
      </trkpt>
      <trkpt lat="43.21997" lon="5.44319">
        <ele>191.6</ele>
        <time>2018-02-25T16:28:35Z</time>
      </trkpt>
      <trkpt lat="43.22" lon="5.44311">
        <ele>191.8</ele>
        <time>2018-02-25T16:28:40Z</time>
      </trkpt>
      <trkpt lat="43.22003" lon="5.44304">
        <ele>190.6</ele>
        <time>2018-02-25T16:28:45Z</time>
      </trkpt>
      <trkpt lat="43.22007" lon="5.44299">
        <ele>192</ele>
        <time>2018-02-25T16:28:50Z</time>
      </trkpt>
      <trkpt lat="43.22011" lon="5.44292">
        <ele>192.2</ele>
        <time>2018-02-25T16:28:56Z</time>
      </trkpt>
      <trkpt lat="43.22016" lon="5.44286">
        <ele>193</ele>
        <time>2018-02-25T16:29:01Z</time>
      </trkpt>
      <trkpt lat="43.22019" lon="5.4428">
        <ele>192.8</ele>
        <time>2018-02-25T16:29:06Z</time>
      </trkpt>
      <trkpt lat="43.22023" lon="5.44272">
        <ele>191.6</ele>
        <time>2018-02-25T16:29:11Z</time>
      </trkpt>
      <trkpt lat="43.22026" lon="5.44265">
        <ele>191.6</ele>
        <time>2018-02-25T16:29:16Z</time>
      </trkpt>
      <trkpt lat="43.22028" lon="5.44258">
        <ele>193.4</ele>
        <time>2018-02-25T16:29:21Z</time>
      </trkpt>
      <trkpt lat="43.2203" lon="5.4425">
        <ele>194</ele>
        <time>2018-02-25T16:29:26Z</time>
      </trkpt>
      <trkpt lat="43.22032" lon="5.44242">
        <ele>190.8</ele>
        <time>2018-02-25T16:29:31Z</time>
      </trkpt>
      <trkpt lat="43.22034" lon="5.44234">
        <ele>192.2</ele>
        <time>2018-02-25T16:29:36Z</time>
      </trkpt>
      <trkpt lat="43.22036" lon="5.44226">
        <ele>191</ele>
        <time>2018-02-25T16:29:41Z</time>
      </trkpt>
      <trkpt lat="43.22038" lon="5.44218">
        <ele>191.4</ele>
        <time>2018-02-25T16:29:46Z</time>
      </trkpt>
      <trkpt lat="43.22041" lon="5.4421">
        <ele>193.8</ele>
        <time>2018-02-25T16:29:51Z</time>
      </trkpt>
      <trkpt lat="43.22043" lon="5.44204">
        <ele>191</ele>
        <time>2018-02-25T16:29:56Z</time>
      </trkpt>
      <trkpt lat="43.22045" lon="5.44196">
        <ele>190</ele>
        <time>2018-02-25T16:30:01Z</time>
      </trkpt>
      <trkpt lat="43.22047" lon="5.44188">
        <ele>190.2</ele>
        <time>2018-02-25T16:30:06Z</time>
      </trkpt>
      <trkpt lat="43.22049" lon="5.4418">
        <ele>188.6</ele>
        <time>2018-02-25T16:30:11Z</time>
      </trkpt>
      <trkpt lat="43.22051" lon="5.44172">
        <ele>190.2</ele>
        <time>2018-02-25T16:30:16Z</time>
      </trkpt>
      <trkpt lat="43.22053" lon="5.44163">
        <ele>190</ele>
        <time>2018-02-25T16:30:21Z</time>
      </trkpt>
      <trkpt lat="43.22055" lon="5.44156">
        <ele>186.4</ele>
        <time>2018-02-25T16:30:26Z</time>
      </trkpt>
      <trkpt lat="43.22057" lon="5.44149">
        <ele>187.6</ele>
        <time>2018-02-25T16:30:31Z</time>
      </trkpt>
      <trkpt lat="43.2206" lon="5.44141">
        <ele>189.4</ele>
        <time>2018-02-25T16:30:36Z</time>
      </trkpt>
      <trkpt lat="43.22063" lon="5.44133">
        <ele>187.8</ele>
        <time>2018-02-25T16:30:41Z</time>
      </trkpt>
      <trkpt lat="43.22066" lon="5.44126">
        <ele>187.8</ele>
        <time>2018-02-25T16:30:46Z</time>
      </trkpt>
      <trkpt lat="43.2207" lon="5.44119">
        <ele>187</ele>
        <time>2018-02-25T16:30:51Z</time>
      </trkpt>
      <trkpt lat="43.22074" lon="5.44113">
        <ele>183.6</ele>
        <time>2018-02-25T16:30:56Z</time>
      </trkpt>
      <trkpt lat="43.22078" lon="5.44108">
        <ele>185.4</ele>
        <time>2018-02-25T16:31:01Z</time>
      </trkpt>
      <trkpt lat="43.2208" lon="5.44104">
        <ele>184.2</ele>
        <time>2018-02-25T16:31:06Z</time>
      </trkpt>
      <trkpt lat="43.22083" lon="5.44099">
        <ele>182</ele>
        <time>2018-02-25T16:31:11Z</time>
      </trkpt>
      <trkpt lat="43.22086" lon="5.44095">
        <ele>180.4</ele>
        <time>2018-02-25T16:31:16Z</time>
      </trkpt>
      <trkpt lat="43.2209" lon="5.4409">
        <ele>181.2</ele>
        <time>2018-02-25T16:31:21Z</time>
      </trkpt>
      <trkpt lat="43.22092" lon="5.4409">
        <ele>181</ele>
        <time>2018-02-25T16:31:26Z</time>
      </trkpt>
      <trkpt lat="43.22097" lon="5.44085">
        <ele>181.2</ele>
        <time>2018-02-25T16:31:31Z</time>
      </trkpt>
      <trkpt lat="43.22101" lon="5.4408">
        <ele>179.8</ele>
        <time>2018-02-25T16:31:36Z</time>
      </trkpt>
      <trkpt lat="43.22105" lon="5.44075">
        <ele>180.2</ele>
        <time>2018-02-25T16:31:41Z</time>
      </trkpt>
      <trkpt lat="43.22108" lon="5.44072">
        <ele>180.4</ele>
        <time>2018-02-25T16:31:46Z</time>
      </trkpt>
      <trkpt lat="43.22113" lon="5.44069">
        <ele>178.8</ele>
        <time>2018-02-25T16:31:51Z</time>
      </trkpt>
      <trkpt lat="43.22116" lon="5.44065">
        <ele>180.2</ele>
        <time>2018-02-25T16:31:56Z</time>
      </trkpt>
      <trkpt lat="43.2212" lon="5.44063">
        <ele>178.6</ele>
        <time>2018-02-25T16:32:01Z</time>
      </trkpt>
      <trkpt lat="43.22123" lon="5.4406">
        <ele>177.6</ele>
        <time>2018-02-25T16:32:06Z</time>
      </trkpt>
      <trkpt lat="43.22126" lon="5.44058">
        <ele>179.6</ele>
        <time>2018-02-25T16:32:11Z</time>
      </trkpt>
      <trkpt lat="43.2213" lon="5.44053">
        <ele>176.2</ele>
        <time>2018-02-25T16:32:16Z</time>
      </trkpt>
      <trkpt lat="43.22134" lon="5.44048">
        <ele>177</ele>
        <time>2018-02-25T16:32:21Z</time>
      </trkpt>
      <trkpt lat="43.22138" lon="5.44045">
        <ele>176.6</ele>
        <time>2018-02-25T16:32:26Z</time>
      </trkpt>
      <trkpt lat="43.22142" lon="5.44041">
        <ele>177.6</ele>
        <time>2018-02-25T16:32:31Z</time>
      </trkpt>
      <trkpt lat="43.22146" lon="5.44036">
        <ele>179</ele>
        <time>2018-02-25T16:32:36Z</time>
      </trkpt>
      <trkpt lat="43.22148" lon="5.44036">
        <ele>178.6</ele>
        <time>2018-02-25T16:32:41Z</time>
      </trkpt>
      <trkpt lat="43.22148" lon="5.44036">
        <ele>178.4</ele>
        <time>2018-02-25T16:33:01Z</time>
      </trkpt>
      <trkpt lat="43.2215" lon="5.44033">
        <ele>176.6</ele>
        <time>2018-02-25T16:33:06Z</time>
      </trkpt>
      <trkpt lat="43.2215" lon="5.44031">
        <ele>176.8</ele>
        <time>2018-02-25T16:33:16Z</time>
      </trkpt>
      <trkpt lat="43.22155" lon="5.44028">
        <ele>173.8</ele>
        <time>2018-02-25T16:33:21Z</time>
      </trkpt>
      <trkpt lat="43.2216" lon="5.44024">
        <ele>176</ele>
        <time>2018-02-25T16:33:26Z</time>
      </trkpt>
      <trkpt lat="43.22166" lon="5.4402">
        <ele>176</ele>
        <time>2018-02-25T16:33:31Z</time>
      </trkpt>
      <trkpt lat="43.22172" lon="5.44016">
        <ele>179.4</ele>
        <time>2018-02-25T16:33:36Z</time>
      </trkpt>
      <trkpt lat="43.22178" lon="5.44013">
        <ele>177.2</ele>
        <time>2018-02-25T16:33:41Z</time>
      </trkpt>
      <trkpt lat="43.22184" lon="5.4401">
        <ele>179</ele>
        <time>2018-02-25T16:33:46Z</time>
      </trkpt>
      <trkpt lat="43.22189" lon="5.44009">
        <ele>177</ele>
        <time>2018-02-25T16:33:51Z</time>
      </trkpt>
      <trkpt lat="43.22196" lon="5.44008">
        <ele>175</ele>
        <time>2018-02-25T16:33:56Z</time>
      </trkpt>
      <trkpt lat="43.22201" lon="5.44006">
        <ele>177.8</ele>
        <time>2018-02-25T16:34:01Z</time>
      </trkpt>
      <trkpt lat="43.22207" lon="5.44004">
        <ele>179.2</ele>
        <time>2018-02-25T16:34:06Z</time>
      </trkpt>
      <trkpt lat="43.22213" lon="5.44003">
        <ele>177.4</ele>
        <time>2018-02-25T16:34:11Z</time>
      </trkpt>
      <trkpt lat="43.22218" lon="5.44001">
        <ele>174.8</ele>
        <time>2018-02-25T16:34:16Z</time>
      </trkpt>
      <trkpt lat="43.22224" lon="5.43999">
        <ele>176.2</ele>
        <time>2018-02-25T16:34:21Z</time>
      </trkpt>
      <trkpt lat="43.22229" lon="5.43997">
        <ele>176.6</ele>
        <time>2018-02-25T16:34:26Z</time>
      </trkpt>
      <trkpt lat="43.22235" lon="5.43995">
        <ele>176.2</ele>
        <time>2018-02-25T16:34:31Z</time>
      </trkpt>
      <trkpt lat="43.2224" lon="5.43992">
        <ele>179.2</ele>
        <time>2018-02-25T16:34:36Z</time>
      </trkpt>
      <trkpt lat="43.22246" lon="5.4399">
        <ele>176.8</ele>
        <time>2018-02-25T16:34:41Z</time>
      </trkpt>
      <trkpt lat="43.22251" lon="5.43989">
        <ele>176.8</ele>
        <time>2018-02-25T16:34:46Z</time>
      </trkpt>
      <trkpt lat="43.22256" lon="5.43987">
        <ele>180.8</ele>
        <time>2018-02-25T16:34:51Z</time>
      </trkpt>
      <trkpt lat="43.22262" lon="5.43984">
        <ele>180.2</ele>
        <time>2018-02-25T16:34:56Z</time>
      </trkpt>
      <trkpt lat="43.22267" lon="5.43981">
        <ele>179</ele>
        <time>2018-02-25T16:35:01Z</time>
      </trkpt>
      <trkpt lat="43.22272" lon="5.43977">
        <ele>177.4</ele>
        <time>2018-02-25T16:35:06Z</time>
      </trkpt>
      <trkpt lat="43.22277" lon="5.43973">
        <ele>176.2</ele>
        <time>2018-02-25T16:35:11Z</time>
      </trkpt>
      <trkpt lat="43.22282" lon="5.43969">
        <ele>177.2</ele>
        <time>2018-02-25T16:35:16Z</time>
      </trkpt>
      <trkpt lat="43.22288" lon="5.43964">
        <ele>175.2</ele>
        <time>2018-02-25T16:35:21Z</time>
      </trkpt>
      <trkpt lat="43.22292" lon="5.4396">
        <ele>175.2</ele>
        <time>2018-02-25T16:35:26Z</time>
      </trkpt>
      <trkpt lat="43.22296" lon="5.43955">
        <ele>170.4</ele>
        <time>2018-02-25T16:35:31Z</time>
      </trkpt>
      <trkpt lat="43.223" lon="5.43951">
        <ele>176.2</ele>
        <time>2018-02-25T16:35:36Z</time>
      </trkpt>
      <trkpt lat="43.22305" lon="5.43947">
        <ele>173.8</ele>
        <time>2018-02-25T16:35:41Z</time>
      </trkpt>
      <trkpt lat="43.2231" lon="5.43942">
        <ele>175</ele>
        <time>2018-02-25T16:35:46Z</time>
      </trkpt>
      <trkpt lat="43.22315" lon="5.43937">
        <ele>178.4</ele>
        <time>2018-02-25T16:35:51Z</time>
      </trkpt>
      <trkpt lat="43.2232" lon="5.43931">
        <ele>174.8</ele>
        <time>2018-02-25T16:35:56Z</time>
      </trkpt>
      <trkpt lat="43.22325" lon="5.43926">
        <ele>172.8</ele>
        <time>2018-02-25T16:36:01Z</time>
      </trkpt>
      <trkpt lat="43.22329" lon="5.43921">
        <ele>175.4</ele>
        <time>2018-02-25T16:36:06Z</time>
      </trkpt>
      <trkpt lat="43.22334" lon="5.43915">
        <ele>173.2</ele>
        <time>2018-02-25T16:36:11Z</time>
      </trkpt>
      <trkpt lat="43.22338" lon="5.43909">
        <ele>170.2</ele>
        <time>2018-02-25T16:36:16Z</time>
      </trkpt>
      <trkpt lat="43.22343" lon="5.43903">
        <ele>173.6</ele>
        <time>2018-02-25T16:36:21Z</time>
      </trkpt>
      <trkpt lat="43.22347" lon="5.43898">
        <ele>170.6</ele>
        <time>2018-02-25T16:36:26Z</time>
      </trkpt>
      <trkpt lat="43.22351" lon="5.43891">
        <ele>172.6</ele>
        <time>2018-02-25T16:36:31Z</time>
      </trkpt>
      <trkpt lat="43.22355" lon="5.43886">
        <ele>170.4</ele>
        <time>2018-02-25T16:36:36Z</time>
      </trkpt>
      <trkpt lat="43.22359" lon="5.4388">
        <ele>171</ele>
        <time>2018-02-25T16:36:41Z</time>
      </trkpt>
      <trkpt lat="43.22364" lon="5.43875">
        <ele>170.2</ele>
        <time>2018-02-25T16:36:46Z</time>
      </trkpt>
      <trkpt lat="43.2237" lon="5.43873">
        <ele>169</ele>
        <time>2018-02-25T16:36:51Z</time>
      </trkpt>
      <trkpt lat="43.22375" lon="5.43868">
        <ele>168.4</ele>
        <time>2018-02-25T16:36:56Z</time>
      </trkpt>
      <trkpt lat="43.2238" lon="5.43864">
        <ele>170.2</ele>
        <time>2018-02-25T16:37:01Z</time>
      </trkpt>
      <trkpt lat="43.22386" lon="5.43861">
        <ele>167.8</ele>
        <time>2018-02-25T16:37:06Z</time>
      </trkpt>
      <trkpt lat="43.22393" lon="5.43858">
        <ele>168.6</ele>
        <time>2018-02-25T16:37:11Z</time>
      </trkpt>
      <trkpt lat="43.22399" lon="5.43856">
        <ele>165.8</ele>
        <time>2018-02-25T16:37:16Z</time>
      </trkpt>
      <trkpt lat="43.22404" lon="5.43853">
        <ele>167.2</ele>
        <time>2018-02-25T16:37:21Z</time>
      </trkpt>
      <trkpt lat="43.2241" lon="5.4385">
        <ele>168</ele>
        <time>2018-02-25T16:37:26Z</time>
      </trkpt>
      <trkpt lat="43.22415" lon="5.43847">
        <ele>168.8</ele>
        <time>2018-02-25T16:37:31Z</time>
      </trkpt>
      <trkpt lat="43.2242" lon="5.43843">
        <ele>169.6</ele>
        <time>2018-02-25T16:37:36Z</time>
      </trkpt>
      <trkpt lat="43.22425" lon="5.43839">
        <ele>168.2</ele>
        <time>2018-02-25T16:37:41Z</time>
      </trkpt>
      <trkpt lat="43.2243" lon="5.43834">
        <ele>167.4</ele>
        <time>2018-02-25T16:37:46Z</time>
      </trkpt>
      <trkpt lat="43.22436" lon="5.4383">
        <ele>166.8</ele>
        <time>2018-02-25T16:37:51Z</time>
      </trkpt>
      <trkpt lat="43.22441" lon="5.43825">
        <ele>168.8</ele>
        <time>2018-02-25T16:37:56Z</time>
      </trkpt>
      <trkpt lat="43.22446" lon="5.4382">
        <ele>167.8</ele>
        <time>2018-02-25T16:38:01Z</time>
      </trkpt>
      <trkpt lat="43.22451" lon="5.43815">
        <ele>165.4</ele>
        <time>2018-02-25T16:38:06Z</time>
      </trkpt>
      <trkpt lat="43.22456" lon="5.4381">
        <ele>169.4</ele>
        <time>2018-02-25T16:38:11Z</time>
      </trkpt>
      <trkpt lat="43.22463" lon="5.4381">
        <ele>167.4</ele>
        <time>2018-02-25T16:38:16Z</time>
      </trkpt>
      <trkpt lat="43.2247" lon="5.4381">
        <ele>167</ele>
        <time>2018-02-25T16:38:21Z</time>
      </trkpt>
      <trkpt lat="43.22476" lon="5.4381">
        <ele>168</ele>
        <time>2018-02-25T16:38:26Z</time>
      </trkpt>
      <trkpt lat="43.22482" lon="5.4381">
        <ele>166.8</ele>
        <time>2018-02-25T16:38:31Z</time>
      </trkpt>
      <trkpt lat="43.22489" lon="5.4381">
        <ele>166.4</ele>
        <time>2018-02-25T16:38:36Z</time>
      </trkpt>
      <trkpt lat="43.22495" lon="5.4381">
        <ele>165.8</ele>
        <time>2018-02-25T16:38:41Z</time>
      </trkpt>
      <trkpt lat="43.22501" lon="5.43811">
        <ele>166.4</ele>
        <time>2018-02-25T16:38:46Z</time>
      </trkpt>
      <trkpt lat="43.22508" lon="5.43811">
        <ele>166.2</ele>
        <time>2018-02-25T16:38:51Z</time>
      </trkpt>
      <trkpt lat="43.22516" lon="5.43811">
        <ele>164.4</ele>
        <time>2018-02-25T16:38:57Z</time>
      </trkpt>
      <trkpt lat="43.22524" lon="5.43811">
        <ele>165.8</ele>
        <time>2018-02-25T16:39:03Z</time>
      </trkpt>
      <trkpt lat="43.22529" lon="5.4381">
        <ele>165.4</ele>
        <time>2018-02-25T16:39:08Z</time>
      </trkpt>
      <trkpt lat="43.22535" lon="5.43809">
        <ele>167.6</ele>
        <time>2018-02-25T16:39:13Z</time>
      </trkpt>
      <trkpt lat="43.22541" lon="5.43808">
        <ele>167.6</ele>
        <time>2018-02-25T16:39:18Z</time>
      </trkpt>
      <trkpt lat="43.22547" lon="5.43808">
        <ele>166</ele>
        <time>2018-02-25T16:39:23Z</time>
      </trkpt>
      <trkpt lat="43.22553" lon="5.43808">
        <ele>165.2</ele>
        <time>2018-02-25T16:39:28Z</time>
      </trkpt>
      <trkpt lat="43.22559" lon="5.43808">
        <ele>167.8</ele>
        <time>2018-02-25T16:39:33Z</time>
      </trkpt>
      <trkpt lat="43.22565" lon="5.43808">
        <ele>166.4</ele>
        <time>2018-02-25T16:39:38Z</time>
      </trkpt>
      <trkpt lat="43.22571" lon="5.43807">
        <ele>165</ele>
        <time>2018-02-25T16:39:43Z</time>
      </trkpt>
      <trkpt lat="43.22578" lon="5.43806">
        <ele>165.2</ele>
        <time>2018-02-25T16:39:48Z</time>
      </trkpt>
      <trkpt lat="43.22585" lon="5.43806">
        <ele>166.8</ele>
        <time>2018-02-25T16:39:53Z</time>
      </trkpt>
      <trkpt lat="43.22591" lon="5.43806">
        <ele>167.4</ele>
        <time>2018-02-25T16:39:58Z</time>
      </trkpt>
      <trkpt lat="43.22597" lon="5.43806">
        <ele>165</ele>
        <time>2018-02-25T16:40:03Z</time>
      </trkpt>
      <trkpt lat="43.22604" lon="5.43804">
        <ele>166</ele>
        <time>2018-02-25T16:40:08Z</time>
      </trkpt>
      <trkpt lat="43.22611" lon="5.43803">
        <ele>166.2</ele>
        <time>2018-02-25T16:40:13Z</time>
      </trkpt>
      <trkpt lat="43.22618" lon="5.438">
        <ele>165.8</ele>
        <time>2018-02-25T16:40:18Z</time>
      </trkpt>
      <trkpt lat="43.22624" lon="5.43798">
        <ele>165.8</ele>
        <time>2018-02-25T16:40:23Z</time>
      </trkpt>
      <trkpt lat="43.2263" lon="5.43795">
        <ele>168.6</ele>
        <time>2018-02-25T16:40:28Z</time>
      </trkpt>
      <trkpt lat="43.22637" lon="5.43793">
        <ele>166.4</ele>
        <time>2018-02-25T16:40:33Z</time>
      </trkpt>
      <trkpt lat="43.22643" lon="5.43789">
        <ele>164.8</ele>
        <time>2018-02-25T16:40:38Z</time>
      </trkpt>
      <trkpt lat="43.22649" lon="5.43786">
        <ele>163.2</ele>
        <time>2018-02-25T16:40:43Z</time>
      </trkpt>
      <trkpt lat="43.22655" lon="5.43782">
        <ele>166.4</ele>
        <time>2018-02-25T16:40:48Z</time>
      </trkpt>
      <trkpt lat="43.22661" lon="5.43778">
        <ele>166.6</ele>
        <time>2018-02-25T16:40:53Z</time>
      </trkpt>
      <trkpt lat="43.22666" lon="5.43773">
        <ele>164.2</ele>
        <time>2018-02-25T16:40:58Z</time>
      </trkpt>
      <trkpt lat="43.22671" lon="5.43769">
        <ele>161.6</ele>
        <time>2018-02-25T16:41:03Z</time>
      </trkpt>
      <trkpt lat="43.22677" lon="5.43764">
        <ele>161.2</ele>
        <time>2018-02-25T16:41:08Z</time>
      </trkpt>
      <trkpt lat="43.22682" lon="5.4376">
        <ele>163.8</ele>
        <time>2018-02-25T16:41:13Z</time>
      </trkpt>
      <trkpt lat="43.22688" lon="5.43756">
        <ele>164.4</ele>
        <time>2018-02-25T16:41:18Z</time>
      </trkpt>
      <trkpt lat="43.22693" lon="5.43751">
        <ele>163.2</ele>
        <time>2018-02-25T16:41:23Z</time>
      </trkpt>
      <trkpt lat="43.22699" lon="5.43747">
        <ele>161.6</ele>
        <time>2018-02-25T16:41:28Z</time>
      </trkpt>
      <trkpt lat="43.22705" lon="5.43743">
        <ele>159.8</ele>
        <time>2018-02-25T16:41:33Z</time>
      </trkpt>
      <trkpt lat="43.2271" lon="5.4374">
        <ele>162.2</ele>
        <time>2018-02-25T16:41:38Z</time>
      </trkpt>
      <trkpt lat="43.22717" lon="5.43737">
        <ele>161.2</ele>
        <time>2018-02-25T16:41:43Z</time>
      </trkpt>
      <trkpt lat="43.22723" lon="5.43735">
        <ele>161</ele>
        <time>2018-02-25T16:41:48Z</time>
      </trkpt>
      <trkpt lat="43.22729" lon="5.43732">
        <ele>161.6</ele>
        <time>2018-02-25T16:41:53Z</time>
      </trkpt>
      <trkpt lat="43.22735" lon="5.4373">
        <ele>160.8</ele>
        <time>2018-02-25T16:41:58Z</time>
      </trkpt>
      <trkpt lat="43.22742" lon="5.43729">
        <ele>159.8</ele>
        <time>2018-02-25T16:42:03Z</time>
      </trkpt>
      <trkpt lat="43.22748" lon="5.43727">
        <ele>160.8</ele>
        <time>2018-02-25T16:42:08Z</time>
      </trkpt>
      <trkpt lat="43.22754" lon="5.43725">
        <ele>159.6</ele>
        <time>2018-02-25T16:42:13Z</time>
      </trkpt>
      <trkpt lat="43.2276" lon="5.43723">
        <ele>159</ele>
        <time>2018-02-25T16:42:18Z</time>
      </trkpt>
      <trkpt lat="43.22767" lon="5.43722">
        <ele>156.8</ele>
        <time>2018-02-25T16:42:23Z</time>
      </trkpt>
      <trkpt lat="43.22773" lon="5.43721">
        <ele>156.6</ele>
        <time>2018-02-25T16:42:28Z</time>
      </trkpt>
      <trkpt lat="43.22779" lon="5.43721">
        <ele>156.8</ele>
        <time>2018-02-25T16:42:33Z</time>
      </trkpt>
      <trkpt lat="43.22786" lon="5.43722">
        <ele>157</ele>
        <time>2018-02-25T16:42:38Z</time>
      </trkpt>
      <trkpt lat="43.22792" lon="5.43724">
        <ele>157.2</ele>
        <time>2018-02-25T16:42:43Z</time>
      </trkpt>
      <trkpt lat="43.22798" lon="5.43725">
        <ele>157.8</ele>
        <time>2018-02-25T16:42:48Z</time>
      </trkpt>
      <trkpt lat="43.22804" lon="5.43726">
        <ele>153.2</ele>
        <time>2018-02-25T16:42:53Z</time>
      </trkpt>
      <trkpt lat="43.2281" lon="5.43725">
        <ele>153.8</ele>
        <time>2018-02-25T16:42:58Z</time>
      </trkpt>
      <trkpt lat="43.22816" lon="5.43724">
        <ele>157</ele>
        <time>2018-02-25T16:43:03Z</time>
      </trkpt>
      <trkpt lat="43.22821" lon="5.43721">
        <ele>156</ele>
        <time>2018-02-25T16:43:08Z</time>
      </trkpt>
      <trkpt lat="43.22828" lon="5.43719">
        <ele>158.6</ele>
        <time>2018-02-25T16:43:13Z</time>
      </trkpt>
      <trkpt lat="43.22834" lon="5.4372">
        <ele>156.8</ele>
        <time>2018-02-25T16:43:18Z</time>
      </trkpt>
      <trkpt lat="43.2284" lon="5.4372">
        <ele>156.6</ele>
        <time>2018-02-25T16:43:23Z</time>
      </trkpt>
      <trkpt lat="43.22847" lon="5.43719">
        <ele>155.4</ele>
        <time>2018-02-25T16:43:28Z</time>
      </trkpt>
      <trkpt lat="43.22853" lon="5.43718">
        <ele>157.4</ele>
        <time>2018-02-25T16:43:33Z</time>
      </trkpt>
      <trkpt lat="43.22859" lon="5.43716">
        <ele>157.4</ele>
        <time>2018-02-25T16:43:38Z</time>
      </trkpt>
      <trkpt lat="43.22866" lon="5.43716">
        <ele>156.4</ele>
        <time>2018-02-25T16:43:43Z</time>
      </trkpt>
      <trkpt lat="43.22874" lon="5.43715">
        <ele>157.6</ele>
        <time>2018-02-25T16:43:49Z</time>
      </trkpt>
      <trkpt lat="43.2288" lon="5.43714">
        <ele>154.4</ele>
        <time>2018-02-25T16:43:54Z</time>
      </trkpt>
      <trkpt lat="43.22885" lon="5.43714">
        <ele>155.2</ele>
        <time>2018-02-25T16:43:59Z</time>
      </trkpt>
      <trkpt lat="43.22888" lon="5.43713">
        <ele>154.6</ele>
        <time>2018-02-25T16:44:04Z</time>
      </trkpt>
      <trkpt lat="43.22895" lon="5.43712">
        <ele>155.8</ele>
        <time>2018-02-25T16:44:09Z</time>
      </trkpt>
      <trkpt lat="43.22902" lon="5.43711">
        <ele>156.6</ele>
        <time>2018-02-25T16:44:14Z</time>
      </trkpt>
      <trkpt lat="43.22908" lon="5.43711">
        <ele>154.4</ele>
        <time>2018-02-25T16:44:19Z</time>
      </trkpt>
      <trkpt lat="43.22914" lon="5.43711">
        <ele>154.8</ele>
        <time>2018-02-25T16:44:24Z</time>
      </trkpt>
      <trkpt lat="43.22921" lon="5.43711">
        <ele>155.4</ele>
        <time>2018-02-25T16:44:29Z</time>
      </trkpt>
      <trkpt lat="43.22927" lon="5.4371">
        <ele>154.4</ele>
        <time>2018-02-25T16:44:34Z</time>
      </trkpt>
      <trkpt lat="43.22933" lon="5.43708">
        <ele>152.2</ele>
        <time>2018-02-25T16:44:39Z</time>
      </trkpt>
      <trkpt lat="43.22939" lon="5.43706">
        <ele>151.8</ele>
        <time>2018-02-25T16:44:44Z</time>
      </trkpt>
      <trkpt lat="43.22945" lon="5.43705">
        <ele>150.4</ele>
        <time>2018-02-25T16:44:49Z</time>
      </trkpt>
      <trkpt lat="43.22952" lon="5.43705">
        <ele>150.6</ele>
        <time>2018-02-25T16:44:54Z</time>
      </trkpt>
      <trkpt lat="43.22958" lon="5.43708">
        <ele>152.4</ele>
        <time>2018-02-25T16:44:59Z</time>
      </trkpt>
      <trkpt lat="43.22964" lon="5.43707">
        <ele>150.4</ele>
        <time>2018-02-25T16:45:04Z</time>
      </trkpt>
      <trkpt lat="43.22968" lon="5.4371">
        <ele>151.8</ele>
        <time>2018-02-25T16:45:09Z</time>
      </trkpt>
      <trkpt lat="43.22974" lon="5.43709">
        <ele>147</ele>
        <time>2018-02-25T16:45:14Z</time>
      </trkpt>
      <trkpt lat="43.22976" lon="5.43707">
        <ele>146</ele>
        <time>2018-02-25T16:45:19Z</time>
      </trkpt>
      <trkpt lat="43.22982" lon="5.43706">
        <ele>148.4</ele>
        <time>2018-02-25T16:45:24Z</time>
      </trkpt>
      <trkpt lat="43.22985" lon="5.43705">
        <ele>146.2</ele>
        <time>2018-02-25T16:45:29Z</time>
      </trkpt>
      <trkpt lat="43.22991" lon="5.43706">
        <ele>146.8</ele>
        <time>2018-02-25T16:45:34Z</time>
      </trkpt>
      <trkpt lat="43.22997" lon="5.43706">
        <ele>146</ele>
        <time>2018-02-25T16:45:39Z</time>
      </trkpt>
      <trkpt lat="43.23004" lon="5.43704">
        <ele>146.8</ele>
        <time>2018-02-25T16:45:44Z</time>
      </trkpt>
      <trkpt lat="43.2301" lon="5.43703">
        <ele>144.8</ele>
        <time>2018-02-25T16:45:49Z</time>
      </trkpt>
      <trkpt lat="43.23017" lon="5.43701">
        <ele>143.2</ele>
        <time>2018-02-25T16:45:54Z</time>
      </trkpt>
      <trkpt lat="43.2302" lon="5.43704">
        <ele>143.8</ele>
        <time>2018-02-25T16:45:59Z</time>
      </trkpt>
      <trkpt lat="43.2302" lon="5.43704">
        <ele>143.4</ele>
        <time>2018-02-25T16:46:09Z</time>
      </trkpt>
      <trkpt lat="43.23022" lon="5.43702">
        <ele>142.4</ele>
        <time>2018-02-25T16:46:14Z</time>
      </trkpt>
      <trkpt lat="43.23025" lon="5.43701">
        <ele>142.4</ele>
        <time>2018-02-25T16:46:19Z</time>
      </trkpt>
      <trkpt lat="43.23028" lon="5.43699">
        <ele>142.4</ele>
        <time>2018-02-25T16:46:24Z</time>
      </trkpt>
      <trkpt lat="43.23028" lon="5.43699">
        <ele>142.4</ele>
        <time>2018-02-25T16:46:29Z</time>
      </trkpt>
      <trkpt lat="43.23029" lon="5.437">
        <ele>140.2</ele>
        <time>2018-02-25T16:46:34Z</time>
      </trkpt>
      <trkpt lat="43.23034" lon="5.43698">
        <ele>140.2</ele>
        <time>2018-02-25T16:46:39Z</time>
      </trkpt>
      <trkpt lat="43.23036" lon="5.43697">
        <ele>140.6</ele>
        <time>2018-02-25T16:46:44Z</time>
      </trkpt>
      <trkpt lat="43.23038" lon="5.43698">
        <ele>140.8</ele>
        <time>2018-02-25T16:46:49Z</time>
      </trkpt>
      <trkpt lat="43.23045" lon="5.43698">
        <ele>140.4</ele>
        <time>2018-02-25T16:46:54Z</time>
      </trkpt>
      <trkpt lat="43.2305" lon="5.43698">
        <ele>137</ele>
        <time>2018-02-25T16:46:59Z</time>
      </trkpt>
      <trkpt lat="43.23054" lon="5.43696">
        <ele>138</ele>
        <time>2018-02-25T16:47:04Z</time>
      </trkpt>
      <trkpt lat="43.23056" lon="5.43691">
        <ele>138</ele>
        <time>2018-02-25T16:47:09Z</time>
      </trkpt>
      <trkpt lat="43.23059" lon="5.43688">
        <ele>137</ele>
        <time>2018-02-25T16:47:14Z</time>
      </trkpt>
      <trkpt lat="43.23059" lon="5.4368">
        <ele>137.4</ele>
        <time>2018-02-25T16:47:19Z</time>
      </trkpt>
      <trkpt lat="43.23058" lon="5.43673">
        <ele>135</ele>
        <time>2018-02-25T16:47:24Z</time>
      </trkpt>
      <trkpt lat="43.23055" lon="5.43665">
        <ele>136.6</ele>
        <time>2018-02-25T16:47:29Z</time>
      </trkpt>
      <trkpt lat="43.23053" lon="5.43658">
        <ele>138.2</ele>
        <time>2018-02-25T16:47:34Z</time>
      </trkpt>
      <trkpt lat="43.23054" lon="5.43659">
        <ele>139</ele>
        <time>2018-02-25T16:47:49Z</time>
      </trkpt>
      <trkpt lat="43.23057" lon="5.43669">
        <ele>140.6</ele>
        <time>2018-02-25T16:47:54Z</time>
      </trkpt>
      <trkpt lat="43.23058" lon="5.43679">
        <ele>141.8</ele>
        <time>2018-02-25T16:47:59Z</time>
      </trkpt>
      <trkpt lat="43.23065" lon="5.43684">
        <ele>139.4</ele>
        <time>2018-02-25T16:48:04Z</time>
      </trkpt>
      <trkpt lat="43.2307" lon="5.43687">
        <ele>140.4</ele>
        <time>2018-02-25T16:48:09Z</time>
      </trkpt>
      <trkpt lat="43.23071" lon="5.43691">
        <ele>135.4</ele>
        <time>2018-02-25T16:48:14Z</time>
      </trkpt>
      <trkpt lat="43.23079" lon="5.43696">
        <ele>138.4</ele>
        <time>2018-02-25T16:48:19Z</time>
      </trkpt>
      <trkpt lat="43.23087" lon="5.43696">
        <ele>136.4</ele>
        <time>2018-02-25T16:48:24Z</time>
      </trkpt>
      <trkpt lat="43.23095" lon="5.43695">
        <ele>136</ele>
        <time>2018-02-25T16:48:29Z</time>
      </trkpt>
      <trkpt lat="43.23102" lon="5.43693">
        <ele>138.8</ele>
        <time>2018-02-25T16:48:34Z</time>
      </trkpt>
      <trkpt lat="43.23106" lon="5.43692">
        <ele>135.8</ele>
        <time>2018-02-25T16:48:39Z</time>
      </trkpt>
      <trkpt lat="43.23106" lon="5.43692">
        <ele>135.8</ele>
        <time>2018-02-25T16:48:44Z</time>
      </trkpt>
    </trkseg>
  </trk>
</gpx>